[[{"header":{"parameterUnit":"m.s-1","parameterCategory":1,"la1":31.0,"la2":29.5877,"lo1":-88.7671,"lo2":-86.6584,"dy":0.0162,"dx":0.0185,"nx":115,"ny":88,"refTime":"2024-06-19T00:00:00:Z","depth":0,"parameterNumber":2,"parameterNumberName":"U-component_of_WINDS"},"data":[0.0,0.0,0.0,0.0,0.0,0.0,0.0,0.0,0.0,0.0,0.0,0.0,0.0,0.0,0.0,0.0,0.0,0.0,0.0,0.0,0.0,0.0,0.0,0.0,0.0,0.0,0.0,0.0,0.0,0.0,0.0,0.0,0.0,0.0,0.0,0.0,0.0,0.0,0.0,0.0,0.0,0.0,0.0,0.0,0.0,0.0,0.0,0.0,0.0,0.0,0.0,0.0,0.0,0.0,0.0,0.0,0.0,0.0,0.0,0.0,0.0,0.0,0.0,0.0,0.0,0.0,0.0,0.0,0.0,0.0,0.0,0.0,0.0,0.0,0.0,0.0,0.0,0.0,0.0,0.0,0.0,0.0,0.0,0.0,0.0,0.0,0.0,0.0,0.0,0.0,0.0,0.0,0.0,0.0,0.0,0.0,0.0,0.0,0.0,0.0,0.0,0.0,0.0,0.0,0.0,0.0,0.0,0.0,0.0,0.0,0.0,0.0,0.0,0.0,0.0,0.0,0.0,0.0,0.0,0.0,0.0,0.0,0.0,0.0,0.0,0.0,0.0,0.0,0.0,0.0,0.0,0.0,0.0,0.0,0.0,0.0,0.0,0.0,0.0,0.0,0.0,0.0,0.0,0.0,0.0,0.0,0.0,0.0,0.0,0.0,0.0,0.0,0.0,0.0,0.0,0.0,0.0,0.0,0.0,0.0,0.0,0.0,0.0,0.0,0.0,0.0,0.0,0.0,0.0,0.0,0.0,0.0,0.0,0.0,0.0,0.0,0.0,0.0,0.0,0.0,0.0,0.0,0.0,0.0,0.0,0.0,0.0,0.0,0.0,0.0,0.0,0.0,0.0,0.0,0.0,0.0,0.0,0.0,0.0,0.0,0.0,0.0,0.0,0.0,0.0,0.0,0.0,0.0,0.0,0.0,0.0,0.0,0.0,0.0,0.0,0.0,0.0,0.0,0.0,0.0,0.0,0.0,0.0,0.0,0.0,0.0,0.0,0.0,0.0,0.0,0.0,0.0,0.0,0.0,0.0,0.0,0.0,0.0,0.0,0.0,0.0,0.0,0.0,0.0,0.0,0.0,0.0,0.0,0.0,0.0,0.0,0.0,0.0,0.0,0.0,0.0,0.0,0.0,0.0,0.0,0.0,0.0,0.0,0.0,0.0,0.0,0.0,0.0,0.0,0.0,0.0,0.0,0.0,0.0,0.0,0.0,0.0,0.0,0.0,0.0,0.0,0.0,0.0,0.0,0.0,0.0,0.0,0.0,0.0,0.0,0.0,0.0,0.0,0.0,0.0,0.0,0.0,0.0,0.0,0.0,0.0,0.0,0.0,0.0,0.0,0.0,0.0,0.0,0.0,0.0,0.0,0.0,0.0,0.0,0.0,0.0,0.0,0.0,0.0,0.0,0.0,0.0,0.0,0.0,0.0,0.0,0.0,0.0,0.0,0.0,0.0,0.0,0.0,0.0,0.0,0.0,0.0,0.0,0.0,0.0,0.0,0.0,0.0,0.0,0.0,0.0,0.0,0.0,0.0,0.0,0.0,0.0,0.0,0.0,0.0,0.0,0.0,0.0,0.0,0.0,0.0,0.0,0.0,0.0,0.0,0.0,0.0,0.0,0.0,0.0,0.0,0.0,0.0,0.0,0.0,0.0,0.0,0.0,0.0,0.0,0.0,0.0,0.0,0.0,0.0,0.0,0.0,0.0,0.0,0.0,0.0,0.0,0.0,0.0,0.0,0.0,0.0,0.0,0.0,0.0,0.0,0.0,0.0,0.0,0.0,0.0,0.0,0.0,0.0,0.0,0.0,0.0,0.0,0.0,0.0,0.0,0.0,0.0,0.0,0.0,0.0,0.0,0.0,0.0,0.0,0.0,0.0,0.0,0.0,0.0,0.0,0.0,0.0,0.0,0.0,0.0,0.0,0.0,0.0,0.0,0.0,0.0,0.0,0.0,0.0,0.0,0.0,0.0,0.0,0.0,0.0,0.0,0.0,0.0,0.0,0.0,0.0,0.0,0.0,0.0,0.0,0.0,0.0,0.0,0.0,0.0,0.0,0.0,0.0,0.0,0.0,0.0,0.0,0.0,0.0,0.0,0.0,0.0,0.0,0.0,0.0,0.0,0.0,0.0,0.0,0.0,0.0,0.0,0.0,0.0,0.0,0.0,0.0,0.0,0.0,0.0,0.0,0.0,0.0,0.0,0.0,0.0,0.0,0.0,0.0,0.0,0.0,0.0,0.0,0.0,0.0,0.0,0.0,0.0,0.0,0.0,0.0,0.0,0.0,0.0,0.0,0.0,0.0,0.0,0.0,0.0,0.0,0.0,0.0,0.0,0.0,0.0,0.0,0.0,0.0,0.0,0.0,0.0,0.0,0.0,0.0,0.0,0.0,0.0,0.0,0.0,0.0,0.0,0.0,0.0,0.0,0.0,0.0,0.0,0.0,0.0,0.0,0.0,0.0,0.0,0.0,0.0,0.0,0.0,0.0,0.0,0.0,0.0,0.0,0.0,0.0,0.0,0.0,0.0,0.0,0.0,0.0,0.0,0.0,0.0,0.0,0.0,0.0,0.0,0.0,0.0,0.0,0.0,0.0,0.0,0.0,0.0,0.0,0.0,0.0,0.0,0.0,0.0,0.0,0.0,0.0,0.0,0.0,0.0,0.0,0.0,0.0,0.0,0.0,0.0,0.0,0.0,0.0,0.0,0.0,0.0,0.0,0.0,0.0,0.0,0.0,0.0,0.0,0.0,0.0,0.0,0.0,0.0,0.0,0.0,0.0,0.0,0.0,0.0,0.0,0.0,0.0,0.0,0.0,0.0,0.0,0.0,0.0,0.0,0.0,0.0,0.0,0.0,0.0,0.0,0.0,0.0,0.0,0.0,0.0,0.0,0.0,0.0,0.0,0.0,0.0,0.0,0.0,0.0,0.0,0.0,0.0,0.0,0.0,0.0,0.0,0.0,0.0,0.0,0.0,0.0,0.0,0.0,0.0,0.0,0.0,0.0,0.0,0.0,0.0,0.0,0.0,0.0,0.0,0.0,0.0,0.0,0.0,0.0,0.0,0.0,0.0,0.0,0.0,0.0,0.0,0.0,0.0,0.0,0.0,0.0,0.0,0.0,0.0,0.0,0.0,0.0,0.0,0.0,0.0,0.0,0.0,0.0,0.0,0.0,0.0,0.0,0.0,0.0,0.0,0.0,0.0,0.0,0.0,0.0,0.0,0.0,0.0,0.0,0.0,0.0,0.0,0.0,0.0,0.0,0.0,0.0,0.0,0.0,0.0,0.0,0.0,0.0,0.0,0.0,0.0,0.0,0.0,0.0,0.0,0.0,0.0,0.0,0.0,0.0,0.0,0.0,0.0,0.0,0.0,0.0,0.0,0.0,0.0,0.0,0.0,0.0,0.0,0.0,0.0,0.0,0.0,0.0,0.0,0.0,0.0,0.0,0.0,0.0,0.0,0.0,0.0,0.0,0.0,0.0,0.0,0.0,0.0,0.0,0.0,0.0,0.0,0.0,0.0,0.0,0.0,0.0,0.0,0.0,0.0,0.0,0.0,0.0,0.0,0.0,0.0,0.0,0.0,0.0,0.0,0.0,0.0,0.0,0.0,0.0,0.0,0.0,0.0,0.0,0.0,0.0,0.0,0.0,0.0,0.0,0.0,0.0,0.0,0.0,0.0,0.0,0.0,0.0,0.0,0.0,0.0,0.0,0.0,0.0,0.0,0.0,0.0,0.0,0.0,0.0,0.0,0.0,0.0,0.0,0.0,0.0,0.0,0.0,0.0,0.0,0.0,0.0,0.0,0.0,0.0,0.0,0.0,0.0,0.0,0.0,0.0,0.0,0.0,0.0,0.0,0.0,0.0,0.0,0.0,0.0,0.0,0.0,0.0,0.0,0.0,0.0,0.0,0.0,0.0,0.0,0.0,0.0,0.0,0.0,0.0,0.0,0.0,0.0,0.0,0.0,0.0,0.0,0.0,0.0,0.0,0.0,0.0,0.0,0.0,0.0,0.0,0.0,0.0,0.0,0.0,0.0,0.0,0.0,0.0,0.0,0.0,0.0,0.0,0.0,0.0,0.0,0.0,0.0,0.0,0.0,0.0,0.0,0.0,0.0,0.0,0.0,0.0,0.0,0.0,0.0,0.0,0.0,0.0,0.0,0.0,0.0,0.0,0.0,0.0,0.0,0.0,0.0,0.0,0.0,0.0,0.0,0.0,0.0,0.0,0.0,0.0,0.0,0.0,0.0,0.0,0.0,-3.4277,0.0,0.0,0.0,0.0,0.0,0.0,0.0,0.0,0.0,0.0,0.0,0.0,0.0,0.0,0.0,0.0,0.0,0.0,0.0,0.0,0.0,0.0,0.0,0.0,0.0,0.0,0.0,0.0,0.0,0.0,0.0,0.0,0.0,0.0,0.0,0.0,0.0,0.0,0.0,0.0,0.0,0.0,0.0,0.0,0.0,0.0,0.0,0.0,0.0,0.0,0.0,0.0,0.0,0.0,0.0,0.0,0.0,0.0,0.0,0.0,0.0,0.0,0.0,0.0,0.0,0.0,0.0,0.0,0.0,0.0,0.0,0.0,0.0,0.0,0.0,0.0,0.0,0.0,0.0,0.0,0.0,0.0,0.0,0.0,0.0,0.0,0.0,0.0,0.0,0.0,0.0,0.0,0.0,0.0,0.0,0.0,0.0,0.0,0.0,0.0,0.0,0.0,0.0,0.0,0.0,0.0,0.0,0.0,0.0,0.0,-3.6674,-3.6609,-3.6541,-3.6068,-3.5117,0.0,0.0,0.0,0.0,0.0,0.0,0.0,0.0,0.0,0.0,0.0,0.0,0.0,0.0,0.0,0.0,0.0,0.0,0.0,0.0,0.0,0.0,0.0,0.0,0.0,0.0,0.0,0.0,0.0,0.0,0.0,0.0,0.0,0.0,0.0,0.0,0.0,0.0,0.0,0.0,0.0,0.0,0.0,0.0,0.0,0.0,0.0,0.0,0.0,0.0,0.0,0.0,0.0,0.0,0.0,0.0,0.0,0.0,0.0,0.0,0.0,0.0,0.0,0.0,0.0,0.0,0.0,0.0,0.0,0.0,0.0,0.0,0.0,0.0,0.0,0.0,0.0,0.0,0.0,0.0,0.0,0.0,0.0,0.0,0.0,0.0,0.0,0.0,0.0,0.0,0.0,0.0,0.0,0.0,0.0,0.0,0.0,0.0,0.0,0.0,0.0,0.0,0.0,0.0,0.0,0.0,0.0,0.0,0.0,0.0,0.0,0.0,-3.743,-3.6759,-3.5389,0.0,0.0,0.0,0.0,0.0,0.0,0.0,0.0,0.0,0.0,0.0,0.0,0.0,0.0,0.0,0.0,0.0,0.0,0.0,0.0,0.0,0.0,0.0,0.0,0.0,0.0,0.0,0.0,0.0,0.0,0.0,0.0,0.0,0.0,0.0,0.0,0.0,0.0,0.0,0.0,0.0,0.0,0.0,0.0,0.0,0.0,0.0,0.0,0.0,0.0,0.0,0.0,0.0,0.0,0.0,0.0,0.0,0.0,0.0,0.0,0.0,0.0,0.0,0.0,0.0,0.0,0.0,0.0,0.0,0.0,0.0,0.0,0.0,0.0,0.0,0.0,0.0,0.0,0.0,0.0,0.0,0.0,0.0,0.0,0.0,0.0,0.0,0.0,0.0,0.0,0.0,0.0,0.0,0.0,0.0,0.0,0.0,0.0,0.0,0.0,0.0,0.0,0.0,0.0,0.0,0.0,0.0,0.0,0.0,0.0,-3.7648,-3.8368,-3.8303,0.0,-3.4582,0.0,0.0,0.0,0.0,0.0,0.0,0.0,0.0,0.0,0.0,0.0,0.0,0.0,0.0,0.0,0.0,0.0,0.0,0.0,0.0,0.0,0.0,0.0,0.0,0.0,0.0,0.0,0.0,0.0,0.0,0.0,0.0,0.0,0.0,0.0,0.0,0.0,0.0,0.0,0.0,0.0,0.0,0.0,0.0,0.0,0.0,0.0,0.0,0.0,0.0,0.0,0.0,0.0,0.0,0.0,0.0,0.0,0.0,0.0,0.0,0.0,0.0,0.0,0.0,0.0,0.0,0.0,0.0,0.0,0.0,0.0,0.0,0.0,0.0,0.0,0.0,0.0,0.0,0.0,0.0,0.0,0.0,0.0,0.0,0.0,0.0,0.0,0.0,0.0,0.0,0.0,0.0,0.0,0.0,0.0,0.0,0.0,0.0,0.0,0.0,0.0,0.0,0.0,0.0,0.0,0.0,0.0,0.0,0.0,0.0,-3.8453,-3.9249,-3.8669,-3.7059,0.0,0.0,0.0,0.0,0.0,0.0,0.0,0.0,0.0,0.0,0.0,0.0,0.0,0.0,0.0,0.0,0.0,0.0,0.0,0.0,0.0,0.0,0.0,0.0,0.0,0.0,0.0,0.0,0.0,0.0,0.0,0.0,0.0,0.0,0.0,0.0,0.0,0.0,0.0,0.0,0.0,0.0,0.0,0.0,0.0,0.0,0.0,0.0,0.0,0.0,0.0,0.0,0.0,0.0,0.0,0.0,0.0,0.0,0.0,0.0,0.0,0.0,0.0,0.0,0.0,0.0,0.0,0.0,0.0,0.0,0.0,0.0,0.0,0.0,0.0,0.0,0.0,0.0,0.0,0.0,0.0,0.0,0.0,0.0,0.0,0.0,0.0,0.0,0.0,0.0,0.0,0.0,0.0,0.0,0.0,0.0,0.0,0.0,0.0,0.0,0.0,0.0,0.0,0.0,0.0,0.0,0.0,0.0,0.0,0.0,-3.8275,-3.9103,-4.0036,-3.8958,-3.7171,-3.4781,0.0,0.0,0.0,0.0,0.0,0.0,0.0,0.0,0.0,0.0,0.0,0.0,0.0,0.0,0.0,0.0,0.0,0.0,0.0,0.0,0.0,0.0,0.0,0.0,0.0,0.0,0.0,0.0,0.0,0.0,0.0,0.0,0.0,0.0,0.0,0.0,0.0,0.0,0.0,0.0,0.0,0.0,0.0,0.0,0.0,0.0,0.0,0.0,0.0,0.0,0.0,0.0,0.0,0.0,0.0,0.0,0.0,0.0,0.0,0.0,0.0,0.0,0.0,0.0,0.0,0.0,0.0,0.0,0.0,0.0,0.0,0.0,0.0,0.0,0.0,0.0,0.0,0.0,0.0,0.0,0.0,0.0,0.0,0.0,0.0,0.0,0.0,0.0,0.0,0.0,0.0,0.0,0.0,0.0,0.0,0.0,0.0,0.0,0.0,0.0,0.0,0.0,0.0,0.0,0.0,0.0,0.0,0.0,0.0,-3.8591,-3.9402,-4.092,-3.9312,-3.7532,0.0,0.0,0.0,0.0,0.0,0.0,0.0,0.0,0.0,0.0,0.0,0.0,0.0,0.0,0.0,0.0,0.0,0.0,0.0,0.0,0.0,0.0,0.0,0.0,0.0,0.0,0.0,0.0,0.0,0.0,0.0,0.0,0.0,0.0,0.0,0.0,0.0,0.0,0.0,0.0,0.0,0.0,0.0,0.0,0.0,0.0,0.0,0.0,0.0,0.0,0.0,0.0,0.0,0.0,0.0,0.0,0.0,0.0,0.0,0.0,0.0,0.0,0.0,0.0,0.0,0.0,0.0,0.0,0.0,0.0,0.0,0.0,0.0,0.0,0.0,0.0,0.0,0.0,0.0,0.0,0.0,0.0,0.0,0.0,0.0,0.0,0.0,0.0,0.0,0.0,0.0,0.0,0.0,0.0,0.0,0.0,0.0,0.0,0.0,0.0,0.0,0.0,0.0,0.0,0.0,0.0,0.0,0.0,0.0,-3.8554,-3.9646,-4.0493,-4.1018,-3.9341,-3.7572,0.0,0.0,0.0,0.0,0.0,0.0,0.0,0.0,0.0,0.0,0.0,0.0,0.0,0.0,0.0,0.0,0.0,0.0,0.0,0.0,0.0,0.0,0.0,0.0,0.0,0.0,0.0,0.0,0.0,0.0,0.0,0.0,0.0,0.0,0.0,0.0,0.0,0.0,0.0,0.0,0.0,0.0,0.0,0.0,0.0,0.0,0.0,0.0,0.0,0.0,0.0,0.0,0.0,0.0,0.0,0.0,0.0,0.0,0.0,0.0,0.0,0.0,0.0,0.0,0.0,0.0,0.0,0.0,0.0,0.0,0.0,0.0,0.0,0.0,0.0,0.0,0.0,0.0,0.0,0.0,0.0,0.0,0.0,0.0,0.0,0.0,0.0,0.0,0.0,0.0,0.0,0.0,0.0,0.0,0.0,0.0,0.0,0.0,0.0,0.0,0.0,0.0,0.0,0.0,0.0,0.0,0.0,0.0,0.0,-3.8555,0.0,-4.1098,0.0,-3.9357,-3.7545,0.0,0.0,0.0,0.0,0.0,0.0,0.0,0.0,0.0,0.0,0.0,0.0,0.0,0.0,0.0,0.0,0.0,0.0,0.0,0.0,0.0,0.0,0.0,0.0,0.0,0.0,0.0,0.0,0.0,0.0,0.0,0.0,0.0,0.0,0.0,0.0,0.0,0.0,0.0,0.0,0.0,0.0,0.0,0.0,0.0,0.0,0.0,0.0,0.0,0.0,0.0,0.0,0.0,0.0,0.0,0.0,0.0,0.0,0.0,0.0,0.0,0.0,0.0,0.0,0.0,0.0,0.0,0.0,0.0,0.0,0.0,0.0,0.0,0.0,0.0,0.0,0.0,0.0,0.0,0.0,0.0,0.0,0.0,0.0,0.0,0.0,0.0,0.0,0.0,0.0,0.0,0.0,0.0,0.0,0.0,0.0,0.0,0.0,0.0,0.0,0.0,0.0,0.0,0.0,0.0,0.0,0.0,0.0,-3.6914,-3.8633,-4.027,-4.1161,-4.1088,-3.9408,-3.7572,0.0,0.0,0.0,0.0,0.0,0.0,0.0,0.0,0.0,0.0,0.0,0.0,0.0,0.0,0.0,0.0,0.0,0.0,0.0,0.0,0.0,0.0,0.0,0.0,0.0,0.0,0.0,0.0,0.0,0.0,0.0,0.0,0.0,0.0,0.0,0.0,0.0,0.0,0.0,0.0,0.0,0.0,0.0,0.0,0.0,0.0,0.0,0.0,0.0,0.0,0.0,0.0,0.0,0.0,0.0,0.0,0.0,0.0,0.0,0.0,0.0,0.0,0.0,0.0,0.0,0.0,0.0,0.0,0.0,0.0,0.0,0.0,0.0,0.0,0.0,0.0,0.0,0.0,0.0,0.0,0.0,0.0,0.0,0.0,0.0,0.0,0.0,0.0,0.0,0.0,0.0,0.0,0.0,0.0,0.0,0.0,0.0,0.0,0.0,0.0,0.0,0.0,0.0,0.0,0.0,0.0,0.0,0.0,0.0,-4.0312,-4.1422,-4.1996,-4.1948,-4.0234,-3.8148,0.0,0.0,0.0,0.0,0.0,0.0,0.0,0.0,0.0,0.0,0.0,0.0,0.0,0.0,0.0,0.0,0.0,0.0,0.0,0.0,0.0,0.0,0.0,0.0,0.0,0.0,0.0,0.0,0.0,0.0,0.0,0.0,0.0,0.0,0.0,0.0,0.0,0.0,0.0,0.0,0.0,0.0,0.0,0.0,0.0,0.0,0.0,0.0,0.0,0.0,0.0,0.0,0.0,0.0,0.0,0.0,0.0,0.0,0.0,0.0,0.0,0.0,0.0,0.0,0.0,0.0,0.0,0.0,0.0,0.0,0.0,0.0,0.0,0.0,0.0,0.0,0.0,0.0,0.0,0.0,0.0,0.0,0.0,0.0,0.0,0.0,0.0,0.0,0.0,0.0,0.0,0.0,0.0,0.0,0.0,0.0,0.0,0.0,0.0,0.0,0.0,0.0,0.0,0.0,0.0,0.0,0.0,0.0,0.0,-4.2471,-4.2763,-4.2732,-4.2405,-4.063,-3.8447,-3.5776,0.0,0.0,0.0,0.0,0.0,0.0,0.0,0.0,0.0,0.0,0.0,0.0,0.0,0.0,0.0,0.0,0.0,0.0,0.0,0.0,0.0,0.0,0.0,0.0,0.0,0.0,0.0,0.0,0.0,0.0,0.0,0.0,0.0,0.0,0.0,0.0,0.0,0.0,0.0,0.0,0.0,0.0,0.0,0.0,0.0,0.0,0.0,0.0,0.0,0.0,0.0,0.0,0.0,0.0,0.0,0.0,0.0,0.0,0.0,0.0,0.0,0.0,0.0,0.0,0.0,0.0,0.0,0.0,0.0,0.0,0.0,0.0,0.0,0.0,0.0,0.0,0.0,0.0,0.0,0.0,0.0,0.0,0.0,0.0,0.0,0.0,0.0,0.0,0.0,0.0,0.0,0.0,0.0,0.0,0.0,0.0,0.0,0.0,0.0,0.0,0.0,0.0,0.0,0.0,0.0,0.0,0.0,0.0,-4.4928,-4.4294,-4.3525,-4.2654,-4.0905,-3.8639,0.0,0.0,0.0,0.0,0.0,0.0,0.0,0.0,0.0,0.0,0.0,0.0,0.0,0.0,0.0,0.0,0.0,0.0,0.0,0.0,0.0,0.0,0.0,0.0,0.0,0.0,0.0,0.0,0.0,0.0,0.0,0.0,0.0,0.0,0.0,0.0,0.0,0.0,0.0,0.0,0.0,0.0,0.0,0.0,0.0,0.0,0.0,0.0,0.0,0.0,0.0,0.0,0.0,0.0,0.0,0.0,0.0,0.0,0.0,0.0,0.0,0.0,0.0,0.0,0.0,0.0,0.0,0.0,0.0,0.0,0.0,0.0,0.0,0.0,0.0,0.0,0.0,0.0,0.0,0.0,0.0,0.0,0.0,0.0,0.0,0.0,0.0,0.0,0.0,0.0,0.0,0.0,0.0,0.0,0.0,0.0,0.0,0.0,0.0,0.0,0.0,0.0,0.0,0.0,0.0,0.0,0.0,0.0,0.0,-4.493,-4.5989,-4.6056,-4.5118,-4.3393,-4.0897,0.0,0.0,0.0,0.0,0.0,0.0,0.0,0.0,0.0,0.0,0.0,0.0,0.0,0.0,0.0,0.0,0.0,0.0,0.0,0.0,0.0,0.0,0.0,0.0,0.0,0.0,0.0,0.0,0.0,0.0,0.0,0.0,0.0,0.0,0.0,0.0,0.0,0.0,0.0,0.0,0.0,0.0,0.0,0.0,0.0,0.0,0.0,0.0,0.0,0.0,0.0,0.0,0.0,0.0,0.0,0.0,0.0,0.0,0.0,0.0,0.0,0.0,0.0,0.0,0.0,0.0,0.0,0.0,0.0,0.0,0.0,0.0,0.0,0.0,0.0,0.0,0.0,0.0,0.0,0.0,0.0,0.0,0.0,0.0,0.0,0.0,0.0,0.0,0.0,0.0,0.0,0.0,0.0,0.0,0.0,0.0,0.0,0.0,0.0,0.0,0.0,0.0,0.0,0.0,0.0,0.0,0.0,0.0,-4.3593,-4.6009,-4.732,-4.7716,-4.7106,-4.4699,-4.1751,0.0,0.0,0.0,0.0,0.0,0.0,0.0,0.0,0.0,0.0,0.0,0.0,0.0,0.0,0.0,0.0,0.0,0.0,0.0,0.0,0.0,0.0,0.0,0.0,0.0,0.0,0.0,0.0,0.0,0.0,0.0,0.0,0.0,0.0,0.0,0.0,0.0,0.0,0.0,0.0,0.0,0.0,0.0,0.0,0.0,0.0,0.0,0.0,0.0,0.0,0.0,0.0,0.0,0.0,0.0,0.0,0.0,0.0,0.0,0.0,0.0,0.0,0.0,0.0,0.0,0.0,0.0,0.0,0.0,0.0,0.0,0.0,0.0,0.0,0.0,0.0,0.0,0.0,0.0,0.0,0.0,0.0,0.0,0.0,0.0,0.0,0.0,0.0,0.0,0.0,0.0,0.0,0.0,0.0,0.0,0.0,0.0,0.0,0.0,0.0,0.0,0.0,0.0,0.0,0.0,0.0,0.0,0.0,-4.4108,-4.7273,-4.814,-4.8497,-4.8285,-4.5309,-4.2007,0.0,0.0,0.0,0.0,0.0,0.0,0.0,0.0,0.0,0.0,0.0,0.0,0.0,0.0,0.0,0.0,0.0,0.0,0.0,0.0,0.0,0.0,0.0,0.0,0.0,0.0,0.0,0.0,0.0,0.0,0.0,0.0,0.0,0.0,0.0,0.0,0.0,0.0,0.0,0.0,0.0,0.0,0.0,0.0,0.0,0.0,0.0,0.0,0.0,0.0,0.0,0.0,0.0,0.0,0.0,0.0,0.0,0.0,0.0,0.0,0.0,0.0,0.0,0.0,0.0,0.0,0.0,0.0,0.0,0.0,0.0,0.0,0.0,0.0,0.0,0.0,0.0,0.0,0.0,0.0,0.0,0.0,0.0,0.0,0.0,0.0,0.0,0.0,0.0,0.0,0.0,0.0,0.0,0.0,0.0,0.0,0.0,0.0,0.0,0.0,0.0,0.0,0.0,0.0,0.0,0.0,0.0,0.0,-4.4397,-4.6418,-4.7258,-4.7629,-4.755,-4.6087,-4.3657,0.0,0.0,0.0,0.0,0.0,0.0,0.0,0.0,0.0,0.0,0.0,0.0,0.0,0.0,0.0,0.0,0.0,0.0,0.0,0.0,0.0,0.0,0.0,0.0,0.0,0.0,0.0,0.0,0.0,0.0,0.0,0.0,0.0,0.0,0.0,0.0,0.0,0.0,0.0,0.0,0.0,0.0,0.0,0.0,0.0,0.0,0.0,0.0,-3.3271,0.0,0.0,0.0,0.0,0.0,0.0,0.0,0.0,0.0,0.0,0.0,0.0,0.0,0.0,0.0,0.0,0.0,0.0,0.0,0.0,0.0,0.0,0.0,0.0,0.0,0.0,0.0,0.0,0.0,0.0,0.0,0.0,0.0,0.0,0.0,0.0,0.0,0.0,0.0,0.0,0.0,0.0,0.0,0.0,0.0,0.0,0.0,0.0,0.0,0.0,0.0,0.0,0.0,0.0,0.0,0.0,0.0,0.0,0.0,-4.4711,-4.674,-4.72,-4.7371,-4.7245,-4.5912,-4.3745,0.0,0.0,0.0,0.0,0.0,0.0,0.0,0.0,0.0,0.0,0.0,0.0,0.0,0.0,0.0,0.0,0.0,0.0,0.0,0.0,0.0,0.0,0.0,0.0,0.0,0.0,0.0,0.0,0.0,0.0,0.0,0.0,0.0,0.0,0.0,0.0,0.0,0.0,0.0,0.0,0.0,0.0,0.0,0.0,0.0,0.0,0.0,0.0,0.0,0.0,0.0,0.0,0.0,0.0,0.0,0.0,0.0,0.0,0.0,0.0,0.0,0.0,0.0,0.0,0.0,0.0,0.0,0.0,0.0,0.0,0.0,0.0,0.0,0.0,0.0,0.0,0.0,0.0,0.0,0.0,0.0,0.0,0.0,0.0,0.0,0.0,0.0,0.0,0.0,0.0,0.0,0.0,0.0,0.0,0.0,0.0,0.0,0.0,0.0,0.0,0.0,0.0,0.0,0.0,0.0,0.0,0.0,-4.282,-4.487,-4.7179,-4.7242,-4.7114,-4.6911,-4.5234,-4.3136,-4.0584,0.0,0.0,0.0,0.0,0.0,0.0,0.0,0.0,0.0,0.0,0.0,0.0,0.0,0.0,0.0,0.0,0.0,0.0,0.0,0.0,0.0,0.0,0.0,0.0,0.0,0.0,0.0,0.0,0.0,0.0,0.0,0.0,0.0,0.0,0.0,0.0,0.0,0.0,-3.1756,-3.343,0.0,0.0,0.0,0.0,0.0,0.0,0.0,0.0,-3.5979,0.0,0.0,0.0,0.0,0.0,0.0,0.0,0.0,0.0,0.0,0.0,0.0,0.0,0.0,0.0,0.0,0.0,0.0,0.0,0.0,0.0,0.0,0.0,0.0,0.0,0.0,0.0,0.0,0.0,0.0,0.0,0.0,0.0,0.0,0.0,0.0,0.0,0.0,0.0,0.0,0.0,0.0,0.0,0.0,0.0,0.0,0.0,0.0,0.0,0.0,0.0,0.0,0.0,0.0,0.0,0.0,-4.1061,-4.2799,-4.4618,-4.644,-4.6429,-4.6013,-4.5209,-4.4159,-4.2361,-3.9779,0.0,0.0,0.0,0.0,0.0,0.0,0.0,0.0,0.0,0.0,0.0,0.0,0.0,0.0,0.0,0.0,0.0,0.0,0.0,0.0,0.0,0.0,0.0,0.0,0.0,0.0,0.0,0.0,0.0,0.0,0.0,0.0,0.0,0.0,0.0,0.0,0.0,0.0,0.0,-3.4776,-3.6339,0.0,0.0,0.0,0.0,0.0,0.0,0.0,0.0,-3.6799,0.0,0.0,0.0,0.0,0.0,0.0,0.0,0.0,0.0,0.0,0.0,0.0,0.0,0.0,0.0,0.0,0.0,0.0,0.0,0.0,0.0,0.0,0.0,0.0,0.0,0.0,0.0,0.0,0.0,0.0,0.0,0.0,0.0,0.0,0.0,0.0,0.0,0.0,0.0,0.0,0.0,0.0,0.0,0.0,0.0,0.0,0.0,0.0,0.0,0.0,0.0,0.0,0.0,0.0,0.0,-4.0336,-4.2593,-4.4549,-4.6223,-4.624,-4.5777,-4.4865,-4.352,-4.1526,0.0,0.0,0.0,0.0,0.0,0.0,0.0,0.0,0.0,0.0,0.0,0.0,0.0,0.0,0.0,0.0,0.0,0.0,0.0,0.0,0.0,0.0,0.0,0.0,0.0,0.0,0.0,0.0,0.0,0.0,0.0,0.0,0.0,0.0,0.0,0.0,0.0,0.0,0.0,0.0,-3.5372,-3.6851,-3.7256,0.0,0.0,0.0,0.0,0.0,0.0,-3.8124,-3.7646,0.0,0.0,0.0,0.0,0.0,0.0,0.0,0.0,0.0,0.0,0.0,0.0,0.0,0.0,0.0,0.0,0.0,0.0,0.0,0.0,0.0,0.0,0.0,0.0,0.0,0.0,0.0,0.0,0.0,0.0,0.0,0.0,0.0,0.0,0.0,0.0,0.0,0.0,0.0,0.0,0.0,0.0,0.0,0.0,0.0,0.0,0.0,0.0,0.0,0.0,0.0,0.0,0.0,0.0,0.0,-3.9744,-4.2367,-4.4557,-4.6196,-4.6239,-4.5728,-4.4676,-4.3066,-4.0888,0.0,0.0,0.0,0.0,0.0,0.0,0.0,0.0,0.0,0.0,0.0,0.0,0.0,0.0,0.0,0.0,0.0,0.0,0.0,0.0,0.0,0.0,0.0,0.0,0.0,0.0,0.0,0.0,0.0,0.0,0.0,0.0,0.0,0.0,0.0,0.0,0.0,0.0,0.0,0.0,0.0,-3.7312,-3.8278,-3.8553,0.0,0.0,0.0,0.0,-3.9364,-3.9163,0.0,0.0,0.0,0.0,0.0,0.0,0.0,0.0,0.0,0.0,0.0,0.0,0.0,0.0,0.0,0.0,0.0,0.0,0.0,0.0,0.0,0.0,0.0,0.0,0.0,0.0,0.0,0.0,0.0,0.0,0.0,0.0,0.0,0.0,0.0,0.0,0.0,0.0,0.0,0.0,0.0,0.0,0.0,0.0,0.0,0.0,0.0,0.0,0.0,0.0,0.0,0.0,0.0,0.0,0.0,0.0,-3.9744,-4.2372,-4.4542,-4.6183,-4.6288,-4.5514,-4.3901,-4.2831,-4.0708,0.0,0.0,0.0,0.0,0.0,0.0,0.0,0.0,0.0,0.0,0.0,0.0,0.0,0.0,0.0,0.0,0.0,0.0,0.0,0.0,0.0,0.0,0.0,0.0,0.0,0.0,0.0,0.0,0.0,0.0,0.0,0.0,0.0,0.0,0.0,0.0,0.0,0.0,0.0,0.0,0.0,-3.8401,-3.9906,-4.076,-4.1473,0.0,0.0,-4.1977,-4.1149,-4.087,0.0,0.0,0.0,0.0,0.0,0.0,0.0,0.0,0.0,0.0,0.0,0.0,0.0,0.0,0.0,0.0,0.0,0.0,0.0,0.0,0.0,0.0,0.0,0.0,0.0,0.0,0.0,0.0,0.0,0.0,0.0,0.0,0.0,0.0,0.0,0.0,0.0,0.0,0.0,0.0,0.0,0.0,0.0,0.0,0.0,0.0,0.0,0.0,0.0,0.0,0.0,0.0,0.0,0.0,0.0,-3.5655,-3.9095,-4.2143,-4.4547,-4.6208,-4.6301,-4.5474,-4.3759,-4.2364,-3.9983,0.0,0.0,0.0,0.0,0.0,0.0,0.0,0.0,0.0,0.0,0.0,0.0,0.0,0.0,0.0,0.0,0.0,0.0,0.0,0.0,0.0,0.0,0.0,0.0,0.0,0.0,0.0,0.0,0.0,0.0,0.0,0.0,0.0,0.0,0.0,0.0,0.0,0.0,0.0,0.0,0.0,0.0,-4.0927,-4.1833,0.0,0.0,0.0,-4.2579,-4.2069,0.0,0.0,0.0,0.0,0.0,0.0,0.0,0.0,0.0,0.0,0.0,0.0,0.0,0.0,0.0,0.0,0.0,0.0,0.0,0.0,0.0,0.0,0.0,0.0,0.0,0.0,0.0,0.0,0.0,0.0,0.0,0.0,0.0,0.0,0.0,0.0,0.0,0.0,0.0,0.0,0.0,0.0,0.0,0.0,0.0,0.0,0.0,0.0,0.0,0.0,0.0,0.0,0.0,0.0,0.0,0.0,0.0,-3.8241,-4.1639,-4.4218,-4.5917,-4.617,-4.5484,-4.3734,-4.202,0.0,0.0,0.0,0.0,0.0,0.0,0.0,0.0,0.0,0.0,0.0,0.0,0.0,0.0,0.0,0.0,0.0,0.0,0.0,0.0,0.0,0.0,0.0,0.0,0.0,0.0,0.0,-2.5308,0.0,0.0,0.0,0.0,0.0,0.0,0.0,0.0,0.0,0.0,0.0,0.0,0.0,0.0,-3.9973,-4.1777,-4.2722,-4.3291,0.0,0.0,-4.3247,-4.2856,-4.1933,-4.0572,0.0,0.0,0.0,0.0,0.0,0.0,0.0,0.0,0.0,0.0,0.0,0.0,0.0,0.0,0.0,0.0,0.0,0.0,0.0,0.0,0.0,0.0,0.0,0.0,0.0,0.0,0.0,0.0,0.0,0.0,0.0,0.0,0.0,0.0,0.0,0.0,0.0,0.0,0.0,0.0,0.0,0.0,0.0,0.0,0.0,0.0,0.0,0.0,0.0,0.0,0.0,0.0,0.0,0.0,0.0,-3.7362,-4.0761,-4.334,-4.5039,-4.5878,-4.5466,-4.3728,-4.1998,-3.9463,0.0,0.0,0.0,0.0,0.0,0.0,0.0,0.0,0.0,0.0,0.0,0.0,0.0,0.0,0.0,0.0,0.0,0.0,0.0,0.0,0.0,0.0,0.0,0.0,0.0,0.0,0.0,0.0,0.0,0.0,0.0,0.0,0.0,0.0,0.0,0.0,0.0,0.0,0.0,0.0,0.0,-4.0165,-4.2576,-4.367,-4.444,0.0,0.0,-4.4728,-4.376,-4.2674,-4.1258,-3.9332,0.0,0.0,0.0,0.0,0.0,0.0,0.0,0.0,0.0,0.0,0.0,0.0,0.0,0.0,0.0,0.0,0.0,0.0,0.0,0.0,0.0,0.0,0.0,0.0,0.0,0.0,0.0,0.0,0.0,0.0,0.0,0.0,0.0,0.0,0.0,0.0,0.0,0.0,0.0,0.0,0.0,0.0,0.0,0.0,0.0,0.0,0.0,0.0,0.0,0.0,0.0,0.0,0.0,-3.3887,-3.7265,-4.0664,-4.3242,-4.4922,-4.5332,-4.4921,-4.3729,-4.1497,-3.8931,0.0,0.0,0.0,0.0,0.0,0.0,0.0,0.0,0.0,0.0,0.0,0.0,0.0,0.0,0.0,0.0,0.0,0.0,0.0,0.0,0.0,0.0,0.0,0.0,0.0,0.0,0.0,0.0,-2.5308,-2.5308,-2.5308,0.0,0.0,0.0,0.0,0.0,0.0,0.0,0.0,0.0,0.0,-4.1385,-4.2868,-4.4187,0.0,0.0,-4.5329,-4.5066,-4.4526,-4.3095,-4.1573,-4.0183,-3.8438,0.0,0.0,0.0,0.0,0.0,0.0,0.0,0.0,0.0,0.0,0.0,0.0,0.0,0.0,0.0,0.0,0.0,0.0,0.0,0.0,0.0,0.0,0.0,0.0,0.0,0.0,0.0,0.0,0.0,0.0,0.0,0.0,0.0,0.0,0.0,0.0,0.0,0.0,0.0,0.0,0.0,0.0,0.0,0.0,0.0,0.0,0.0,0.0,0.0,0.0,0.0,0.0,-3.375,-3.6894,-4.0039,-4.25,-4.4199,-4.4473,-4.4199,-4.33,-4.1053,-3.8626,0.0,0.0,0.0,0.0,0.0,0.0,0.0,0.0,0.0,0.0,0.0,0.0,0.0,0.0,0.0,0.0,0.0,0.0,0.0,0.0,0.0,0.0,0.0,0.0,0.0,0.0,0.0,0.0,-2.5308,-2.5404,-2.5654,0.0,0.0,0.0,0.0,0.0,0.0,0.0,0.0,0.0,0.0,-4.2192,-4.3316,-4.4628,-4.5476,-4.541,-4.532,-4.5192,-4.4955,-4.3567,-4.2132,-4.1054,0.0,0.0,0.0,0.0,0.0,0.0,0.0,0.0,0.0,0.0,0.0,0.0,0.0,0.0,0.0,0.0,0.0,0.0,0.0,0.0,0.0,0.0,0.0,0.0,0.0,0.0,0.0,0.0,0.0,0.0,0.0,0.0,0.0,0.0,0.0,0.0,0.0,0.0,0.0,0.0,0.0,0.0,0.0,0.0,0.0,0.0,0.0,0.0,0.0,0.0,0.0,0.0,0.0,-3.3476,-3.6016,-3.8672,-4.0801,-4.2441,-4.3281,-4.3301,-4.2461,-4.0781,-3.865,-3.5992,0.0,0.0,0.0,0.0,0.0,0.0,0.0,0.0,0.0,0.0,0.0,0.0,0.0,0.0,0.0,0.0,0.0,0.0,0.0,0.0,0.0,0.0,0.0,0.0,0.0,0.0,-2.5308,-2.5308,-2.5654,0.0,0.0,0.0,0.0,0.0,0.0,0.0,0.0,0.0,0.0,-4.12,-4.2431,-4.4047,-4.4974,-4.5485,-4.541,-4.529,-4.5159,-4.5014,-4.4065,-4.301,0.0,0.0,0.0,0.0,0.0,0.0,0.0,0.0,0.0,0.0,0.0,0.0,0.0,0.0,0.0,0.0,0.0,0.0,0.0,0.0,0.0,0.0,0.0,0.0,0.0,0.0,0.0,0.0,-3.1882,0.0,0.0,0.0,0.0,0.0,0.0,0.0,0.0,0.0,0.0,0.0,-3.5957,-3.5723,0.0,0.0,0.0,0.0,0.0,0.0,0.0,0.0,0.0,0.0,0.0,0.0,-3.3457,-3.5976,-3.8574,-4.0703,-4.2344,-4.2676,-4.2695,-4.2383,-4.0215,-3.7265,-3.3532,0.0,0.0,0.0,0.0,0.0,0.0,0.0,0.0,0.0,0.0,0.0,0.0,0.0,0.0,0.0,0.0,0.0,0.0,0.0,0.0,0.0,0.0,0.0,0.0,0.0,-2.5308,0.0,0.0,0.0,0.0,0.0,0.0,0.0,0.0,0.0,0.0,0.0,-3.8642,-4.0285,-4.22,-4.3682,-4.422,-4.5019,-4.5522,0.0,0.0,0.0,0.0,0.0,0.0,0.0,0.0,0.0,0.0,0.0,0.0,0.0,0.0,-3.5734,-3.4105,-3.3366,-3.2999,-3.2994,0.0,0.0,0.0,0.0,0.0,0.0,0.0,0.0,0.0,0.0,0.0,0.0,0.0,0.0,0.0,0.0,-3.2391,0.0,0.0,0.0,0.0,0.0,0.0,0.0,0.0,-3.7539,-3.8359,-3.8652,-3.8652,-3.8496,0.0,-3.6738,-3.459,0.0,0.0,0.0,0.0,0.0,0.0,0.0,0.0,-3.418,-3.6426,-3.8437,-4.0273,-4.1894,-4.1992,-4.1836,-4.1504,-3.9043,-3.6211,-3.3103,-3.1614,-3.0064,0.0,0.0,0.0,0.0,0.0,0.0,0.0,0.0,0.0,0.0,0.0,0.0,0.0,0.0,0.0,0.0,0.0,0.0,0.0,0.0,0.0,0.0,0.0,-2.5746,0.0,0.0,0.0,0.0,0.0,0.0,0.0,0.0,0.0,-3.6327,-3.8315,-4.0246,-4.1651,-4.3258,-4.4393,-4.472,0.0,0.0,0.0,0.0,0.0,0.0,0.0,-4.3844,-4.3439,-4.2642,-4.1935,-4.1477,-4.0812,-4.0354,-4.032,0.0,0.0,-3.6692,-3.5642,-3.5073,-3.5105,-3.5105,-3.5105,-3.5087,-3.5734,-3.6197,0.0,0.0,0.0,0.0,0.0,0.0,0.0,0.0,-3.7961,-3.7696,0.0,-3.5768,0.0,0.0,0.0,0.0,0.0,0.0,0.0,0.0,-3.9607,-4.0448,-4.123,-4.125,-4.082,-3.9941,-3.9082,-3.7754,-3.5957,-3.2734,0.0,0.0,0.0,0.0,0.0,0.0,-3.5586,-3.7246,-3.8203,-3.9473,-4.1152,-4.1172,-4.0723,-3.9805,-3.7402,-3.5644,-3.4667,-3.2323,-3.0936,-3.0754,-2.759,0.0,0.0,0.0,0.0,0.0,0.0,0.0,0.0,0.0,0.0,0.0,0.0,0.0,0.0,0.0,0.0,0.0,0.0,0.0,0.0,-2.6193,0.0,0.0,0.0,0.0,0.0,0.0,0.0,0.0,0.0,0.0,-3.8065,-3.9585,-4.1497,-4.3932,0.0,0.0,0.0,0.0,-4.5504,-4.5504,-4.54,-4.5317,-4.5288,-4.5072,-4.4605,-4.3693,0.0,0.0,-4.1486,-4.1296,-4.1282,-4.1203,-4.1187,-4.0689,-3.9148,-3.819,-3.7621,-3.7603,-3.7621,-3.7621,-3.7658,-3.8175,-3.8505,-4.2383,0.0,0.0,0.0,0.0,-4.045,-4.0961,-4.1377,-4.0843,-4.0723,-4.0781,-3.8267,0.0,0.0,0.0,0.0,0.0,0.0,-3.9323,-4.0451,-4.192,-4.2747,-4.2987,-4.2968,-4.2519,-4.166,-4.0859,-3.9863,-3.8711,-3.6543,-3.4414,-3.2363,0.0,0.0,0.0,0.0,-3.6191,-3.7324,-3.8769,-4.0078,-4.1191,-4.0605,-3.9551,-3.8086,-3.7324,-3.623,-3.4746,-3.3398,-3.2127,-3.0916,-2.8766,0.0,0.0,0.0,0.0,0.0,0.0,0.0,0.0,0.0,0.0,0.0,0.0,0.0,0.0,0.0,0.0,0.0,0.0,0.0,-2.7202,-2.7459,-2.7822,0.0,0.0,0.0,0.0,0.0,0.0,0.0,0.0,0.0,-4.0604,-4.1681,-4.2835,0.0,0.0,-4.5325,-4.5556,-4.5596,-4.5559,-4.5504,0.0,0.0,0.0,-4.5192,-4.4962,-4.4567,-4.4137,-4.3711,-4.3214,-4.3017,-4.2901,-4.2817,-4.2818,-4.2635,-4.2194,-4.1001,-4.012,-4.0065,-4.0065,-4.0065,-4.0102,-4.0251,-4.0359,-4.4397,-4.3421,-4.2313,-4.1851,-4.1909,-4.2329,-4.2724,-4.3021,-4.264,-4.2651,-4.2806,-4.0649,-3.9687,-3.9666,-3.8355,0.0,0.0,0.0,-4.1426,-4.2629,-4.3675,-4.4375,-4.4701,-4.4388,-4.3766,-4.289,-4.209,-4.1054,-3.9883,-3.8848,-3.7344,-3.5488,0.0,0.0,-3.498,-3.6328,-3.7461,-3.832,-3.9355,-4.0176,-4.0664,-3.9492,-3.8359,-3.7344,-3.6973,-3.6113,-3.4746,-3.3867,-3.2792,-3.1445,-2.9433,-2.7674,0.0,0.0,0.0,0.0,0.0,0.0,0.0,0.0,0.0,0.0,0.0,-2.4227,-2.4718,0.0,0.0,0.0,-2.7283,-2.7981,-2.8504,-2.9145,0.0,0.0,0.0,0.0,0.0,0.0,0.0,-3.8065,-3.9873,-4.147,-4.2643,-4.3239,-4.3893,-4.472,-4.5267,-4.5594,-4.5594,0.0,-4.5605,-4.5559,-4.5513,-4.5467,-4.539,-4.5298,-4.5129,-4.4877,-4.4527,-4.4185,-4.3926,-4.3767,-4.3652,-4.3513,-4.3479,-4.3479,-4.3479,-4.269,-4.1919,-4.1644,-4.1572,-4.157,-4.1554,-4.1811,-4.1974,-4.5693,-4.5566,-4.4085,-4.349,-4.349,-4.3424,-4.3854,-4.453,-4.3751,-4.3786,-4.4353,-4.2802,-4.2063,-4.1954,-4.1293,0.0,0.0,-4.2315,-4.3269,-4.4884,-4.4961,-4.546,-4.6231,-4.5392,-4.4539,-4.367,-4.281,-4.1581,-4.0058,-4.0,-3.959,-3.8808,-3.8008,-3.7539,-3.7461,-3.8262,-3.9101,-3.9883,-3.998,-3.9941,-3.9766,-3.8184,-3.7266,-3.7187,-3.6348,-3.5527,-3.4726,-3.3789,-3.2969,-3.2168,-2.9707,-2.7949,-2.7109,0.0,0.0,0.0,0.0,0.0,0.0,0.0,0.0,0.0,0.0,0.0,0.0,0.0,0.0,0.0,-2.9065,0.0,-2.9783,-3.1196,0.0,0.0,0.0,-3.5168,-3.6822,-3.7777,-3.8931,-4.0516,0.0,0.0,0.0,0.0,-4.4701,-4.5498,-4.5594,-4.5594,-4.5594,-4.5594,-4.5594,-4.5594,-4.554,-4.5504,-4.5485,-4.5361,-4.5181,-4.484,-4.4565,-4.431,-4.4008,-4.3851,-4.3719,-4.3531,-4.3515,-4.3479,-4.3479,-4.3423,-4.3259,-4.2506,-4.2396,-4.2378,-4.2415,-4.291,-4.3129,-4.5631,-4.5593,-4.5214,-4.5089,-4.5125,-4.5105,-4.5224,-4.5379,-4.5156,-4.5139,-4.5255,-4.4248,-4.347,-4.2891,-4.2709,-4.2743,-4.2963,-4.3715,-4.4291,-4.4778,-4.5484,-4.5953,-4.6162,-4.5323,-4.4501,-4.3679,-4.2801,-4.1868,-4.0856,-4.0818,-4.0702,-4.0507,-4.0351,-3.9609,-3.8379,-3.9141,-3.9707,-3.9883,-4.0547,-4.0234,-3.8926,-3.7851,-3.6973,-3.6309,-3.5469,-3.4922,-3.4687,-3.3281,-3.2402,-3.2148,-2.9707,-2.8203,-2.7969,-2.5723,0.0,0.0,0.0,0.0,0.0,0.0,0.0,0.0,0.0,-2.6222,-2.748,0.0,-2.8452,0.0,-3.0519,-3.1912,-3.3163,-3.3646,0.0,0.0,-3.6716,-3.7834,-3.9495,-4.0389,-4.1296,-4.2354,-4.3201,-4.3855,-4.4259,-4.4874,-4.5383,-4.5575,-4.5594,-4.5594,-4.5594,-4.5594,-4.5594,-4.5594,-4.5586,-4.5559,-4.5495,-4.539,-4.5224,-4.5045,-4.4745,-4.4449,-4.4185,-4.3945,-4.3754,-4.3599,-4.3531,-4.3496,-4.3515,-4.3479,-4.3442,-4.324,-4.3221,-4.3204,-4.3222,-4.3368,-4.3276,-4.5594,-4.5594,-4.5594,-4.562,-4.5651,-4.5657,-4.5648,-4.5648,-4.5622,-4.5594,-4.5556,-4.5131,-4.4686,-4.4275,-4.4295,-4.4318,-4.4365,-4.4884,-4.5176,-4.5262,-4.5758,-4.5846,-4.5549,-4.4699,-4.3866,-4.306,-4.2231,-4.1576,-4.1136,-4.1104,-4.1107,-4.1108,-4.113,-4.0682,-3.9764,-4.0215,-4.0488,-4.0488,-4.0176,-3.9375,-3.8066,-3.7168,-3.6484,-3.6016,-3.5156,-3.4512,-3.4121,-3.2871,-3.2012,-3.1601,-2.9863,-2.8711,-2.8301,-2.6934,-2.5781,0.0,0.0,0.0,0.0,0.0,0.0,0.0,0.0,0.0,0.0,0.0,-3.0458,0.0,-3.2996,0.0,-3.5584,-3.6363,-3.7301,-3.8521,-3.9348,-4.0337,-4.1597,-4.2436,-4.3104,-4.3585,-4.4355,-4.4874,-4.4893,-4.5297,-4.5594,-4.5594,-4.5594,-4.5594,-4.5594,-4.5594,-4.5594,-4.5594,-4.5594,-4.5577,-4.5513,-4.5409,-4.5297,-4.5106,-4.4833,-4.4546,-4.4254,-4.4036,-4.3851,-4.3701,-4.3617,-4.3548,-4.3531,-4.3496,-4.3479,-4.3479,-4.3479,-4.3479,-4.3479,-4.3222,-4.28,-4.5594,-4.5594,-4.5594,-4.5594,-4.5594,-4.5594,-4.5594,-4.5594,-4.5594,-4.5594,-4.5594,-4.5594,-4.5594,-4.5594,-4.5657,-4.5693,-4.5682,-4.5754,-4.581,-4.588,-4.5893,-4.5489,-4.4754,-4.3879,-4.3062,-4.225,-4.146,-4.1072,-4.1085,-4.1085,-4.1094,-4.1115,-4.1101,-4.1105,-4.1106,-4.1151,-4.1133,-4.1016,-3.9414,-3.8184,-3.7305,-3.6445,-3.6016,-3.5957,-3.5059,-3.418,-3.3418,-3.2519,-3.1699,-3.0918,-3.0078,-2.9238,-2.8516,-2.8359,-2.7637,0.0,-2.6758,0.0,0.0,0.0,0.0,0.0,0.0,0.0,0.0,-3.2063,-3.3269,-3.4878,-3.5832,-3.6696,-3.7615,-3.9004,-4.0209,-4.1061,-4.1854,-4.2599,-4.3239,-4.3992,-4.4459,-4.4479,-4.5133,-4.5594,-4.5575,-4.5594,-4.5594,-4.5594,-4.5594,-4.5594,-4.5594,-4.5594,-4.5594,-4.5594,-4.5594,-4.5577,-4.5513,-4.5458,-4.5339,-4.517,-4.4919,-4.464,-4.4341,-4.4155,-4.3989,-4.3832,-4.3718,-4.3632,-4.3634,-4.3583,-4.3532,-4.3513,-4.3403,-4.3311,-4.3239,-4.28,-4.2268,-4.5594,-4.5594,-4.5594,-4.5594,-4.5594,-4.5594,-4.5594,-4.5594,-4.5594,-4.5594,-4.5594,-4.5594,-4.5594,-4.5594,-4.5622,-4.5622,-4.5631,-4.5701,-4.5711,-4.5739,-4.5803,-4.5402,-4.462,-4.379,-4.2999,-4.2203,-4.1389,-4.1009,-4.101,-4.102,-4.1057,-4.1105,-4.1115,-4.1106,0.0,0.0,0.0,0.0,-3.9121,-3.8184,-3.7305,-3.6465,-3.6016,-3.5957,-3.4453,0.0,-3.3359,-3.1934,-3.1074,-3.0879,-3.0059,0.0,0.0,0.0,0.0,0.0,0.0,0.0,0.0,0.0,0.0,0.0,-3.2012,-3.2734,-3.2965,-3.435,-3.5697,-3.6711,-3.7542,-3.8661,-4.0207,-4.0571,-4.1354,-4.282,-4.3643,-4.4136,-4.4259,-4.4943,-4.5426,-4.5364,-4.5518,-4.5594,-4.5594,-4.5594,-4.5594,-4.5594,-4.5594,-4.5594,-4.5594,-4.5594,-4.5594,-4.5594,-4.5594,-4.5594,-4.5586,-4.5513,-4.5467,-4.5348,-4.5125,-4.487,-4.464,-4.4341,-4.414,-4.3989,-4.3897,-4.3835,-4.3788,-4.3754,-4.3647,-4.3617,-4.3048,-4.2572,-4.2542,-4.2396,-4.1901,-4.599,0.0,-4.5594,-4.5594,0.0,0.0,-4.5594,-4.5594,-4.5594,-4.5594,-4.5594,-4.5594,-4.5594,-4.5594,-4.5594,-4.5594,-4.5594,-4.564,-4.5654,-4.5676,-4.5295,-4.4677,-4.3891,-4.3086,-4.2266,-4.1468,-4.1092,-4.0897,-4.0891,-4.0926,-4.0974,-4.102,-4.1025,-4.1042,-4.103,-4.0643,-4.0061,-3.9276,-3.8827,-3.7968,-3.6718,-3.623,-3.6016,-3.5976,0.0,0.0,0.0,0.0,0.0,0.0,0.0,0.0,0.0,0.0,0.0,-2.9648,-3.0351,-3.082,-3.084,-3.1641,-3.2324,-3.2773,-3.4355,-3.5137,-3.4726,-3.6288,-3.7654,-3.8512,-3.8958,-3.9889,-4.153,-4.211,-4.2828,-4.4,-4.4826,-4.5279,-4.5226,-4.548,-4.5679,-4.5648,-4.5631,-4.5594,-4.5594,-4.5594,-4.5594,-4.5594,-4.5594,-4.5594,-4.5594,-4.5594,-4.5594,-4.5594,-4.5594,-4.5594,-4.5586,-4.555,-4.5495,-4.54,-4.5227,-4.5038,-4.4889,-4.464,-4.4416,-4.4306,-4.4173,-4.4051,-4.3968,-4.3616,-4.3227,-4.3102,-4.2463,-4.1712,-4.1351,-4.1158,-4.091,-4.6394,-4.5614,-4.5594,-4.5594,-4.5594,-4.5594,-4.5594,-4.5594,0.0,0.0,0.0,-4.5594,-4.5594,-4.5594,-4.5594,-4.5594,-4.5594,-4.5594,-4.5631,-4.5635,-4.4779,-4.3956,-4.3158,-4.2365,-4.153,-4.0706,-4.0757,-4.0765,-4.0784,-4.0845,-4.0878,-4.0887,-4.0945,-4.0949,-4.094,-4.0184,-3.9386,-3.8596,-3.845,-3.7614,-3.6072,-3.6015,-3.6015,-3.6015,-3.5156,-3.4355,-3.3652,-3.2851,-3.209,-3.1387,-3.1348,-3.1016,-3.0371,-3.1641,-3.209,-3.1465,-3.2637,-3.3379,-3.3398,-3.3555,-3.4004,-3.4863,-3.6523,-3.7226,-3.6504,-3.791,-3.9199,-4.0057,-4.0115,-4.0795,-4.2462,-4.3248,-4.4083,-4.4949,-4.5622,-4.5972,-4.5918,-4.5812,-4.5723,-4.5706,-4.5637,-4.5622,-4.5594,-4.5594,-4.5594,-4.5594,-4.5594,-4.5594,-4.5594,-4.5594,-4.5594,-4.5594,-4.5594,-4.5594,-4.5586,-4.5568,-4.5495,-4.5429,-4.532,-4.5203,-4.5049,-4.4883,-4.4732,-4.4613,-4.4426,-4.4233,-4.4026,-4.3409,-4.276,-4.2569,-4.1822,-4.0984,-4.0307,-3.9906,-3.9758,-4.6394,-4.5594,-4.5594,-4.5594,-4.5594,-4.5594,-4.5594,-4.5594,-4.5594,-4.5594,-4.5594,-4.5594,-4.5594,-4.5594,-4.5594,-4.5594,-4.5594,-4.5594,-4.5594,0.0,-4.4718,-4.3891,-4.311,-4.2302,-4.145,-4.0668,-4.0687,-4.072,-4.0726,-4.0732,-4.0761,-4.0804,-4.0823,-4.0854,-4.0839,-4.0128,-3.9296,-3.8444,-3.7804,-3.7003,-3.6026,-3.601,-3.6012,-3.5973,-3.5154,-3.4647,-3.4511,-3.3691,-3.3184,-3.3047,-3.3047,-3.2988,-3.2871,-3.3086,-3.3184,-3.3066,-3.3281,-3.3379,-3.3418,-3.4082,-3.4902,-3.5801,-3.7422,-3.8359,-3.8262,-3.9141,-4.0078,-4.0918,-4.0937,-4.1638,-4.3277,-4.3615,-4.43,-4.5706,-4.6024,-4.605,-4.5991,-4.5918,-4.5819,-4.5715,-4.5679,-4.5657,-4.5622,-4.5594,-4.5594,-4.5594,-4.5594,-4.5594,-4.5594,-4.5594,-4.5594,-4.5594,-4.5594,-4.5594,-4.5594,-4.5586,-4.5559,-4.5495,-4.5419,-4.533,-4.5213,-4.5095,-4.496,-4.4789,-4.465,-4.4321,-4.3632,-4.3353,-4.2776,-4.2086,-4.1264,-4.0589,-4.023,-3.967,-3.9146,-4.6714,-4.5589,-4.5531,-4.5568,-4.5594,-4.5594,-4.5594,-4.5594,-4.5594,-4.5594,-4.5594,-4.5594,-4.5594,-4.5594,-4.5594,-4.5594,-4.5594,-4.5594,-4.5594,-4.5498,-4.4239,-4.347,-4.2989,-4.1763,-4.0943,-4.0565,-4.061,-4.0639,-4.0639,-4.0661,-4.0649,-4.0681,-4.0732,-4.0761,-4.0726,-3.9544,-3.8751,-3.8337,-3.7625,-3.6807,-3.5986,-3.5978,-3.6002,-3.5983,-3.5598,-3.517,-3.4721,-3.4313,-3.3885,-3.3416,-3.3378,-3.3379,-3.3398,-3.3828,-3.4101,-3.4141,-3.4551,-3.4805,-3.4805,-3.5176,-3.5566,-3.6016,-3.7598,-3.8613,-3.8613,-3.9844,-4.0762,-4.1152,-4.1172,-4.164,-4.2869,-4.3411,-4.4184,-4.5436,-4.5897,-4.6105,-4.6074,-4.5997,-4.5925,-4.5819,-4.5765,-4.573,-4.5676,-4.5648,-4.564,-4.5603,-4.5594,-4.5575,-4.5537,-4.5163,-4.5075,-4.5498,-4.5594,-4.5594,-4.5575,-4.5594,-4.5586,-4.5559,-4.5504,-4.5448,-4.5361,-4.53,-4.5014,-4.4546,-4.4342,-4.3919,-4.3078,-4.2427,-4.1895,-4.1519,-4.0653,-4.0114,-3.9868,-3.9501,-3.9138,-4.6991,-4.5486,-4.5486,-4.5514,-4.5559,-4.5568,-4.5577,-4.5577,-4.5586,-4.5594,-4.5594,-4.5594,-4.5594,-4.5594,-4.5594,-4.5594,-4.5594,-4.5594,-4.549,-4.5152,-4.3778,-4.3008,-4.2662,-4.1208,-4.0496,-4.0496,-4.0546,-4.0592,-4.058,-4.0591,-4.0593,-4.06,-4.066,-4.0674,-4.0655,-3.9065,-3.826,-3.8194,-3.7331,-3.6543,-3.5912,-3.5951,-3.598,-3.5962,-3.5991,-3.5664,-3.5021,-3.4968,-3.4678,-3.4053,-3.398,-3.3982,-3.4021,-3.4628,-3.5,-3.5058,-3.5625,-3.6016,-3.6016,-3.6016,-3.6094,-3.6309,-3.7715,-3.8672,-3.9004,-4.0293,-4.1191,-4.1191,-4.1191,-4.1543,-4.2343,-4.2967,-4.3764,-4.4591,-4.5242,-4.5509,-4.5537,-4.551,-4.5428,-4.5343,-4.5286,-4.5189,-4.5152,-4.5128,-4.5035,-4.4947,-4.5026,-4.5026,-4.494,-4.4412,-4.4374,-4.4778,-4.5037,-4.496,-4.5028,-4.497,-4.4932,-4.5028,-4.4925,-4.4793,-4.4785,-4.4806,-4.4604,-4.3934,-4.3701,-4.3274,-4.2519,-4.1787,-4.1176,-4.0866,-4.0246,-3.9769,-3.9698,-3.9564,-3.9311,-4.6849,-4.5533,-4.5399,-4.5409,-4.5419,-4.5485,-4.5523,-4.5513,-4.5577,-4.5594,-4.5594,-4.5594,-4.5594,-4.5594,-4.5594,-4.5594,-4.5594,-4.5594,-4.519,-4.4432,-4.3508,-4.2681,-4.1931,-4.095,-4.0496,-4.0496,-4.0516,-4.0504,-4.0523,-4.0504,-4.0527,-4.0588,-4.0615,-4.0617,-4.0428,-3.8962,-3.8105,-3.8085,-3.6618,-3.5836,-3.5827,-3.5869,-3.5922,-3.5916,-3.5909,-3.5882,-3.5734,-3.5804,-3.5791,-3.5759,-3.5708,-3.5732,-3.5733,-3.5814,-3.5876,-3.5858,-3.5956,-3.6015,-3.6016,-3.6016,-3.6328,-3.7148,-3.8047,-3.8926,-3.9687,-4.0644,-4.1191,-4.1191,-4.1191,-4.1543,-4.2285,-4.2499,-4.2928,-4.3687,-4.3987,-4.3929,-4.4026,-4.3861,-4.377,-4.3631,-4.3829,-4.3602,-4.367,-4.3641,-4.3535,-4.362,-4.3651,-4.3654,-4.3591,-4.3382,-4.3228,-4.3335,-4.3355,-4.3393,-4.3451,-4.3355,-4.3547,-4.3489,-4.3393,-4.3483,-4.3545,-4.345,-4.3145,-4.3157,-4.2976,-4.2623,-4.2001,-4.1543,-4.1199,-4.0509,-4.0134,-3.9929,-3.9818,-3.9619,-3.9411,-4.659,-4.5178,-4.5203,-4.5267,-4.535,-4.5409,-4.5448,-4.5438,-4.5467,-4.5504,-4.555,-4.555,-4.5568,-4.5594,-4.5594,-4.5594,-4.5594,-4.5594,-4.5152,-4.4278,-4.347,-4.2643,-4.1777,-4.0912,-4.0496,-4.0496,-4.0496,-4.0496,-4.0496,-4.0496,-4.0504,-4.0531,-4.0539,-4.0546,-4.0407,-3.8875,-3.8047,-3.8009,-3.6458,-3.5657,-3.5684,-3.5752,-3.5807,-3.5829,-3.585,-3.5843,-3.5849,-3.5872,-3.5924,-3.5929,-3.5947,-3.596,-3.5946,-3.5934,-3.5942,-3.6009,-3.6013,-3.6014,-3.6015,-3.6015,-3.6387,-3.7246,-3.8105,-3.8965,-3.9844,-4.0703,-4.1191,-4.1191,-4.1191,-4.1367,-4.1699,-4.2129,-4.2558,-4.2928,-4.3373,-4.3678,-4.3697,-4.3651,-4.363,-4.3525,-4.35,-4.3402,-4.3318,-4.3246,-4.3197,-4.3161,-4.3127,-4.3085,-4.31,-4.2738,-4.2414,-4.231,-4.1955,-4.2093,-4.2758,-4.3085,-4.3066,-4.3066,-4.3085,-4.3069,-4.3002,-4.3032,-4.2928,-4.2373,-4.2232,-4.1888,-4.1095,-4.0935,-4.0708,-4.0194,-3.9689,-3.9414,-3.9346,-3.8897,-3.8471,-4.6282,-4.5015,-4.4979,-4.508,-4.517,-4.5265,-4.5288,-4.5328,-4.533,-4.54,-4.5477,-4.5457,-4.5505,-4.5531,-4.5577,-4.5594,-4.5594,-4.5594,-4.4989,-4.3989,-4.3355,-4.2527,-4.145,-4.0823,-4.0496,-4.0496,-4.0496,-4.0496,-4.0496,-4.0496,-4.0496,-4.0496,-4.0496,-4.0496,-4.0342,-3.8845,-3.7986,-3.7858,-3.6402,-3.5566,-3.557,-3.5623,-3.5679,-3.5736,-3.5739,-3.5736,-3.5779,-3.5834,-3.5852,-3.584,-3.5872,-3.5875,-3.5868,-3.5899,-3.5917,-3.5956,-3.5989,-3.6012,-3.6012,-3.623,-3.6719,-3.7597,-3.8457,-3.9336,-4.0156,-4.084,-4.1172,-4.1191,-4.1191,-4.1211,-4.1269,-4.1738,-4.2051,-4.2108,-4.2655,-4.2983,-4.2953,-4.298,-4.2897,-4.2909,-4.2707,-4.282,-4.2728,-4.2573,-4.2447,-4.2428,-4.2479,-4.2534,-4.2473,-4.1943,-4.1562,-4.1535,-4.0939,-4.1081,-4.2151,-4.2239,-4.2393,-4.2393,-4.2239,-4.222,-4.2393,-4.2374,-4.2316,-4.1445,-4.1399,-4.1275,-4.0825,-4.0543,-4.0241,-4.0002,-3.9508,-3.8899,-3.8723,-3.8104,-3.7792,-4.5965,-4.4726,-4.4745,-4.4808,-4.4833,-4.4955,-4.5068,-4.5114,-4.5181,-4.5267,-4.5379,-4.5408,-4.54,-4.5419,-4.5541,-4.5586,-4.5586,-4.5586,-4.4739,-4.3308,-4.3124,-4.2181,-4.0612,-4.0516,-4.0496,-4.0496,-4.0496,-4.0496,-4.0496,-4.0496,-4.0496,-4.0496,-4.0496,-4.0496,-4.0265,-3.8842,-3.8007,-3.7822,-3.636,-3.5489,-3.549,-3.5502,-3.5558,-3.5607,-3.5618,-3.5653,-3.5698,-3.5704,-3.5708,-3.5706,-3.5776,-3.5806,-3.5807,-3.5866,-3.5894,-3.5908,-3.5955,-3.6005,-3.6104,-3.6715,-3.7538,-3.8437,-3.9238,-4.0176,-4.0879,-4.1113,-4.1191,-4.1191,-4.1191,-4.1191,-4.1191,-4.1308,-4.1367,-4.1348,-4.1288,-4.1365,-4.1325,-4.1493,-4.1249,-4.1326,-4.1442,-4.1467,-4.1249,-4.103,-4.115,-4.1119,-4.0995,-4.1025,-4.1087,-4.09,-4.0841,-4.0795,-4.0682,-4.0638,-4.0677,-4.1016,-4.092,-4.0958,-4.1189,-4.0843,-4.0669,-4.0612,-4.065,-4.0669,-4.0739,-4.0712,-4.0546,-4.0288,-3.9911,-3.9569,-3.9111,-3.8637,-3.8011,-3.7945,-3.7568,-4.5165,-4.4288,-4.4369,-4.4421,-4.4508,-4.4661,-4.477,-4.4865,-4.4907,-4.5038,-4.5181,-4.5203,-4.5237,-4.535,-4.538,-4.5438,-4.5476,-4.5457,-4.4574,-4.3096,-4.3026,-4.214,-4.0622,-4.05,-4.0496,-4.0496,-4.0496,-4.0496,-4.0496,-4.0496,-4.0496,-4.0496,-4.0496,-4.0496,-4.0227,-3.8834,-3.8007,-3.7815,-3.6346,-3.5488,-3.5482,-3.5482,-3.5502,-3.5541,-3.559,-3.5614,-3.5645,-3.5635,-3.5637,-3.5643,-3.5664,-3.5703,-3.5743,-3.5802,-3.5837,-3.5839,-3.5903,-3.5944,-3.6043,-3.6782,-3.7688,-3.8528,-3.9392,-4.0253,-4.0956,-4.1191,-4.1191,-4.1191,-4.1191,-4.1191,-4.1191,-4.1191,-4.1191,-4.1191,-4.1172,-4.1132,-4.1112,-4.1109,-4.1105,-4.1112,-4.1111,-4.1103,-4.1067,-4.1013,-4.0941,-4.0937,-4.0891,-4.0859,-4.0844,-4.0801,-4.0756,-4.0732,-4.0694,-4.0679,-4.0646,-4.0573,-4.0516,-4.0535,-4.0573,-4.0612,-4.0516,-4.0516,-4.0593,-4.0573,-4.0496,-4.0285,-4.0189,-3.9758,-3.9396,-3.8685,-3.8247,-3.7855,-3.7194,-3.6999,-3.6638,-4.4429,-4.4042,-4.4079,-4.4102,-4.4196,-4.4331,-4.4463,-4.4527,-4.4581,-4.4726,-4.4907,-4.4955,-4.5045,-4.5136,-4.5159,-4.5194,-4.526,-4.5292,-4.4451,-4.2948,-4.2889,-4.2044,-4.0679,-4.0471,-4.0476,-4.0492,-4.0489,-4.0496,-4.0496,-4.0496,-4.0496,-4.0496,-4.0496,-4.0496,-4.0227,-3.8815,-3.8007,-3.77,-3.6365,-3.55,-3.55,-3.55,-3.55,-3.5507,-3.5534,-3.5579,-3.5579,-3.5572,-3.5571,-3.5558,-3.5587,-3.5621,-3.5654,-3.572,-3.5764,-3.5772,-3.5833,-3.5866,-3.6026,-3.6992,-3.7947,-3.8556,-3.9658,-4.0562,-4.1052,-4.1132,-4.1152,-4.1172,-4.1191,-4.1191,-4.1191,-4.1191,-4.1191,-4.1191,-4.1191,-4.1172,-4.1132,-4.1132,-4.1111,-4.1104,-4.1111,-4.1097,-4.1109,-4.1052,-4.1034,-4.1016,-4.1009,-4.0953,-4.0925,-4.0902,-4.0859,-4.0824,-4.0773,-4.0745,-4.072,-4.0641,-4.0557,-4.0554,-4.0539,-4.0512,-4.0408,-4.0427,-4.0381,-4.04,-4.0246,-4.0015,-3.9669,-3.9227,-3.8546,-3.7757,-3.7365,-3.7043,-3.6474,-3.5955,-3.5856,-4.3822,-4.3802,-4.3865,-4.3897,-4.3929,-4.4005,-4.4094,-4.4192,-4.4206,-4.4355,-4.4605,-4.4672,-4.4732,-4.4796,-4.4877,-4.4895,-4.4943,-4.5117,-4.4319,-4.2793,-4.2757,-4.1886,-4.0355,-4.0362,-4.0413,-4.0474,-4.0484,-4.0489,-4.0489,-4.0508,-4.0489,-4.0496,-4.0496,-4.0496,-4.0496,-3.8892,-3.8007,-3.7661,-3.6346,-3.55,-3.55,-3.55,-3.55,-3.55,-3.5507,-3.5514,-3.5488,-3.5489,-3.5509,-3.5515,-3.556,-3.559,-3.5612,-3.5669,-3.5708,-3.5703,-3.5757,-3.5801,-3.5966,-3.7342,-3.8233,-3.8694,-4.0037,-4.0905,-4.1048,-4.1109,-4.1111,-4.1112,-4.1152,-4.1191,-4.1191,-4.1191,-4.1191,-4.1191,-4.1191,-4.1191,-4.1191,-4.1191,-4.1172,-4.1131,-4.1108,-4.1104,-4.11,-4.1094,-4.1085,-4.1085,-4.1074,-4.1061,-4.101,-4.0979,-4.0972,-4.0909,-4.0859,-4.0814,-4.079,-4.0732,-4.0674,-4.0605,-4.0583,-4.0549,-4.0277,-4.0173,-3.9915,-3.9857,-3.9438,-3.9169,-3.8469,-3.8046,-3.7642,-3.6988,-3.6654,-3.6346,-3.5981,-3.5615,-3.5577,-4.3583,-4.36,-4.3667,-4.3682,-4.3718,-4.38,-4.3913,-4.3989,-4.3971,-4.4079,-4.4244,-4.4327,-4.4398,-4.4486,-4.4573,-4.4619,-4.4632,-4.4668,-4.3925,-4.2712,-4.2561,-4.1738,-4.0415,-4.0177,-4.0252,-4.037,-4.0413,-4.0455,-4.0479,-4.0507,-4.0503,-4.0489,-4.0496,-4.0496,-4.0412,-3.8873,-3.8007,-3.7796,-3.6346,-3.55,-3.55,-3.55,-3.55,-3.55,-3.55,-3.55,-3.5481,-3.5494,-3.5482,-3.5482,-3.5515,-3.5534,-3.5527,-3.5587,-3.5646,-3.5651,-3.5689,-3.5735,-3.5864,-3.6825,-3.7828,-3.8472,-3.9555,-4.0437,-4.0998,-4.11,-4.1106,-4.111,-4.1132,-4.1152,-4.1191,-4.1191,-4.1191,-4.1191,-4.1191,-4.1191,-4.1191,-4.1191,-4.1191,-4.1172,-4.1131,-4.111,-4.1108,-4.1107,-4.1103,-4.1116,-4.1111,-4.1081,-4.1074,-4.1067,-4.107,-4.1039,-4.0976,-4.0928,-4.0902,-4.0825,-4.071,-4.0513,-4.0398,-4.0298,-4.0058,-3.9663,-3.9444,-3.9044,-3.8645,-3.813,-3.743,-3.6988,-3.6668,-3.6315,-3.5962,-3.5731,-3.5558,-3.55,-3.55,-4.3479,-4.3515,-4.3531,-4.3565,-4.3565,-4.3669,-4.3736,-4.3783,-4.3781,-4.3862,-4.3971,-4.4064,-4.4106,-4.4166,-4.4277,-4.431,-4.4306,-4.431,-4.3507,-4.2322,-4.2288,-4.1461,-4.0135,-4.0059,-4.0139,-4.0225,-4.0289,-4.0362,-4.0432,-4.0432,-4.0438,-4.0452,-4.0484,-4.0492,-4.0396,-3.9192,-3.8373,-3.7873,-3.6654,-3.5808,-3.5558,-3.55,-3.55,-3.55,-3.55,-3.55,-3.55,-3.55,-3.55,-3.55,-3.55,-3.5494,-3.5489,-3.554,-3.5571,-3.5583,-3.5621,-3.5664,-3.5751,-3.655,-3.725,-3.7957,-3.9056,-3.9947,-4.0515,-4.0803,-4.1111,-4.1101,-4.1106,-4.111,-4.1152,-4.1152,-4.1172,-4.1191,-4.1191,-4.1191,-4.1191,-4.1191,-4.1191,-4.1191,-4.1172,-4.1152,-4.1151,-4.1151,-4.113,-4.1109,-4.1107,-4.1103,-4.11,-4.1106,-4.1099,-4.1105,-4.1059,-4.1033,-4.1039,-4.0914,-4.0757,-4.0456,-4.0145,-3.9939,-3.9709,-3.9109,-3.8696,-3.8059,-3.7583,-3.7184,-3.6561,-3.6342,-3.6073,-3.5694,-3.5507,-3.55,-3.55,-3.55,-3.55,-4.3479,-4.3479,-4.3479,-4.3496,-4.3496,-4.3496,-4.3566,-4.3599,-4.3599,-4.3667,-4.3786,-4.3849,-4.3897,-4.3913,-4.3974,-4.402,-4.4008,-4.4005,-4.3147,-4.2056,-4.1798,-4.1174,-3.9882,-3.9903,-4.0036,-4.0058,-4.0119,-4.0205,-4.0271,-4.028,-4.0316,-4.037,-4.0422,-4.0474,-4.031,-3.9669,-3.8819,-3.8154,-3.7154,-3.6262,-3.5654,-3.55,-3.55,-3.55,-3.55,-3.55,-3.55,-3.55,-3.55,-3.55,-3.55,-3.5488,-3.5488,-3.5483,-3.5528,-3.5509,-3.5565,-3.5595,-3.5772,-3.6283,-3.691,-3.7238,-3.8552,-3.9664,-3.987,-4.0605,-4.1096,-4.1094,-4.1108,-4.1101,-4.1109,-4.1111,-4.1131,-4.1191,-4.1191,-4.1191,-4.1191,-4.1191,-4.1191,-4.1191,-4.1191,-4.1191,-4.1191,-4.1191,-4.1171,-4.1151,-4.1131,-4.113,-4.1128,-4.1123,-4.112,-4.1091,-4.1097,-4.1085,-4.1074,-4.1044,-4.0805,-4.0162,-3.971,-3.9238,-3.8878,-3.8251,-3.77,-3.7083,-3.673,-3.6293,-3.5984,-3.5862,-3.5772,-3.5624,-3.5527,-3.5514,-3.5514,-3.5527,-3.5508,-4.3479,-4.3479,-4.3479,-4.3479,-4.3479,-4.3479,-4.3515,-4.3513,-4.3532,-4.3566,-4.36,-4.3651,-4.3682,-4.3682,-4.3802,-4.3851,-4.3851,-4.3832,-4.2963,-4.1591,-4.146,-4.0733,-3.9695,-3.9623,-3.977,-3.9815,-3.9881,-3.9948,-4.0059,-4.0118,-4.0158,-4.0177,-4.0298,-4.0362,-4.0217,-3.9588,-3.9122,-3.8704,-3.7406,-3.6644,-3.632,-3.575,-3.55,-3.55,-3.55,-3.55,-3.55,-3.55,-3.55,-3.55,-3.55,-3.55,-3.5481,-3.5494,-3.5482,-3.5495,-3.5509,-3.5515,-3.5585,-3.5819,-3.6287,-3.6992,-3.804,-3.896,-3.968,-4.0524,-4.0968,-4.1039,-4.1081,-4.1099,-4.1098,-4.1103,-4.1107,-4.1112,-4.1172,-4.1191,-4.1191,-4.1191,-4.1191,-4.1191,-4.1191,-4.1191,-4.1191,-4.1191,-4.1191,-4.1172,-4.1172,-4.1172,-4.1152,-4.113,-4.1128,-4.1108,-4.1103,-4.1098,-4.1091,-4.1087,-4.0744,-3.9926,-3.919,-3.8316,-3.7739,-3.6978,-3.6492,-3.601,-3.6182,-3.5894,-3.5782,-3.5681,-3.5585,-3.5573,-3.5566,-3.5566,-3.5566,-3.5592,-3.5541,-4.3479,-4.3479,-4.3479,-4.3479,-4.3479,-4.3479,-4.3479,-4.3479,-4.3479,-4.3479,-4.3496,-4.3531,-4.3548,-4.3565,-4.3652,-4.3688,-4.3688,-4.3669,-4.2951,-4.1825,-4.1046,-4.0163,-3.9425,-3.935,-3.9464,-3.9539,-3.9618,-3.9724,-3.9826,-3.9892,-3.9946,-4.0,-4.0148,-4.0206,-4.0215,-3.9867,-3.9421,-3.8958,-3.7851,-3.7068,-3.663,-3.5876,-3.5511,-3.546,-3.5486,-3.55,-3.55,-3.55,-3.55,-3.55,-3.55,-3.55,-3.55,-3.55,-3.55,-3.55,-3.5489,-3.5502,-3.5509,-3.5534,-3.5815,-3.6474,-3.7456,-3.8401,-3.9156,-4.0145,-4.0913,-4.0948,-4.1029,-4.1064,-4.1097,-4.1112,-4.1101,-4.1107,-4.115,-4.1152,-4.1191,-4.1191,-4.1191,-4.1191,-4.1191,-4.1191,-4.1191,-4.1191,-4.1191,-4.1191,-4.1191,-4.1191,-4.1191,-4.1172,-4.1152,-4.1133,-4.1094,-4.1088,-4.0851,-4.075,-4.0122,-3.937,-3.8268,-3.7427,-3.6971,-3.618,-3.6012,-3.5803,-3.5732,-3.5679,-3.5672,-3.5646,-3.5629,-3.5618,-3.5626,-3.562,-3.562,-3.5626,-3.5589,-4.3497,-4.3479,-4.3479,-4.3479,-4.3479,-4.3479,-4.3479,-4.3479,-4.3479,-4.3479,-4.3496,-4.3479,-4.3496,-4.3479,-4.3532,-4.3496,-4.3515,-4.3532,-4.3001,-4.1987,-4.088,-3.9752,-3.9316,-3.9157,-3.9242,-3.9272,-3.9324,-3.9414,-3.9526,-3.9611,-3.9682,-3.9762,-3.9933,-4.0036,-4.0048,-4.0101,-3.9794,-3.9181,-3.8212,-3.7423,-3.6757,-3.5944,-3.5422,-3.5391,-3.542,-3.5453,-3.546,-3.5467,-3.5493,-3.5493,-3.5493,-3.55,-3.55,-3.55,-3.55,-3.55,-3.5488,-3.5488,-3.5488,-3.5509,-3.5624,-3.6055,-3.7308,-3.8195,-3.8746,-3.994,-4.0833,-4.0887,-4.0948,-4.0999,-4.1075,-4.1094,-4.1088,-4.1093,-4.11,-4.1127,-4.1171,-4.1191,-4.1191,-4.1191,-4.1191,-4.1191,-4.1191,-4.1191,-4.1191,-4.1191,-4.1191,-4.1191,-4.1191,-4.1191,-4.1172,-4.1191,-4.1133,-4.1053,-4.072,-4.0368,-3.9507,-3.8606,-3.7313,-3.6483,-3.6452,-3.6003,-3.5921,-3.5836,-3.5788,-3.5756,-3.573,-3.5703,-3.5679,-3.5684,-3.5679,-3.5664,-3.5653,-3.5664,-3.5658,-4.3464,-4.3479,-4.3479,-4.3479,-4.3479,-4.3479,-4.3479,-4.3479,-4.3479,-4.3479,-4.3479,-4.3479,-4.3479,-4.3479,-4.3479,-4.3479,-4.3479,-4.3442,-4.3057,-4.2158,-4.065,-3.9947,-3.9583,-3.9276,-3.903,-3.9064,-3.9078,-3.9129,-3.9219,-3.9337,-3.9401,-3.9421,-3.9611,-3.9717,-3.9804,-3.9873,-3.9931,-3.9604,-3.8442,-3.763,-3.7175,-3.6012,-3.5308,-3.5316,-3.5335,-3.535,-3.5357,-3.5379,-3.542,-3.5446,-3.546,-3.5474,-3.55,-3.55,-3.55,-3.55,-3.55,-3.55,-3.5507,-3.5571,-3.5797,-3.6478,-3.7488,-3.842,-3.9154,-4.005,-4.0706,-4.0809,-4.0848,-4.0888,-4.0991,-4.1026,-4.1037,-4.1079,-4.1087,-4.1101,-4.1121,-4.1129,-4.1131,-4.1132,-4.1152,-4.1191,-4.1191,-4.1191,-4.1191,-4.1191,-4.1191,-4.1191,-4.1191,-4.1191,-4.1074,-4.1016,-4.0898,-4.0703,-4.0059,-3.957,-3.8709,-3.7928,-3.6736,-3.6012,-3.5975,-3.5956,-3.5901,-3.5902,-3.5878,-3.5837,-3.5817,-3.5791,-3.5772,-3.576,-3.5743,-3.5735,-3.573,-3.573,-3.5721,-4.334,-4.3357,-4.341,-4.3445,-4.3445,-4.348,-4.3479,-4.3479,-4.3479,-4.3479,-4.3479,-4.3479,-4.3479,-4.3479,-4.3479,-4.3479,-4.3479,-4.3478,-4.3057,-4.2286,-4.1313,-4.0653,-3.9916,-3.9534,-3.9261,-3.8988,-3.8892,-3.8935,-3.9021,-3.9101,-3.917,-3.9183,-3.935,-3.9458,-3.9539,-3.9635,-3.9739,-3.9507,-3.8321,-3.7479,-3.7262,-3.6004,-3.5176,-3.5209,-3.5231,-3.5254,-3.5254,-3.5312,-3.5327,-3.5361,-3.5391,-3.5446,-3.5493,-3.55,-3.55,-3.55,-3.55,-3.55,-3.5519,-3.5865,-3.6264,-3.6759,-3.7889,-3.8712,-3.9434,-4.0156,-4.0641,-4.0733,-4.0757,-4.0809,-4.0883,-4.0941,-4.0976,-4.0997,-4.1019,-4.1037,-4.1061,-4.1093,-4.1108,-4.111,-4.1113,-4.1133,-4.1152,-4.1172,-4.1191,-4.1191,-4.1191,-4.1191,-4.1191,-4.1152,-4.0801,-4.0664,-4.0566,-4.0195,-3.9414,-3.8691,-3.7871,-3.7168,-3.6406,-3.6035,-3.5993,-3.5966,-3.5938,-3.5944,-3.5927,-3.5901,-3.587,-3.5869,-3.5849,-3.584,-3.583,-3.582,-3.5836,-3.5836,-3.5826,-4.3123,-4.3178,-4.3287,-4.334,-4.3376,-4.341,-4.3427,-4.3463,-4.3463,-4.3427,-4.348,-4.348,-4.348,-4.3479,-4.3479,-4.3479,-4.3479,-4.3461,-4.3094,-4.2616,-4.2231,-4.1479,-4.0614,-4.0042,-3.9559,-3.8979,-3.8847,-3.884,-3.8881,-3.8939,-3.8979,-3.9007,-3.9142,-3.9232,-3.9285,-3.9401,-3.9502,-3.9344,-3.8034,-3.7222,-3.7001,-3.5788,-3.5058,-3.5035,-3.507,-3.5124,-3.5141,-3.5193,-3.5253,-3.528,-3.5281,-3.5335,-3.5412,-3.5467,-3.5493,-3.5474,-3.5474,-3.55,-3.5635,-3.6154,-3.6699,-3.6904,-3.8315,-3.9273,-3.9649,-4.0145,-4.0521,-4.0679,-4.07,-4.072,-4.0784,-4.0819,-4.0869,-4.0876,-4.0949,-4.0968,-4.0997,-4.1035,-4.1081,-4.11,-4.1106,-4.1129,-4.113,-4.1151,-4.1171,-4.1191,-4.1191,-4.1191,-4.1191,-4.0957,-4.0547,-4.0137,-3.9961,-3.9355,-3.8574,-3.7851,-3.7031,-3.6719,-3.6055,-3.6035,-3.6016,-3.5995,-3.5971,-3.5987,-3.5982,-3.5956,-3.5929,-3.5917,-3.5908,-3.5901,-3.5912,-3.5902,-3.5921,-3.5921,-3.5914,-4.2786,-4.2939,-4.3086,-4.3141,-4.3142,-4.3214,-4.3232,-4.325,-4.3251,-4.3304,-4.3412,-4.3429,-4.3428,-4.3462,-4.3479,-4.3479,-4.3479,-4.3461,-4.3387,-4.3094,-4.2708,-4.2011,-4.1589,-4.0506,-3.9898,-3.9567,-3.9105,-3.8735,-3.875,-3.8792,-3.8837,-3.8866,-3.8935,-3.8989,-3.9064,-3.9106,-3.9197,-3.9048,-3.7798,-3.7016,-3.6644,-3.5598,-3.4771,-3.4822,-3.4851,-3.4898,-3.4964,-3.5029,-3.5065,-3.5147,-3.5132,-3.5155,-3.5231,-3.5327,-3.5391,-3.542,-3.5453,-3.5486,-3.5724,-3.6308,-3.7038,-3.7777,-3.8777,-3.965,-4.0119,-4.0389,-4.0534,-4.0603,-4.0626,-4.0661,-4.0701,-4.0725,-4.0761,-4.0807,-4.0824,-4.0849,-4.0924,-4.0972,-4.1016,-4.1052,-4.1081,-4.1101,-4.1122,-4.1126,-4.1149,-4.115,-4.1151,-4.1171,-4.1191,-4.0703,-4.0078,-3.9668,-3.9277,-3.8496,-3.7656,-3.6934,-3.6289,-3.6348,-3.6035,-3.6035,-3.6016,-3.6016,-3.6015,-3.6013,-3.6011,-3.5989,-3.5986,-3.5963,-3.596,-3.5953,-3.5968,-3.5985,-3.5981,-3.5958,-3.5981,-4.2412,-4.2494,-4.267,-4.2747,-4.2767,-4.29,-4.2939,-4.2957,-4.3013,-4.3123,-4.3215,-4.3251,-4.3287,-4.3358,-4.3428,-4.3463,-4.3497,-4.3479,-4.3479,-4.3369,-4.3094,-4.2653,-4.2286,-4.1038,-4.0341,-3.979,-3.9129,-3.8726,-3.8707,-3.8735,-3.875,-3.8765,-3.8807,-3.8881,-3.891,-3.8954,-3.8979,-3.8711,-3.7634,-3.6756,-3.6609,-3.5287,-3.4633,-3.4586,-3.462,-3.467,-3.474,-3.482,-3.4859,-3.4888,-3.4917,-3.4963,-3.5056,-3.5172,-3.528,-3.5381,-3.5415,-3.5669,-3.6126,-3.6882,-3.7735,-3.8604,-3.9419,-4.0015,-4.0381,-4.0496,-4.0523,-4.0546,-4.0595,-4.0605,-4.0639,-4.064,-4.0662,-4.0681,-4.0725,-4.0781,-4.0821,-4.0873,-4.0911,-4.0968,-4.1034,-4.1068,-4.1101,-4.1111,-4.1101,-4.1106,-4.1108,-4.1091,-4.1093,-4.0409,-3.9648,-3.8809,-3.8281,-3.7598,-3.6934,-3.6523,-3.6016,-3.6016,-3.6016,-3.6016,-3.6016,-3.6016,-3.6016,-3.6015,-3.6015,-3.6016,-3.6013,-3.5992,-3.6011,-3.601,-3.6006,-3.6002,-3.6003,-3.6003,-3.6003,-4.1956,-4.2037,-4.2192,-4.2257,-4.2297,-4.2476,-4.2537,-4.2595,-4.2691,-4.2805,-4.2955,-4.2993,-4.3031,-4.3123,-4.3251,-4.3376,-4.3445,-4.3427,-4.341,-4.341,-4.3355,-4.3042,-4.2472,-4.1702,-4.095,-4.023,-3.9441,-3.8854,-3.8707,-3.8707,-3.8707,-3.8723,-3.8765,-3.8777,-3.8792,-3.8822,-3.8848,-3.8438,-3.7576,-3.6767,-3.6081,-3.5045,-3.4269,-3.4347,-3.4404,-3.4431,-3.4517,-3.4569,-3.4752,-3.4878,-3.4999,-3.509,-3.5205,-3.5352,-3.5504,-3.5628,-3.5594,-3.5998,-3.6612,-3.7671,-3.8454,-3.9081,-3.9981,-4.0365,-4.0477,-4.0496,-4.0496,-4.0523,-4.0539,-4.058,-4.0588,-4.0591,-4.0593,-4.0626,-4.0647,-4.0687,-4.0707,-4.0732,-4.0779,-4.0849,-4.0968,-4.1029,-4.105,-4.1074,-4.107,-4.1108,-4.1111,-4.0731,-4.0618,-3.9918,-3.906,-3.7949,-3.7187,-3.6582,-3.623,-3.6309,-3.6016,-3.6016,-3.6016,-3.6016,-3.6016,-3.6016,-3.6016,-3.6016,-3.6016,-3.6016,-3.6016,-3.6015,-3.6015,-3.6014,-3.6013,-3.6016,-3.6016,-3.6016,-3.6012,-4.1436,-4.1653,-4.1749,-4.1778,-4.1796,-4.1906,-4.2068,-4.2166,-4.2169,-4.2313,-4.2494,-4.2611,-4.2689,-4.2806,-4.3012,-4.316,-4.3214,-4.3232,-4.3232,-4.3232,-4.3232,-4.3232,-4.3083,-4.2442,-4.1525,-4.0732,-4.0013,-3.9368,-3.8839,-3.8692,-3.8707,-3.8707,-3.8723,-3.8704,-3.8719,-3.875,-3.8738,-3.8588,-3.789,-3.6842,-3.5647,-3.467,-3.4333,-3.4272,-3.4309,-3.442,-3.4574,-3.4653,-3.4796,-3.5372,-3.5481,-3.5883,-3.6492,-3.6776,-3.6884,-3.6818,-3.6615,-3.6378,-3.6889,-3.7975,-3.8955,-3.941,-4.0041,-4.0399,-4.0492,-4.0508,-4.0508,-4.0496,-4.0523,-4.0523,-4.0523,-4.0512,-4.0546,-4.0588,-4.0603,-4.0605,-4.0614,-4.0661,-4.0707,-4.0713,-4.0819,-4.0902,-4.0964,-4.0986,-4.1019,-4.1064,-4.1007,-4.0595,-4.0062,-3.9325,-3.8371,-3.7223,-3.6737,-3.6191,-3.6016,-3.6016,-3.5996,-3.6016,-3.6016,-3.6016,-3.6016,-3.6016,-3.6016,-3.6016,-3.6016,-3.6016,-3.6016,-3.6016,-3.6016,-3.6016,-3.6016,-3.6016,-3.6016,-3.6016,-3.6016,-4.0853,-4.1105,-4.1203,-4.1255,-4.1255,-4.1351,-4.1463,-4.1574,-4.1679,-4.1813,-4.2026,-4.213,-4.2353,-4.2611,-4.2785,-4.2899,-4.2976,-4.3031,-4.3031,-4.3031,-4.305,-4.3087,-4.2996,-4.2413,-4.1646,-4.0892,-4.0103,-3.9276,-3.8831,-3.8658,-3.8707,-3.8707,-3.8707,-3.8707,-3.8707,-3.8707,-3.8707,-3.8484,-3.7908,-3.6981,-3.6057,-3.5501,-3.5321,-3.5388,-3.5351,-3.5373,-3.5412,-3.5518,-3.5642,-3.607,-3.6153,-3.6322,-3.667,-3.6833,-3.6924,-3.6977,-3.7351,-3.7572,-3.7927,-3.8592,-3.9179,-3.971,-4.0166,-4.0383,-4.0471,-4.0495,-4.0492,-4.0496,-4.0496,-4.0496,-4.0489,-4.0496,-4.0523,-4.0539,-4.0565,-4.0554,-4.0557,-4.0598,-4.0646,-4.0654,-4.0681,-4.0775,-4.0839,-4.0882,-4.091,-4.0932,-4.0629,-4.0087,-3.9433,-3.8634,-3.7586,-3.6419,-3.6187,-3.6052,-3.6013,-3.6016,-3.5996,-3.5996,-3.5996,-3.5996,-3.6016,-3.6016,-3.5994,-3.6014,-3.6016,-3.6016,-3.6015,-3.6015,-3.6016,-3.6016,-3.6016,-3.6016,-3.6016,-3.6016,-3.6016,-4.0379,-4.0558,-4.0745,-4.0799,-4.0799,-4.0871,-4.0954,-4.1071,-4.1203,-4.1346,-4.1507,-4.1661,-4.198,-4.231,-4.2412,-4.2512,-4.2691,-4.2729,-4.2749,-4.2767,-4.2767,-4.2823,-4.2736,-4.223,-4.1615,-4.0687,-4.03,-3.9404,-3.8739,-3.8546,-3.8627,-3.8692,-3.8707,-3.8707,-3.8707,-3.8707,-3.8707,-3.8634,-3.7915,-3.7199,-3.6666,-3.6336,-3.6272,-3.6301,-3.6384,-3.6398,-3.644,-3.6367,-3.6385,-3.6763,-3.6819,-3.6989,-3.7313,-3.7506,-3.7562,-3.7696,-3.811,-3.8498,-3.8726,-3.9131,-3.9528,-3.9938,-4.0261,-4.0288,-4.0413,-4.043,-4.0447,-4.046,-4.0492,-4.0492,-4.05,-4.05,-4.0496,-4.0496,-4.0496,-4.0496,-4.0496,-4.0554,-4.0588,-4.0583,-4.0612,-4.0633,-4.0707,-4.0757,-4.0786,-4.0775,-4.0326,-3.9601,-3.8728,-3.7812,-3.7061,-3.5992,-3.5977,-3.5982,-3.6006,-3.6007,-3.5987,-3.5966,-3.5966,-3.5966,-3.5965,-3.5965,-3.5965,-3.5986,-3.6006,-3.6009,-3.6011,-3.6014,-3.6016,-3.6016,-3.6016,-3.6016,-3.6016,-3.6016,-3.6016,-4.0121,-4.0146,-4.0436,-4.0534,-4.0534,-4.0534,-4.0607,-4.0745,-4.0745,-4.0864,-4.1018,-4.1163,-4.1463,-4.1731,-4.1899,-4.2023,-4.2148,-4.2269,-4.2328,-4.2348,-4.2348,-4.2391,-4.2382,-4.221,-4.175,-4.0655,-4.0239,-3.9547,-3.8651,-3.8372,-3.8517,-3.8658,-3.8658,-3.8692,-3.8707,-3.8707,-3.8707,-3.8579,-3.7991,-3.7676,-3.7272,-3.6909,-3.6538,-3.6483,-3.6409,-3.6317,-3.6336,-3.6552,-3.686,-3.7445,-3.7521,-3.7771,-3.8151,-3.8319,-3.8386,-3.8517,-3.8655,-3.896,-3.9127,-3.9387,-3.9738,-3.995,-4.006,-4.0158,-4.0289,-4.0316,-4.0334,-4.0405,-4.0438,-4.0482,-4.0479,-4.0503,-4.0484,-4.05,-4.05,-4.0508,-4.0489,-4.0496,-4.0531,-4.0531,-4.0546,-4.0576,-4.0417,-4.0443,-4.0349,-4.0333,-3.9359,-3.8602,-3.7645,-3.6818,-3.647,-3.5916,-3.5908,-3.5937,-3.597,-3.597,-3.5946,-3.5921,-3.59,-3.5901,-3.5901,-3.5923,-3.5944,-3.5947,-3.5968,-3.5996,-3.6003,-3.5987,-3.5996,-3.5996,-3.6016,-3.6016,-3.6016,-3.6016,-3.6016,-4.0113,-4.0113,-4.0196,-4.0246,-4.0246,-4.0246,-4.0337,-4.0453,-4.0453,-4.0576,-4.0769,-4.0871,-4.1024,-4.126,-4.1396,-4.1547,-4.1679,-4.1823,-4.1866,-4.1866,-4.1888,-4.1917,-4.1984,-4.1887,-4.1543,-4.0685,-4.0302,-3.9751,-3.8832,-3.8323,-3.8276,-3.8405,-3.8515,-3.8643,-3.8658,-3.8673,-3.8692,-3.8637,-3.8414,-3.823,-3.8175,-3.8028,-3.779,-3.779,-3.779,-3.7771,-3.7808,-3.779,-3.7973,-3.8135,-3.8205,-3.8441,-3.8658,-3.8788,-3.8851,-3.8896,-3.895,-3.9017,-3.9142,-3.9389,-3.9623,-3.9785,-3.9884,-3.9979,-4.0128,-4.0158,-4.0234,-4.0317,-4.0362,-4.0379,-4.0413,-4.043,-4.0447,-4.0479,-4.0495,-4.0484,-4.05,-4.05,-4.0362,-4.0304,-4.0427,-4.0539,-4.0315,-4.006,-3.9952,-3.9779,-3.8656,-3.7628,-3.6757,-3.6169,-3.5949,-3.584,-3.5855,-3.5867,-3.5907,-3.5907,-3.5904,-3.588,-3.5853,-3.585,-3.585,-3.5899,-3.5921,-3.5929,-3.5936,-3.5923,-3.5933,-3.5946,-3.5957,-3.5976,-3.5996,-3.6016,-3.6016,-3.6015,-3.6016,-4.0113,-4.0113,-4.0113,-4.0113,-4.0113,-4.0113,-4.0163,-4.0238,-4.0238,-4.0379,-4.0576,-4.0583,-4.068,-4.0853,-4.0995,-4.1111,-4.1226,-4.1318,-4.1363,-4.1403,-4.1386,-4.1431,-4.1463,-4.1411,-4.1221,-4.0609,-3.9975,-3.9299,-3.8704,-3.8097,-3.8005,-3.8122,-3.8271,-3.8403,-3.8578,-3.8611,-3.8611,-3.8611,-3.8611,-3.8643,-3.8588,-3.8569,-3.86,-3.8563,-3.8542,-3.8542,-3.8505,-3.8469,-3.8524,-3.8597,-3.8634,-3.867,-3.8704,-3.8735,-3.8747,-3.8777,-3.884,-3.8885,-3.8997,-3.917,-3.9389,-3.9532,-3.9592,-3.9739,-3.9881,-3.9965,-4.0008,-4.0128,-4.0196,-4.0252,-4.0308,-4.0335,-4.0379,-4.0413,-4.0458,-4.0455,-4.0487,-4.0484,-4.0231,-4.0046,-4.0112,-3.9946,-3.9273,-3.8849,-3.8592,-3.8466,-3.7956,-3.7016,-3.626,-3.5849,-3.5823,-3.5775,-3.578,-3.5818,-3.5833,-3.5817,-3.5797,-3.5799,-3.5768,-3.5761,-3.5784,-3.5818,-3.5833,-3.582,-3.583,-3.5846,-3.5861,-3.5875,-3.5912,-3.5957,-3.5985,-3.6009,-3.6011,-3.6013,-3.6014,-4.0113,-4.0113,-4.0113,-4.0113,-4.0113,-4.0113,-4.0096,-4.0138,-4.0121,-4.0171,-4.033,-4.033,-4.0404,-4.0534,-4.068,-4.0752,-4.0776,-4.0894,-4.0942,-4.0965,-4.0989,-4.0924,-4.0995,-4.099,-4.0896,-4.0127,-3.9532,-3.8969,-3.8498,-3.7708,-3.7612,-3.7757,-3.788,-3.807,-3.8368,-3.8417,-3.8417,-3.8417,-3.8382,-3.843,-3.8496,-3.8512,-3.8562,-3.8609,-3.8643,-3.8643,-3.8658,-3.8658,-3.8658,-3.8707,-3.8707,-3.8707,-3.8707,-3.8707,-3.8704,-3.8704,-3.8723,-3.875,-3.8822,-3.9007,-3.917,-3.9285,-3.935,-3.9439,-3.9587,-3.967,-3.9751,-3.9873,-3.9967,-4.0058,-4.0128,-4.0196,-4.0243,-4.0317,-4.0363,-4.0407,-4.0422,-4.0167,-3.9868,-3.9611,-3.9346,-3.9015,-3.8161,-3.7488,-3.7144,-3.6954,-3.689,-3.642,-3.578,-3.5621,-3.5658,-3.5703,-3.5713,-3.5712,-3.5726,-3.5706,-3.5702,-3.5698,-3.5704,-3.5699,-3.5699,-3.5718,-3.5712,-3.5726,-3.5743,-3.5768,-3.5784,-3.5799,-3.583,-3.5873,-3.5952,-3.5982,-3.6004,-3.6007,-3.5989,-4.0113,-4.0113,-4.0113,-4.0113,-4.0113,-4.0113,-4.0113,-4.0113,-4.0096,-4.0121,-4.0163,-4.0146,-4.0188,-4.0263,-4.0379,-4.0453,-4.0478,-4.0558,-4.0631,-4.0631,-4.0631,-4.0631,-4.0662,-4.0676,-4.0627,-4.0181,-3.9494,-3.8842,-3.8737,-3.7542,-3.7159,-3.728,-3.7449,-3.7685,-3.8018,-3.8136,-3.8154,-3.8136,-3.8186,-3.8252,-3.8336,-3.837,-3.8419,-3.8481,-3.8515,-3.853,-3.8578,-3.8559,-3.8609,-3.8658,-3.8658,-3.8692,-3.8673,-3.8673,-3.8707,-3.8707,-3.8707,-3.8707,-3.8735,-3.884,-3.8925,-3.9036,-3.9133,-3.921,-3.9376,-3.9414,-3.9514,-3.9642,-3.9724,-3.9804,-3.9892,-3.9924,-3.9988,-4.0147,-4.0196,-4.0252,-4.0183,-3.971,-3.9342,-3.9122,-3.8873,-3.8062,-3.7243,-3.6825,-3.6454,-3.6168,-3.6144,-3.6093,-3.5585,-3.5571,-3.562,-3.5631,-3.5654,-3.5626,-3.5623,-3.5614,-3.562,-3.5623,-3.5635,-3.5637,-3.5637,-3.5635,-3.5632,-3.5653,-3.5669,-3.5684,-3.5708,-3.5717,-3.5747,-3.5787,-3.5847,-3.591,-3.5939,-3.5946,-3.5955,-4.0011,-4.0037,-4.0037,-4.0045,-4.0113,-4.0113,-4.0113,-4.0113,-4.0113,-4.0113,-4.0096,-4.0096,-4.0113,-4.0138,-4.0188,-4.0238,-4.0255,-4.0313,-4.0345,-4.0345,-4.0345,-4.0345,-4.037,-4.0395,-4.0458,-4.0107,-3.9236,-3.8453,-3.8559,-3.7157,-3.6737,-3.6853,-3.6935,-3.711,-3.7412,-3.7541,-3.7739,-3.7756,-3.7827,-3.7915,-3.8036,-3.8122,-3.8189,-3.8271,-3.8336,-3.8366,-3.8433,-3.8465,-3.8512,-3.8578,-3.8609,-3.8643,-3.8624,-3.8658,-3.8692,-3.8707,-3.8707,-3.8707,-3.8707,-3.8707,-3.881,-3.8899,-3.891,-3.9007,-3.9142,-3.9183,-3.9264,-3.9356,-3.9439,-3.9526,-3.9611,-3.9635,-3.9781,-3.9933,-3.9996,-4.003,-4.0005,-3.9547,-3.8865,-3.8657,-3.7966,-3.7126,-3.6476,-3.6226,-3.5931,-3.5684,-3.5474,-3.5463,-3.5483,-3.5528,-3.5566,-3.5579,-3.5572,-3.5577,-3.5564,-3.5564,-3.5564,-3.5552,-3.5572,-3.5592,-3.5573,-3.5572,-3.5565,-3.5577,-3.5606,-3.5629,-3.5635,-3.5643,-3.5664,-3.5679,-3.5709,-3.5774,-3.5844,-3.5868,-3.5901,-3.9755,-3.9858,-3.9884,-3.9961,-4.0087,-4.0087,-4.007,-4.0113,-4.0113,-4.0113,-4.0113,-4.0113,-4.0113,-4.0113,-4.0096,-4.0121,-4.0121,-4.0121,-4.0146,-4.0146,-4.0171,-4.0163,-4.0188,-4.0238,-4.0288,-3.9827,-3.9024,-3.8213,-3.8202,-3.6952,-3.6391,-3.6461,-3.6489,-3.6591,-3.6736,-3.6917,-3.717,-3.7282,-3.7412,-3.7504,-3.7649,-3.7775,-3.7863,-3.7949,-3.8052,-3.8154,-3.8221,-3.8303,-3.8334,-3.8399,-3.8446,-3.8478,-3.8544,-3.8643,-3.8658,-3.8673,-3.8673,-3.8673,-3.8707,-3.8707,-3.8707,-3.8765,-3.8777,-3.8837,-3.8906,-3.8993,-3.9064,-3.9133,-3.921,-3.9245,-3.9292,-3.9439,-3.9563,-3.9658,-3.9728,-3.9783,-3.9865,-3.9365,-3.8585,-3.7913,-3.7045,-3.6293,-3.578,-3.55,-3.5684,-3.5496,-3.5357,-3.5405,-3.5434,-3.5494,-3.5508,-3.5515,-3.5509,-3.5509,-3.5509,-3.5515,-3.5515,-3.5515,-3.5515,-3.5515,-3.5515,-3.5521,-3.5522,-3.5547,-3.5579,-3.5591,-3.5578,-3.5577,-3.5606,-3.5607,-3.5649,-3.5708,-3.5784,-3.584,-3.5859,-3.9563,-3.9616,-3.972,-3.9781,-3.9816,-3.991,-4.0011,-4.0087,-4.0113,-4.0113,-4.0113,-4.0113,-4.0113,-4.0113,-4.0096,-4.0113,-4.0113,-4.0113,-4.0096,-4.0113,-4.0113,-4.0113,-4.0113,-4.0138,-4.0146,-3.9655,-3.889,-3.8044,-3.7803,-3.671,-3.6058,-3.6127,-3.6148,-3.6148,-3.6195,-3.6284,-3.6536,-3.6779,-3.6915,-3.7071,-3.7206,-3.7318,-3.7431,-3.7559,-3.765,-3.7792,-3.7933,-3.8002,-3.8052,-3.8152,-3.8269,-3.8336,-3.837,-3.8451,-3.8496,-3.8559,-3.8559,-3.8593,-3.8673,-3.8707,-3.8692,-3.8692,-3.8704,-3.8747,-3.8807,-3.8851,-3.8881,-3.8954,-3.8993,-3.9059,-3.9101,-3.9192,-3.9324,-3.9414,-3.9489,-3.9549,-3.9539,-3.9088,-3.8329,-3.7624,-3.6717,-3.612,-3.5534,-3.5409,-3.5562,-3.5356,-3.5273,-3.5316,-3.538,-3.5424,-3.546,-3.5467,-3.5481,-3.5463,-3.5482,-3.5508,-3.5501,-3.5494,-3.5488,-3.55,-3.5494,-3.5501,-3.5501,-3.5515,-3.5534,-3.5547,-3.5534,-3.5541,-3.556,-3.5566,-3.5589,-3.5651,-3.5708,-3.576,-3.5775,-3.9137,-3.9245,-3.9309,-3.9441,-3.9625,-3.9755,-3.9884,-3.9961,-4.0062,-4.0113,-4.0113,-4.0113,-4.0113,-4.0113,-4.0113,-4.0113,-4.0113,-4.0113,-4.0113,-4.0113,-4.0113,-4.0113,-4.0113,-4.0113,-4.0113,-3.9588,-3.8826,-3.7919,-3.7532,-3.661,-3.5844,-3.5844,-3.5844,-3.5844,-3.5849,-3.5893,-3.6041,-3.6259,-3.6447,-3.6615,-3.6756,-3.6856,-3.6993,-3.7091,-3.7186,-3.7393,-3.7558,-3.7631,-3.7739,-3.7844,-3.7949,-3.8088,-3.8139,-3.8238,-3.8318,-3.8382,-3.8435,-3.8483,-3.853,-3.858,-3.8596,-3.8596,-3.8578,-3.8593,-3.8655,-3.8701,-3.878,-3.884,-3.8851,-3.8877,-3.8906,-3.8964,-3.9078,-3.917,-3.9219,-3.9298,-3.9027,-3.8744,-3.8124,-3.7454,-3.6805,-3.6197,-3.5816,-3.5653,-3.5415,-3.5195,-3.5126,-3.5179,-3.5253,-3.5339,-3.5376,-3.5379,-3.542,-3.5441,-3.546,-3.5467,-3.5474,-3.5481,-3.5488,-3.55,-3.55,-3.5488,-3.5494,-3.5488,-3.5488,-3.5507,-3.5507,-3.5501,-3.5509,-3.5515,-3.5541,-3.5566,-3.5626,-3.5651,-3.5664,-3.8488,-3.8722,-3.875,-3.8996,-3.9448,-3.9547,-3.9625,-3.9703,-3.9935,-4.0062,-4.0045,-4.0113,-4.0113,-4.0113,-4.0113,-4.0113,-4.0113,-4.0113,-4.0113,-4.0096,-4.0113,-4.0113,-4.0113,-4.0096,-3.9977,-3.952,-3.8759,-3.7686,-3.7263,-3.6412,-3.5667,-3.5616,-3.5644,-3.5667,-3.5667,-3.5667,-3.5778,-3.5888,-3.6062,-3.6233,-3.6326,-3.6451,-3.6553,-3.6635,-3.6816,-3.7013,-3.7091,-3.7206,-3.7356,-3.7394,-3.7523,-3.7703,-3.7845,-3.795,-3.8069,-3.8188,-3.8223,-3.8289,-3.8336,-3.8368,-3.8385,-3.8385,-3.8366,-3.8382,-3.843,-3.8575,-3.867,-3.8701,-3.8728,-3.8777,-3.8822,-3.8851,-3.8925,-3.8993,-3.9031,-3.9129,-3.9069,-3.867,-3.8083,-3.7502,-3.709,-3.652,-3.6326,-3.6185,-3.5873,-3.5362,-3.5173,-3.5239,-3.5132,-3.5225,-3.5364,-3.5392,-3.5361,-3.5383,-3.5405,-3.542,-3.546,-3.5467,-3.5474,-3.55,-3.55,-3.55,-3.55,-3.55,-3.55,-3.55,-3.5507,-3.5494,-3.5494,-3.5501,-3.5501,-3.5488,-3.5528,-3.5553,-3.5583,-3.7905,-3.796,-3.8173,-3.8539,-3.8942,-3.8996,-3.9228,-3.9537,-3.9616,-3.9746,-3.9935,-4.0037,-4.0087,-4.0087,-4.0062,-4.0062,-4.007,-4.0062,-4.0113,-4.0096,-4.007,-4.0113,-4.0113,-4.0096,-3.9825,-3.9123,-3.8294,-3.7313,-3.6445,-3.5853,-3.5616,-3.5616,-3.5616,-3.5616,-3.5616,-3.5616,-3.5644,-3.5667,-3.5756,-3.5927,-3.6062,-3.6088,-3.6191,-3.6276,-3.6426,-3.6547,-3.6629,-3.6716,-3.6856,-3.6954,-3.7129,-3.7337,-3.7504,-3.7559,-3.7667,-3.7828,-3.7916,-3.7984,-3.8069,-3.8119,-3.8136,-3.817,-3.8152,-3.8168,-3.8234,-3.843,-3.8559,-3.8575,-3.8621,-3.867,-3.8719,-3.875,-3.878,-3.8807,-3.8833,-3.8964,-3.9078,-3.8598,-3.807,-3.7736,-3.7372,-3.7132,-3.6927,-3.6641,-3.6302,-3.6034,-3.5784,-3.5618,-3.5206,-3.5154,-3.5492,-3.5505,-3.5334,-3.5343,-3.5339,-3.5376,-3.5391,-3.5412,-3.5412,-3.5453,-3.5493,-3.5493,-3.5486,-3.55,-3.55,-3.55,-3.55,-3.5481,-3.5488,-3.55,-3.55,-3.55,-3.55,-3.5515,-3.5528,-3.724,-3.7387,-3.7756,-3.8075,-3.8303,-3.8427,-3.8667,-3.8887,-3.9094,-3.9282,-3.9451,-3.9738,-3.9893,-3.9935,-3.9935,-3.9935,-3.9918,-3.9986,-3.9986,-4.0011,-4.0045,-4.0096,-4.0113,-4.0054,-3.9639,-3.8954,-3.7838,-3.6789,-3.5769,-3.5616,-3.5616,-3.5616,-3.5616,-3.5616,-3.5616,-3.5616,-3.5616,-3.5616,-3.5616,-3.5689,-3.5844,-3.5888,-3.5927,-3.6014,-3.6101,-3.6187,-3.6251,-3.6343,-3.6464,-3.6571,-3.6733,-3.6873,-3.7013,-3.711,-3.7243,-3.7393,-3.7504,-3.7613,-3.7703,-3.7774,-3.7827,-3.7844,-3.788,-3.7862,-3.788,-3.8052,-3.8236,-3.8285,-3.8481,-3.8546,-3.8544,-3.8575,-3.8606,-3.8634,-3.8732,-3.8822,-3.8906,-3.8734,-3.8503,-3.8454,-3.8135,-3.7919,-3.7691,-3.7412,-3.7019,-3.6422,-3.6227,-3.6211,-3.5769,-3.5364,-3.5631,-3.5733,-3.5626,-3.535,-3.5212,-3.5269,-3.5331,-3.5354,-3.54,-3.5379,-3.5412,-3.5446,-3.5472,-3.546,-3.5474,-3.55,-3.55,-3.5481,-3.55,-3.55,-3.55,-3.55,-3.55,-3.55,-3.5501,-3.6585,-3.6875,-3.7284,-3.7537,-3.7626,-3.7828,-3.8001,-3.8144,-3.8472,-3.8694,-3.8805,-3.9265,-3.9504,-3.9609,-3.9651,-3.9651,-3.9677,-3.9755,-3.9807,-3.9858,-3.9961,-4.0011,-4.0037,-3.9995,-3.9454,-3.8497,-3.7297,-3.6485,-3.5633,-3.5616,-3.5616,-3.5616,-3.5616,-3.5616,-3.5616,-3.5616,-3.5616,-3.5616,-3.5616,-3.5616,-3.5661,-3.5706,-3.5773,-3.58,-3.5866,-3.5937,-3.5997,-3.6058,-3.6144,-3.6229,-3.6339,-3.6485,-3.6591,-3.6693,-3.6814,-3.6952,-3.7031,-3.7147,-3.7262,-3.7301,-3.7394,-3.7467,-3.7503,-3.7539,-3.754,-3.7649,-3.7845,-3.8001,-3.817,-3.8368,-3.8366,-3.8433,-3.8446,-3.851,-3.8609,-3.8704,-3.8758,-3.8796,-3.8855,-3.8909,-3.8734,-3.8489,-3.8313,-3.8044,-3.763,-3.7005,-3.6753,-3.6731,-3.6614,-3.6279,-3.6194,-3.6186,-3.6061,-3.573,-3.5523,-3.5424,-3.5588,-3.5501,-3.5548,-3.5419,-3.535,-3.5376,-3.541,-3.5439,-3.5453,-3.5453,-3.546,-3.546,-3.5467,-3.5474,-3.55,-3.55,-3.55,-3.55,-3.55,-3.6179,-3.6337,-3.6445,-3.6693,-3.7042,-3.7117,-3.7371,-3.7743,-3.7876,-3.8033,-3.8201,-3.8371,-3.8689,-3.9286,-3.9302,-3.9302,-3.9276,-3.9441,-3.9537,-3.959,-3.9677,-3.9807,-3.9859,-3.9707,-3.9126,-3.8036,-3.6844,-3.5921,-3.5549,-3.5571,-3.56,-3.5577,-3.56,-3.56,-3.56,-3.56,-3.5616,-3.5616,-3.5616,-3.5616,-3.5616,-3.5622,-3.5622,-3.5667,-3.5667,-3.5672,-3.5694,-3.58,-3.5861,-3.5927,-3.5997,-3.6148,-3.6251,-3.6335,-3.6423,-3.6509,-3.6591,-3.6693,-3.6796,-3.6876,-3.6972,-3.7087,-3.7106,-3.7106,-3.7126,-3.7147,-3.73,-3.7412,-3.765,-3.8035,-3.8136,-3.8272,-3.8322,-3.8417,-3.8515,-3.8611,-3.8686,-3.8716,-3.8743,-3.8803,-3.8774,-3.8693,-3.8685,-3.844,-3.8251,-3.7757,-3.7498,-3.741,-3.7062,-3.6904,-3.6795,-3.6752,-3.6676,-3.6769,-3.6822,-3.61,-3.6027,-3.5864,-3.5611,-3.5337,-3.5234,-3.5308,-3.535,-3.5346,-3.535,-3.5357,-3.5391,-3.5424,-3.5446,-3.5434,-3.5474,-3.55,-3.5481,-3.55,-3.55]},{"header":{"parameterUnit":"m.s-1","parameterCategory":1,"la1":31.0,"la2":29.5877,"lo1":-88.7671,"lo2":-86.6584,"dy":0.0162,"dx":0.0185,"nx":115,"ny":88,"refTime":"2024-06-19T00:00:00:Z","depth":0,"parameterNumber":3,"parameterNumberName":"V-component_of_WINDS"},"data":[0.0,0.0,0.0,0.0,0.0,0.0,0.0,0.0,0.0,0.0,0.0,0.0,0.0,0.0,0.0,0.0,0.0,0.0,0.0,0.0,0.0,0.0,0.0,0.0,0.0,0.0,0.0,0.0,0.0,0.0,0.0,0.0,0.0,0.0,0.0,0.0,0.0,0.0,0.0,0.0,0.0,0.0,0.0,0.0,0.0,0.0,0.0,0.0,0.0,0.0,0.0,0.0,0.0,0.0,0.0,0.0,0.0,0.0,0.0,0.0,0.0,0.0,0.0,0.0,0.0,0.0,0.0,0.0,0.0,0.0,0.0,0.0,0.0,0.0,0.0,0.0,0.0,0.0,0.0,0.0,0.0,0.0,0.0,0.0,0.0,0.0,0.0,0.0,0.0,0.0,0.0,0.0,0.0,0.0,0.0,0.0,0.0,0.0,0.0,0.0,0.0,0.0,0.0,0.0,0.0,0.0,0.0,0.0,0.0,0.0,0.0,0.0,0.0,0.0,0.0,0.0,0.0,0.0,0.0,0.0,0.0,0.0,0.0,0.0,0.0,0.0,0.0,0.0,0.0,0.0,0.0,0.0,0.0,0.0,0.0,0.0,0.0,0.0,0.0,0.0,0.0,0.0,0.0,0.0,0.0,0.0,0.0,0.0,0.0,0.0,0.0,0.0,0.0,0.0,0.0,0.0,0.0,0.0,0.0,0.0,0.0,0.0,0.0,0.0,0.0,0.0,0.0,0.0,0.0,0.0,0.0,0.0,0.0,0.0,0.0,0.0,0.0,0.0,0.0,0.0,0.0,0.0,0.0,0.0,0.0,0.0,0.0,0.0,0.0,0.0,0.0,0.0,0.0,0.0,0.0,0.0,0.0,0.0,0.0,0.0,0.0,0.0,0.0,0.0,0.0,0.0,0.0,0.0,0.0,0.0,0.0,0.0,0.0,0.0,0.0,0.0,0.0,0.0,0.0,0.0,0.0,0.0,0.0,0.0,0.0,0.0,0.0,0.0,0.0,0.0,0.0,0.0,0.0,0.0,0.0,0.0,0.0,0.0,0.0,0.0,0.0,0.0,0.0,0.0,0.0,0.0,0.0,0.0,0.0,0.0,0.0,0.0,0.0,0.0,0.0,0.0,0.0,0.0,0.0,0.0,0.0,0.0,0.0,0.0,0.0,0.0,0.0,0.0,0.0,0.0,0.0,0.0,0.0,0.0,0.0,0.0,0.0,0.0,0.0,0.0,0.0,0.0,0.0,0.0,0.0,0.0,0.0,0.0,0.0,0.0,0.0,0.0,0.0,0.0,0.0,0.0,0.0,0.0,0.0,0.0,0.0,0.0,0.0,0.0,0.0,0.0,0.0,0.0,0.0,0.0,0.0,0.0,0.0,0.0,0.0,0.0,0.0,0.0,0.0,0.0,0.0,0.0,0.0,0.0,0.0,0.0,0.0,0.0,0.0,0.0,0.0,0.0,0.0,0.0,0.0,0.0,0.0,0.0,0.0,0.0,0.0,0.0,0.0,0.0,0.0,0.0,0.0,0.0,0.0,0.0,0.0,0.0,0.0,0.0,0.0,0.0,0.0,0.0,0.0,0.0,0.0,0.0,0.0,0.0,0.0,0.0,0.0,0.0,0.0,0.0,0.0,0.0,0.0,0.0,0.0,0.0,0.0,0.0,0.0,0.0,0.0,0.0,0.0,0.0,0.0,0.0,0.0,0.0,0.0,0.0,0.0,0.0,0.0,0.0,0.0,0.0,0.0,0.0,0.0,0.0,0.0,0.0,0.0,0.0,0.0,0.0,0.0,0.0,0.0,0.0,0.0,0.0,0.0,0.0,0.0,0.0,0.0,0.0,0.0,0.0,0.0,0.0,0.0,0.0,0.0,0.0,0.0,0.0,0.0,0.0,0.0,0.0,0.0,0.0,0.0,0.0,0.0,0.0,0.0,0.0,0.0,0.0,0.0,0.0,0.0,0.0,0.0,0.0,0.0,0.0,0.0,0.0,0.0,0.0,0.0,0.0,0.0,0.0,0.0,0.0,0.0,0.0,0.0,0.0,0.0,0.0,0.0,0.0,0.0,0.0,0.0,0.0,0.0,0.0,0.0,0.0,0.0,0.0,0.0,0.0,0.0,0.0,0.0,0.0,0.0,0.0,0.0,0.0,0.0,0.0,0.0,0.0,0.0,0.0,0.0,0.0,0.0,0.0,0.0,0.0,0.0,0.0,0.0,0.0,0.0,0.0,0.0,0.0,0.0,0.0,0.0,0.0,0.0,0.0,0.0,0.0,0.0,0.0,0.0,0.0,0.0,0.0,0.0,0.0,0.0,0.0,0.0,0.0,0.0,0.0,0.0,0.0,0.0,0.0,0.0,0.0,0.0,0.0,0.0,0.0,0.0,0.0,0.0,0.0,0.0,0.0,0.0,0.0,0.0,0.0,0.0,0.0,0.0,0.0,0.0,0.0,0.0,0.0,0.0,0.0,0.0,0.0,0.0,0.0,0.0,0.0,0.0,0.0,0.0,0.0,0.0,0.0,0.0,0.0,0.0,0.0,0.0,0.0,0.0,0.0,0.0,0.0,0.0,0.0,0.0,0.0,0.0,0.0,0.0,0.0,0.0,0.0,0.0,0.0,0.0,0.0,0.0,0.0,0.0,0.0,0.0,0.0,0.0,0.0,0.0,0.0,0.0,0.0,0.0,0.0,0.0,0.0,0.0,0.0,0.0,0.0,0.0,0.0,0.0,0.0,0.0,0.0,0.0,0.0,0.0,0.0,0.0,0.0,0.0,0.0,0.0,0.0,0.0,0.0,0.0,0.0,0.0,0.0,0.0,0.0,0.0,0.0,0.0,0.0,0.0,0.0,0.0,0.0,0.0,0.0,0.0,0.0,0.0,0.0,0.0,0.0,0.0,0.0,0.0,0.0,0.0,0.0,0.0,0.0,0.0,0.0,0.0,0.0,0.0,0.0,0.0,0.0,0.0,0.0,0.0,0.0,0.0,0.0,0.0,0.0,0.0,0.0,0.0,0.0,0.0,0.0,0.0,0.0,0.0,0.0,0.0,0.0,0.0,0.0,0.0,0.0,0.0,0.0,0.0,0.0,0.0,0.0,0.0,0.0,0.0,0.0,0.0,0.0,0.0,0.0,0.0,0.0,0.0,0.0,0.0,0.0,0.0,0.0,0.0,0.0,0.0,0.0,0.0,0.0,0.0,0.0,0.0,0.0,0.0,0.0,0.0,0.0,0.0,0.0,0.0,0.0,0.0,0.0,0.0,0.0,0.0,0.0,0.0,0.0,0.0,0.0,0.0,0.0,0.0,0.0,0.0,0.0,0.0,0.0,0.0,0.0,0.0,0.0,0.0,0.0,0.0,0.0,0.0,0.0,0.0,0.0,0.0,0.0,0.0,0.0,0.0,0.0,0.0,0.0,0.0,0.0,0.0,0.0,0.0,0.0,0.0,0.0,0.0,0.0,0.0,0.0,0.0,0.0,0.0,0.0,0.0,0.0,0.0,0.0,0.0,0.0,0.0,0.0,0.0,0.0,0.0,0.0,0.0,0.0,0.0,0.0,0.0,0.0,0.0,0.0,0.0,0.0,0.0,0.0,0.0,0.0,0.0,0.0,0.0,0.0,0.0,0.0,0.0,0.0,0.0,0.0,0.0,0.0,0.0,0.0,0.0,0.0,0.0,0.0,0.0,0.0,0.0,0.0,0.0,0.0,0.0,0.0,0.0,0.0,0.0,0.0,0.0,0.0,0.0,0.0,0.0,0.0,0.0,0.0,0.0,0.0,0.0,0.0,0.0,0.0,0.0,0.0,0.0,0.0,0.0,0.0,0.0,0.0,0.0,0.0,0.0,0.0,0.0,0.0,0.0,0.0,0.0,0.0,0.0,0.0,0.0,0.0,0.0,0.0,0.0,0.0,0.0,0.0,0.0,0.0,0.0,0.0,0.0,0.0,0.0,0.0,0.0,0.0,0.0,0.0,0.0,0.0,0.0,0.0,0.0,0.0,0.0,0.0,0.0,0.0,0.0,0.0,0.0,0.0,0.0,0.0,0.0,0.0,0.0,0.0,0.0,0.0,0.0,0.0,0.0,0.0,0.0,0.0,0.0,0.0,0.0,0.0,0.0,0.0,0.0,0.0,0.0,0.0,0.0,0.0,0.0,0.0,0.0,0.0,0.0,0.0,0.0,0.0,0.0,0.0,0.0,0.0,0.0,0.0,0.0,0.0,0.0,0.0,0.0,0.0,0.0,0.0,0.0,0.0,0.0,0.0,-0.4019,0.0,0.0,0.0,0.0,0.0,0.0,0.0,0.0,0.0,0.0,0.0,0.0,0.0,0.0,0.0,0.0,0.0,0.0,0.0,0.0,0.0,0.0,0.0,0.0,0.0,0.0,0.0,0.0,0.0,0.0,0.0,0.0,0.0,0.0,0.0,0.0,0.0,0.0,0.0,0.0,0.0,0.0,0.0,0.0,0.0,0.0,0.0,0.0,0.0,0.0,0.0,0.0,0.0,0.0,0.0,0.0,0.0,0.0,0.0,0.0,0.0,0.0,0.0,0.0,0.0,0.0,0.0,0.0,0.0,0.0,0.0,0.0,0.0,0.0,0.0,0.0,0.0,0.0,0.0,0.0,0.0,0.0,0.0,0.0,0.0,0.0,0.0,0.0,0.0,0.0,0.0,0.0,0.0,0.0,0.0,0.0,0.0,0.0,0.0,0.0,0.0,0.0,0.0,0.0,0.0,0.0,0.0,0.0,0.0,0.0,-0.1361,-0.2279,-0.2956,-0.3632,-0.4234,0.0,0.0,0.0,0.0,0.0,0.0,0.0,0.0,0.0,0.0,0.0,0.0,0.0,0.0,0.0,0.0,0.0,0.0,0.0,0.0,0.0,0.0,0.0,0.0,0.0,0.0,0.0,0.0,0.0,0.0,0.0,0.0,0.0,0.0,0.0,0.0,0.0,0.0,0.0,0.0,0.0,0.0,0.0,0.0,0.0,0.0,0.0,0.0,0.0,0.0,0.0,0.0,0.0,0.0,0.0,0.0,0.0,0.0,0.0,0.0,0.0,0.0,0.0,0.0,0.0,0.0,0.0,0.0,0.0,0.0,0.0,0.0,0.0,0.0,0.0,0.0,0.0,0.0,0.0,0.0,0.0,0.0,0.0,0.0,0.0,0.0,0.0,0.0,0.0,0.0,0.0,0.0,0.0,0.0,0.0,0.0,0.0,0.0,0.0,0.0,0.0,0.0,0.0,0.0,0.0,0.0,0.0,0.0,0.0,0.0,0.0,0.0,-0.311,-0.3782,-0.4424,0.0,0.0,0.0,0.0,0.0,0.0,0.0,0.0,0.0,0.0,0.0,0.0,0.0,0.0,0.0,0.0,0.0,0.0,0.0,0.0,0.0,0.0,0.0,0.0,0.0,0.0,0.0,0.0,0.0,0.0,0.0,0.0,0.0,0.0,0.0,0.0,0.0,0.0,0.0,0.0,0.0,0.0,0.0,0.0,0.0,0.0,0.0,0.0,0.0,0.0,0.0,0.0,0.0,0.0,0.0,0.0,0.0,0.0,0.0,0.0,0.0,0.0,0.0,0.0,0.0,0.0,0.0,0.0,0.0,0.0,0.0,0.0,0.0,0.0,0.0,0.0,0.0,0.0,0.0,0.0,0.0,0.0,0.0,0.0,0.0,0.0,0.0,0.0,0.0,0.0,0.0,0.0,0.0,0.0,0.0,0.0,0.0,0.0,0.0,0.0,0.0,0.0,0.0,0.0,0.0,0.0,0.0,0.0,0.0,0.0,-0.1438,-0.2305,-0.2972,0.0,-0.486,0.0,0.0,0.0,0.0,0.0,0.0,0.0,0.0,0.0,0.0,0.0,0.0,0.0,0.0,0.0,0.0,0.0,0.0,0.0,0.0,0.0,0.0,0.0,0.0,0.0,0.0,0.0,0.0,0.0,0.0,0.0,0.0,0.0,0.0,0.0,0.0,0.0,0.0,0.0,0.0,0.0,0.0,0.0,0.0,0.0,0.0,0.0,0.0,0.0,0.0,0.0,0.0,0.0,0.0,0.0,0.0,0.0,0.0,0.0,0.0,0.0,0.0,0.0,0.0,0.0,0.0,0.0,0.0,0.0,0.0,0.0,0.0,0.0,0.0,0.0,0.0,0.0,0.0,0.0,0.0,0.0,0.0,0.0,0.0,0.0,0.0,0.0,0.0,0.0,0.0,0.0,0.0,0.0,0.0,0.0,0.0,0.0,0.0,0.0,0.0,0.0,0.0,0.0,0.0,0.0,0.0,0.0,0.0,0.0,0.0,-0.1343,-0.1928,-0.3043,-0.41,0.0,0.0,0.0,0.0,0.0,0.0,0.0,0.0,0.0,0.0,0.0,0.0,0.0,0.0,0.0,0.0,0.0,0.0,0.0,0.0,0.0,0.0,0.0,0.0,0.0,0.0,0.0,0.0,0.0,0.0,0.0,0.0,0.0,0.0,0.0,0.0,0.0,0.0,0.0,0.0,0.0,0.0,0.0,0.0,0.0,0.0,0.0,0.0,0.0,0.0,0.0,0.0,0.0,0.0,0.0,0.0,0.0,0.0,0.0,0.0,0.0,0.0,0.0,0.0,0.0,0.0,0.0,0.0,0.0,0.0,0.0,0.0,0.0,0.0,0.0,0.0,0.0,0.0,0.0,0.0,0.0,0.0,0.0,0.0,0.0,0.0,0.0,0.0,0.0,0.0,0.0,0.0,0.0,0.0,0.0,0.0,0.0,0.0,0.0,0.0,0.0,0.0,0.0,0.0,0.0,0.0,0.0,0.0,0.0,0.0,-0.071,-0.1195,-0.1836,-0.3109,-0.4153,-0.4849,0.0,0.0,0.0,0.0,0.0,0.0,0.0,0.0,0.0,0.0,0.0,0.0,0.0,0.0,0.0,0.0,0.0,0.0,0.0,0.0,0.0,0.0,0.0,0.0,0.0,0.0,0.0,0.0,0.0,0.0,0.0,0.0,0.0,0.0,0.0,0.0,0.0,0.0,0.0,0.0,0.0,0.0,0.0,0.0,0.0,0.0,0.0,0.0,0.0,0.0,0.0,0.0,0.0,0.0,0.0,0.0,0.0,0.0,0.0,0.0,0.0,0.0,0.0,0.0,0.0,0.0,0.0,0.0,0.0,0.0,0.0,0.0,0.0,0.0,0.0,0.0,0.0,0.0,0.0,0.0,0.0,0.0,0.0,0.0,0.0,0.0,0.0,0.0,0.0,0.0,0.0,0.0,0.0,0.0,0.0,0.0,0.0,0.0,0.0,0.0,0.0,0.0,0.0,0.0,0.0,0.0,0.0,0.0,0.0,-0.0421,-0.0989,-0.2145,-0.3094,-0.3903,0.0,0.0,0.0,0.0,0.0,0.0,0.0,0.0,0.0,0.0,0.0,0.0,0.0,0.0,0.0,0.0,0.0,0.0,0.0,0.0,0.0,0.0,0.0,0.0,0.0,0.0,0.0,0.0,0.0,0.0,0.0,0.0,0.0,0.0,0.0,0.0,0.0,0.0,0.0,0.0,0.0,0.0,0.0,0.0,0.0,0.0,0.0,0.0,0.0,0.0,0.0,0.0,0.0,0.0,0.0,0.0,0.0,0.0,0.0,0.0,0.0,0.0,0.0,0.0,0.0,0.0,0.0,0.0,0.0,0.0,0.0,0.0,0.0,0.0,0.0,0.0,0.0,0.0,0.0,0.0,0.0,0.0,0.0,0.0,0.0,0.0,0.0,0.0,0.0,0.0,0.0,0.0,0.0,0.0,0.0,0.0,0.0,0.0,0.0,0.0,0.0,0.0,0.0,0.0,0.0,0.0,0.0,0.0,0.0,-0.0126,-0.0432,-0.1105,-0.215,-0.2967,-0.3701,0.0,0.0,0.0,0.0,0.0,0.0,0.0,0.0,0.0,0.0,0.0,0.0,0.0,0.0,0.0,0.0,0.0,0.0,0.0,0.0,0.0,0.0,0.0,0.0,0.0,0.0,0.0,0.0,0.0,0.0,0.0,0.0,0.0,0.0,0.0,0.0,0.0,0.0,0.0,0.0,0.0,0.0,0.0,0.0,0.0,0.0,0.0,0.0,0.0,0.0,0.0,0.0,0.0,0.0,0.0,0.0,0.0,0.0,0.0,0.0,0.0,0.0,0.0,0.0,0.0,0.0,0.0,0.0,0.0,0.0,0.0,0.0,0.0,0.0,0.0,0.0,0.0,0.0,0.0,0.0,0.0,0.0,0.0,0.0,0.0,0.0,0.0,0.0,0.0,0.0,0.0,0.0,0.0,0.0,0.0,0.0,0.0,0.0,0.0,0.0,0.0,0.0,0.0,0.0,0.0,0.0,0.0,0.0,0.0,0.0,0.0,-0.1121,0.0,-0.2752,-0.3574,0.0,0.0,0.0,0.0,0.0,0.0,0.0,0.0,0.0,0.0,0.0,0.0,0.0,0.0,0.0,0.0,0.0,0.0,0.0,0.0,0.0,0.0,0.0,0.0,0.0,0.0,0.0,0.0,0.0,0.0,0.0,0.0,0.0,0.0,0.0,0.0,0.0,0.0,0.0,0.0,0.0,0.0,0.0,0.0,0.0,0.0,0.0,0.0,0.0,0.0,0.0,0.0,0.0,0.0,0.0,0.0,0.0,0.0,0.0,0.0,0.0,0.0,0.0,0.0,0.0,0.0,0.0,0.0,0.0,0.0,0.0,0.0,0.0,0.0,0.0,0.0,0.0,0.0,0.0,0.0,0.0,0.0,0.0,0.0,0.0,0.0,0.0,0.0,0.0,0.0,0.0,0.0,0.0,0.0,0.0,0.0,0.0,0.0,0.0,0.0,0.0,0.0,0.0,0.0,0.0,0.0,0.0,0.0,0.0,0.0,-0.0483,-0.0943,-0.1435,-0.2583,-0.3494,0.0,0.0,0.0,0.0,0.0,0.0,0.0,0.0,0.0,0.0,0.0,0.0,0.0,0.0,0.0,0.0,0.0,0.0,0.0,0.0,0.0,0.0,0.0,0.0,0.0,0.0,0.0,0.0,0.0,0.0,0.0,0.0,0.0,0.0,0.0,0.0,0.0,0.0,0.0,0.0,0.0,0.0,0.0,0.0,0.0,0.0,0.0,0.0,0.0,0.0,0.0,0.0,0.0,0.0,0.0,0.0,0.0,0.0,0.0,0.0,0.0,0.0,0.0,0.0,0.0,0.0,0.0,0.0,0.0,0.0,0.0,0.0,0.0,0.0,0.0,0.0,0.0,0.0,0.0,0.0,0.0,0.0,0.0,0.0,0.0,0.0,0.0,0.0,0.0,0.0,0.0,0.0,0.0,0.0,0.0,0.0,0.0,0.0,0.0,0.0,0.0,0.0,0.0,0.0,0.0,0.0,0.0,0.0,0.0,-0.0264,-0.0587,-0.1146,-0.1923,-0.2813,-0.3631,0.0,0.0,0.0,0.0,0.0,0.0,0.0,0.0,0.0,0.0,0.0,0.0,0.0,0.0,0.0,0.0,0.0,0.0,0.0,0.0,0.0,0.0,0.0,0.0,0.0,0.0,0.0,0.0,0.0,0.0,0.0,0.0,0.0,0.0,0.0,0.0,0.0,0.0,0.0,0.0,0.0,0.0,0.0,0.0,0.0,0.0,0.0,0.0,0.0,0.0,0.0,0.0,0.0,0.0,0.0,0.0,0.0,0.0,0.0,0.0,0.0,0.0,0.0,0.0,0.0,0.0,0.0,0.0,0.0,0.0,0.0,0.0,0.0,0.0,0.0,0.0,0.0,0.0,0.0,0.0,0.0,0.0,0.0,0.0,0.0,0.0,0.0,0.0,0.0,0.0,0.0,0.0,0.0,0.0,0.0,0.0,0.0,0.0,0.0,0.0,0.0,0.0,0.0,0.0,0.0,0.0,0.0,0.0,0.0,-0.088,-0.0933,-0.1352,-0.2176,-0.3019,-0.3787,-0.4472,0.0,0.0,0.0,0.0,0.0,0.0,0.0,0.0,0.0,0.0,0.0,0.0,0.0,0.0,0.0,0.0,0.0,0.0,0.0,0.0,0.0,0.0,0.0,0.0,0.0,0.0,0.0,0.0,0.0,0.0,0.0,0.0,0.0,0.0,0.0,0.0,0.0,0.0,0.0,0.0,0.0,0.0,0.0,0.0,0.0,0.0,0.0,0.0,0.0,0.0,0.0,0.0,0.0,0.0,0.0,0.0,0.0,0.0,0.0,0.0,0.0,0.0,0.0,0.0,0.0,0.0,0.0,0.0,0.0,0.0,0.0,0.0,0.0,0.0,0.0,0.0,0.0,0.0,0.0,0.0,0.0,0.0,0.0,0.0,0.0,0.0,0.0,0.0,0.0,0.0,0.0,0.0,0.0,0.0,0.0,0.0,0.0,0.0,0.0,0.0,0.0,0.0,0.0,0.0,0.0,0.0,0.0,0.0,-0.1716,-0.1402,-0.1615,-0.2282,-0.3264,-0.4019,0.0,0.0,0.0,0.0,0.0,0.0,0.0,0.0,0.0,0.0,0.0,0.0,0.0,0.0,0.0,0.0,0.0,0.0,0.0,0.0,0.0,0.0,0.0,0.0,0.0,0.0,0.0,0.0,0.0,0.0,0.0,0.0,0.0,0.0,0.0,0.0,0.0,0.0,0.0,0.0,0.0,0.0,0.0,0.0,0.0,0.0,0.0,0.0,0.0,0.0,0.0,0.0,0.0,0.0,0.0,0.0,0.0,0.0,0.0,0.0,0.0,0.0,0.0,0.0,0.0,0.0,0.0,0.0,0.0,0.0,0.0,0.0,0.0,0.0,0.0,0.0,0.0,0.0,0.0,0.0,0.0,0.0,0.0,0.0,0.0,0.0,0.0,0.0,0.0,0.0,0.0,0.0,0.0,0.0,0.0,0.0,0.0,0.0,0.0,0.0,0.0,0.0,0.0,0.0,0.0,0.0,0.0,0.0,0.0,-0.1667,-0.2058,-0.2666,-0.3501,-0.4178,-0.475,0.0,0.0,0.0,0.0,0.0,0.0,0.0,0.0,0.0,0.0,0.0,0.0,0.0,0.0,0.0,0.0,0.0,0.0,0.0,0.0,0.0,0.0,0.0,0.0,0.0,0.0,0.0,0.0,0.0,0.0,0.0,0.0,0.0,0.0,0.0,0.0,0.0,0.0,0.0,0.0,0.0,0.0,0.0,0.0,0.0,0.0,0.0,0.0,0.0,0.0,0.0,0.0,0.0,0.0,0.0,0.0,0.0,0.0,0.0,0.0,0.0,0.0,0.0,0.0,0.0,0.0,0.0,0.0,0.0,0.0,0.0,0.0,0.0,0.0,0.0,0.0,0.0,0.0,0.0,0.0,0.0,0.0,0.0,0.0,0.0,0.0,0.0,0.0,0.0,0.0,0.0,0.0,0.0,0.0,0.0,0.0,0.0,0.0,0.0,0.0,0.0,0.0,0.0,0.0,0.0,0.0,0.0,0.0,-0.1332,-0.2059,-0.2791,-0.3598,-0.4536,-0.4846,-0.5173,0.0,0.0,0.0,0.0,0.0,0.0,0.0,0.0,0.0,0.0,0.0,0.0,0.0,0.0,0.0,0.0,0.0,0.0,0.0,0.0,0.0,0.0,0.0,0.0,0.0,0.0,0.0,0.0,0.0,0.0,0.0,0.0,0.0,0.0,0.0,0.0,0.0,0.0,0.0,0.0,0.0,0.0,0.0,0.0,0.0,0.0,0.0,0.0,0.0,0.0,0.0,0.0,0.0,0.0,0.0,0.0,0.0,0.0,0.0,0.0,0.0,0.0,0.0,0.0,0.0,0.0,0.0,0.0,0.0,0.0,0.0,0.0,0.0,0.0,0.0,0.0,0.0,0.0,0.0,0.0,0.0,0.0,0.0,0.0,0.0,0.0,0.0,0.0,0.0,0.0,0.0,0.0,0.0,0.0,0.0,0.0,0.0,0.0,0.0,0.0,0.0,0.0,0.0,0.0,0.0,0.0,0.0,0.0,-0.1685,-0.2581,-0.3419,-0.435,-0.5288,-0.5363,-0.5484,0.0,0.0,0.0,0.0,0.0,0.0,0.0,0.0,0.0,0.0,0.0,0.0,0.0,0.0,0.0,0.0,0.0,0.0,0.0,0.0,0.0,0.0,0.0,0.0,0.0,0.0,0.0,0.0,0.0,0.0,0.0,0.0,0.0,0.0,0.0,0.0,0.0,0.0,0.0,0.0,0.0,0.0,0.0,0.0,0.0,0.0,0.0,0.0,0.0,0.0,0.0,0.0,0.0,0.0,0.0,0.0,0.0,0.0,0.0,0.0,0.0,0.0,0.0,0.0,0.0,0.0,0.0,0.0,0.0,0.0,0.0,0.0,0.0,0.0,0.0,0.0,0.0,0.0,0.0,0.0,0.0,0.0,0.0,0.0,0.0,0.0,0.0,0.0,0.0,0.0,0.0,0.0,0.0,0.0,0.0,0.0,0.0,0.0,0.0,0.0,0.0,0.0,0.0,0.0,0.0,0.0,0.0,0.0,-0.1793,-0.2483,-0.3149,-0.3958,-0.4998,-0.5914,-0.6379,0.0,0.0,0.0,0.0,0.0,0.0,0.0,0.0,0.0,0.0,0.0,0.0,0.0,0.0,0.0,0.0,0.0,0.0,0.0,0.0,0.0,0.0,0.0,0.0,0.0,0.0,0.0,0.0,0.0,0.0,0.0,0.0,0.0,0.0,0.0,0.0,0.0,0.0,0.0,0.0,0.0,0.0,0.0,0.0,0.0,0.0,0.0,0.0,-0.73,0.0,0.0,0.0,0.0,0.0,0.0,0.0,0.0,0.0,0.0,0.0,0.0,0.0,0.0,0.0,0.0,0.0,0.0,0.0,0.0,0.0,0.0,0.0,0.0,0.0,0.0,0.0,0.0,0.0,0.0,0.0,0.0,0.0,0.0,0.0,0.0,0.0,0.0,0.0,0.0,0.0,0.0,0.0,0.0,0.0,0.0,0.0,0.0,0.0,0.0,0.0,0.0,0.0,0.0,0.0,0.0,0.0,0.0,0.0,-0.1757,-0.2296,-0.3145,-0.3988,-0.4914,-0.6044,-0.6587,0.0,0.0,0.0,0.0,0.0,0.0,0.0,0.0,0.0,0.0,0.0,0.0,0.0,0.0,0.0,0.0,0.0,0.0,0.0,0.0,0.0,0.0,0.0,0.0,0.0,0.0,0.0,0.0,0.0,0.0,0.0,0.0,0.0,0.0,0.0,0.0,0.0,0.0,0.0,0.0,0.0,0.0,0.0,0.0,0.0,0.0,0.0,0.0,0.0,0.0,0.0,0.0,0.0,0.0,0.0,0.0,0.0,0.0,0.0,0.0,0.0,0.0,0.0,0.0,0.0,0.0,0.0,0.0,0.0,0.0,0.0,0.0,0.0,0.0,0.0,0.0,0.0,0.0,0.0,0.0,0.0,0.0,0.0,0.0,0.0,0.0,0.0,0.0,0.0,0.0,0.0,0.0,0.0,0.0,0.0,0.0,0.0,0.0,0.0,0.0,0.0,0.0,0.0,0.0,0.0,0.0,0.0,-0.1636,-0.1714,-0.2111,-0.3096,-0.4018,-0.4724,-0.5805,-0.6302,-0.6201,0.0,0.0,0.0,0.0,0.0,0.0,0.0,0.0,0.0,0.0,0.0,0.0,0.0,0.0,0.0,0.0,0.0,0.0,0.0,0.0,0.0,0.0,0.0,0.0,0.0,0.0,0.0,0.0,0.0,0.0,0.0,0.0,0.0,0.0,0.0,0.0,0.0,0.0,-0.5599,-0.5895,0.0,0.0,0.0,0.0,0.0,0.0,0.0,0.0,-0.8596,0.0,0.0,0.0,0.0,0.0,0.0,0.0,0.0,0.0,0.0,0.0,0.0,0.0,0.0,0.0,0.0,0.0,0.0,0.0,0.0,0.0,0.0,0.0,0.0,0.0,0.0,0.0,0.0,0.0,0.0,0.0,0.0,0.0,0.0,0.0,0.0,0.0,0.0,0.0,0.0,0.0,0.0,0.0,0.0,0.0,0.0,0.0,0.0,0.0,0.0,0.0,0.0,0.0,0.0,0.0,0.0,-0.2062,-0.1682,-0.1656,-0.2028,-0.2636,-0.3318,-0.4055,-0.4934,-0.5483,-0.5635,0.0,0.0,0.0,0.0,0.0,0.0,0.0,0.0,0.0,0.0,0.0,0.0,0.0,0.0,0.0,0.0,0.0,0.0,0.0,0.0,0.0,0.0,0.0,0.0,0.0,0.0,0.0,0.0,0.0,0.0,0.0,0.0,0.0,0.0,0.0,0.0,0.0,0.0,0.0,-0.6132,-0.6489,0.0,0.0,0.0,0.0,0.0,0.0,0.0,0.0,-0.9431,0.0,0.0,0.0,0.0,0.0,0.0,0.0,0.0,0.0,0.0,0.0,0.0,0.0,0.0,0.0,0.0,0.0,0.0,0.0,0.0,0.0,0.0,0.0,0.0,0.0,0.0,0.0,0.0,0.0,0.0,0.0,0.0,0.0,0.0,0.0,0.0,0.0,0.0,0.0,0.0,0.0,0.0,0.0,0.0,0.0,0.0,0.0,0.0,0.0,0.0,0.0,0.0,0.0,0.0,0.0,-0.1673,-0.1441,-0.1361,-0.1564,-0.212,-0.275,-0.3482,-0.4286,-0.4915,0.0,0.0,0.0,0.0,0.0,0.0,0.0,0.0,0.0,0.0,0.0,0.0,0.0,0.0,0.0,0.0,0.0,0.0,0.0,0.0,0.0,0.0,0.0,0.0,0.0,0.0,0.0,0.0,0.0,0.0,0.0,0.0,0.0,0.0,0.0,0.0,0.0,0.0,0.0,0.0,-0.6237,-0.6622,-0.6905,0.0,0.0,0.0,0.0,0.0,0.0,-0.9285,-0.9823,0.0,0.0,0.0,0.0,0.0,0.0,0.0,0.0,0.0,0.0,0.0,0.0,0.0,0.0,0.0,0.0,0.0,0.0,0.0,0.0,0.0,0.0,0.0,0.0,0.0,0.0,0.0,0.0,0.0,0.0,0.0,0.0,0.0,0.0,0.0,0.0,0.0,0.0,0.0,0.0,0.0,0.0,0.0,0.0,0.0,0.0,0.0,0.0,0.0,0.0,0.0,0.0,0.0,0.0,0.0,-0.1301,-0.1156,-0.107,-0.1159,-0.1665,-0.2196,-0.283,-0.3673,-0.4297,0.0,0.0,0.0,0.0,0.0,0.0,0.0,0.0,0.0,0.0,0.0,0.0,0.0,0.0,0.0,0.0,0.0,0.0,0.0,0.0,0.0,0.0,0.0,0.0,0.0,0.0,0.0,0.0,0.0,0.0,0.0,0.0,0.0,0.0,0.0,0.0,0.0,0.0,0.0,0.0,0.0,-0.6705,-0.7181,-0.7407,0.0,0.0,0.0,0.0,-0.9133,-0.9719,0.0,0.0,0.0,0.0,0.0,0.0,0.0,0.0,0.0,0.0,0.0,0.0,0.0,0.0,0.0,0.0,0.0,0.0,0.0,0.0,0.0,0.0,0.0,0.0,0.0,0.0,0.0,0.0,0.0,0.0,0.0,0.0,0.0,0.0,0.0,0.0,0.0,0.0,0.0,0.0,0.0,0.0,0.0,0.0,0.0,0.0,0.0,0.0,0.0,0.0,0.0,0.0,0.0,0.0,0.0,0.0,-0.1301,-0.0971,-0.0875,-0.0857,-0.1364,-0.1739,-0.1965,-0.2901,-0.3517,0.0,0.0,0.0,0.0,0.0,0.0,0.0,0.0,0.0,0.0,0.0,0.0,0.0,0.0,0.0,0.0,0.0,0.0,0.0,0.0,0.0,0.0,0.0,0.0,0.0,0.0,0.0,0.0,0.0,0.0,0.0,0.0,0.0,0.0,0.0,0.0,0.0,0.0,0.0,0.0,0.0,-0.6944,-0.7712,-0.7923,-0.8249,0.0,0.0,-0.945,-0.9737,-1.038,0.0,0.0,0.0,0.0,0.0,0.0,0.0,0.0,0.0,0.0,0.0,0.0,0.0,0.0,0.0,0.0,0.0,0.0,0.0,0.0,0.0,0.0,0.0,0.0,0.0,0.0,0.0,0.0,0.0,0.0,0.0,0.0,0.0,0.0,0.0,0.0,0.0,0.0,0.0,0.0,0.0,0.0,0.0,0.0,0.0,0.0,0.0,0.0,0.0,0.0,0.0,0.0,0.0,0.0,0.0,-0.0778,-0.0725,-0.0644,-0.0583,-0.0554,-0.0808,-0.1141,-0.1624,-0.222,-0.2752,0.0,0.0,0.0,0.0,0.0,0.0,0.0,0.0,0.0,0.0,0.0,0.0,0.0,0.0,0.0,0.0,0.0,0.0,0.0,0.0,0.0,0.0,0.0,0.0,0.0,0.0,0.0,0.0,0.0,0.0,0.0,0.0,0.0,0.0,0.0,0.0,0.0,0.0,0.0,0.0,0.0,0.0,-0.7678,-0.8037,0.0,0.0,0.0,-0.944,-1.0003,0.0,0.0,0.0,0.0,0.0,0.0,0.0,0.0,0.0,0.0,0.0,0.0,0.0,0.0,0.0,0.0,0.0,0.0,0.0,0.0,0.0,0.0,0.0,0.0,0.0,0.0,0.0,0.0,0.0,0.0,0.0,0.0,0.0,0.0,0.0,0.0,0.0,0.0,0.0,0.0,0.0,0.0,0.0,0.0,0.0,0.0,0.0,0.0,0.0,0.0,0.0,0.0,0.0,0.0,0.0,0.0,0.0,-0.0292,-0.0318,-0.0289,-0.0301,-0.0353,-0.0645,-0.1193,-0.1605,0.0,0.0,0.0,0.0,0.0,0.0,0.0,0.0,0.0,0.0,0.0,0.0,0.0,0.0,0.0,0.0,0.0,0.0,0.0,0.0,0.0,0.0,0.0,0.0,0.0,0.0,0.0,-0.4491,0.0,0.0,0.0,0.0,0.0,0.0,0.0,0.0,0.0,0.0,0.0,0.0,0.0,0.0,-0.7138,-0.7696,-0.8063,-0.8415,0.0,0.0,-0.9588,-1.0239,-1.0796,-1.1347,0.0,0.0,0.0,0.0,0.0,0.0,0.0,0.0,0.0,0.0,0.0,0.0,0.0,0.0,0.0,0.0,0.0,0.0,0.0,0.0,0.0,0.0,0.0,0.0,0.0,0.0,0.0,0.0,0.0,0.0,0.0,0.0,0.0,0.0,0.0,0.0,0.0,0.0,0.0,0.0,0.0,0.0,0.0,0.0,0.0,0.0,0.0,0.0,0.0,0.0,0.0,0.0,0.0,0.0,0.0,-0.0285,-0.0133,0.0,0.0,-0.025,-0.0446,-0.0477,-0.1054,-0.1507,0.0,0.0,0.0,0.0,0.0,0.0,0.0,0.0,0.0,0.0,0.0,0.0,0.0,0.0,0.0,0.0,0.0,0.0,0.0,0.0,0.0,0.0,0.0,0.0,0.0,0.0,0.0,0.0,0.0,0.0,0.0,0.0,0.0,0.0,0.0,0.0,0.0,0.0,0.0,0.0,0.0,-0.7173,-0.7891,-0.8094,-0.8437,0.0,0.0,-1.0121,-1.0657,-1.1435,-1.2074,-1.2496,0.0,0.0,0.0,0.0,0.0,0.0,0.0,0.0,0.0,0.0,0.0,0.0,0.0,0.0,0.0,0.0,0.0,0.0,0.0,0.0,0.0,0.0,0.0,0.0,0.0,0.0,0.0,0.0,0.0,0.0,0.0,0.0,0.0,0.0,0.0,0.0,0.0,0.0,0.0,0.0,0.0,0.0,0.0,0.0,0.0,0.0,0.0,0.0,0.0,0.0,0.0,0.0,0.0,-0.0074,-0.0122,-0.0044,0.0,0.0,-0.0099,-0.0245,-0.0382,-0.0724,-0.1062,0.0,0.0,0.0,0.0,0.0,0.0,0.0,0.0,0.0,0.0,0.0,0.0,0.0,0.0,0.0,0.0,0.0,0.0,0.0,0.0,0.0,0.0,0.0,0.0,0.0,0.0,0.0,0.0,-0.4491,-0.4491,-0.4491,0.0,0.0,0.0,0.0,0.0,0.0,0.0,0.0,0.0,0.0,-0.7344,-0.7704,-0.809,0.0,0.0,-0.9377,-1.0043,-1.0895,-1.1447,-1.197,-1.2525,-1.2721,0.0,0.0,0.0,0.0,0.0,0.0,0.0,0.0,0.0,0.0,0.0,0.0,0.0,0.0,0.0,0.0,0.0,0.0,0.0,0.0,0.0,0.0,0.0,0.0,0.0,0.0,0.0,0.0,0.0,0.0,0.0,0.0,0.0,0.0,0.0,0.0,0.0,0.0,0.0,0.0,0.0,0.0,0.0,0.0,0.0,0.0,0.0,0.0,0.0,0.0,0.0,0.0,0.0,0.0,0.0,0.0,0.0,0.0,-0.0096,-0.0283,-0.0403,-0.0716,0.0,0.0,0.0,0.0,0.0,0.0,0.0,0.0,0.0,0.0,0.0,0.0,0.0,0.0,0.0,0.0,0.0,0.0,0.0,0.0,0.0,0.0,0.0,0.0,0.0,0.0,0.0,0.0,-0.4491,-0.4508,-0.4552,0.0,0.0,0.0,0.0,0.0,0.0,0.0,0.0,0.0,0.0,-0.7487,-0.7638,-0.807,-0.8531,-0.8775,-0.9324,-1.0019,-1.0949,-1.1419,-1.1932,-1.2551,0.0,0.0,0.0,0.0,0.0,0.0,0.0,0.0,0.0,0.0,0.0,0.0,0.0,0.0,0.0,0.0,0.0,0.0,0.0,0.0,0.0,0.0,0.0,0.0,0.0,0.0,0.0,0.0,0.0,0.0,0.0,0.0,0.0,0.0,0.0,0.0,0.0,0.0,0.0,0.0,0.0,0.0,0.0,0.0,0.0,0.0,0.0,0.0,0.0,0.0,0.0,0.0,0.0,0.0,0.0,0.0,0.0,0.0,0.0,0.0,0.0,-0.0222,-0.0379,-0.055,0.0,0.0,0.0,0.0,0.0,0.0,0.0,0.0,0.0,0.0,0.0,0.0,0.0,0.0,0.0,0.0,0.0,0.0,0.0,0.0,0.0,0.0,0.0,0.0,0.0,0.0,-0.4491,-0.4491,-0.4552,0.0,0.0,0.0,0.0,0.0,0.0,0.0,0.0,0.0,0.0,-0.7265,-0.7482,-0.7767,-0.8133,-0.8482,-0.8775,-0.9472,-1.0167,-1.0703,-1.1447,-1.213,0.0,0.0,0.0,0.0,0.0,0.0,0.0,0.0,0.0,0.0,0.0,0.0,0.0,0.0,0.0,0.0,0.0,0.0,0.0,0.0,0.0,0.0,0.0,0.0,0.0,0.0,0.0,0.0,0.181,0.0,0.0,0.0,0.0,0.0,0.0,0.0,0.0,0.0,0.0,0.0,0.0,0.0,0.0,0.0,0.0,0.0,0.0,0.0,0.0,0.0,0.0,0.0,0.0,0.0,0.0,0.0,0.0,0.0,0.0,0.0,0.0,0.0,-0.0044,-0.0203,-0.0439,0.0,0.0,0.0,0.0,0.0,0.0,0.0,0.0,0.0,0.0,0.0,0.0,0.0,0.0,0.0,0.0,0.0,0.0,0.0,0.0,0.0,0.0,0.0,0.0,0.0,-0.4491,0.0,0.0,0.0,0.0,0.0,0.0,0.0,0.0,0.0,0.0,0.0,-0.6814,-0.7058,-0.7441,-0.7702,-0.7797,-0.7989,-0.8283,0.0,0.0,0.0,0.0,0.0,0.0,0.0,0.0,0.0,0.0,0.0,0.0,0.0,0.0,-1.3006,-1.2455,-1.2144,-1.2011,-1.1968,0.0,0.0,0.0,0.0,0.0,0.0,0.0,0.0,0.0,0.0,0.0,0.0,0.0,0.0,0.0,0.0,0.2407,0.0,0.0,0.0,0.0,0.0,0.0,0.0,0.0,0.0164,0.0084,0.0,0.0,0.0,0.0,0.0,0.0,0.0,0.0,0.0,0.0,0.0,0.0,0.0,0.0,0.0,0.0,0.0,0.0,0.0,0.0,0.0,0.0,0.0,-0.0118,-0.0361,-0.0655,-0.0919,0.0,0.0,0.0,0.0,0.0,0.0,0.0,0.0,0.0,0.0,0.0,0.0,0.0,0.0,0.0,0.0,0.0,0.0,0.0,0.0,0.0,0.0,0.0,-0.4482,0.0,0.0,0.0,0.0,0.0,0.0,0.0,0.0,0.0,-0.6446,-0.6756,-0.7051,-0.7297,-0.7628,-0.7828,-0.7885,0.0,0.0,0.0,0.0,0.0,0.0,0.0,-1.1594,-1.2047,-1.2834,-1.3525,-1.3979,-1.4352,-1.4588,-1.4625,0.0,0.0,-1.34,-1.2973,-1.2766,-1.2734,-1.2734,-1.2734,-1.2727,-1.3006,-1.3219,0.0,0.0,0.0,0.0,0.0,0.0,0.0,0.0,0.3739,0.3837,0.0,0.3483,0.0,0.0,0.0,0.0,0.0,0.0,0.0,0.0,0.0432,0.0265,0.0045,0.0,0.0,0.0,0.0,0.0,0.0,0.0,0.0,0.0,0.0,0.0,0.0,0.0,0.0,0.0,0.0,0.0,0.0,0.0,0.0,0.0,0.0,-0.0078,-0.0303,-0.0247,-0.0337,-0.0671,-0.0632,0.0,0.0,0.0,0.0,0.0,0.0,0.0,0.0,0.0,0.0,0.0,0.0,0.0,0.0,0.0,0.0,0.0,0.0,0.0,0.0,-0.4295,0.0,0.0,0.0,0.0,0.0,0.0,0.0,0.0,0.0,0.0,-0.6712,-0.698,-0.727,-0.7746,0.0,0.0,0.0,0.0,-0.8382,-0.8382,-0.9031,-0.9529,-0.9575,-1.0458,-1.1225,-1.1554,0.0,0.0,-1.4437,-1.4624,-1.472,-1.4997,-1.5042,-1.481,-1.4249,-1.3853,-1.3646,-1.364,-1.3646,-1.3646,-1.366,-1.3895,-1.4015,0.5157,0.0,0.0,0.0,0.0,0.4162,0.4531,0.4851,0.5196,0.5361,0.5369,0.4699,0.0,0.0,0.0,0.0,0.0,0.0,0.1588,0.1192,0.1052,0.0746,0.0281,0.0281,0.0186,0.0,0.0,0.0,0.0,0.0,0.0,0.0,0.0,0.0,0.0,0.0,0.0,0.0,0.0,0.0,0.0,0.0,0.0,0.0,0.0,-0.004,-0.0076,-0.0182,-0.0315,-0.0337,-0.0471,0.0,0.0,0.0,0.0,0.0,0.0,0.0,0.0,0.0,0.0,0.0,0.0,0.0,0.0,0.0,0.0,0.0,0.0,0.0,-0.4035,-0.4165,-0.4375,0.0,0.0,0.0,0.0,0.0,0.0,0.0,0.0,0.0,-0.716,-0.735,-0.7553,0.0,0.0,-0.7941,-0.7982,-0.8091,-0.8187,-0.8382,0.0,0.0,0.0,-1.0019,-1.0587,-1.1215,-1.2448,-1.3677,-1.4512,-1.4969,-1.5297,-1.5531,-1.5585,-1.5518,-1.5357,-1.4923,-1.4603,-1.4583,-1.4583,-1.4583,-1.4596,-1.47,-1.4689,0.6586,0.5813,0.5242,0.5,0.5007,0.5432,0.572,0.5855,0.6182,0.6374,0.6397,0.5758,0.5445,0.531,0.4624,0.0,0.0,0.0,0.2534,0.2001,0.1764,0.1307,0.0731,0.0726,0.0525,0.014,0.0138,0.009,0.0,0.0,0.0,0.0,0.0,0.0,0.0,0.0,0.0,0.0,0.0,0.0,0.0,0.0,0.0,0.0,0.0,0.0,0.0,-0.0111,-0.0179,-0.0137,-0.0225,-0.0332,0.0,0.0,0.0,0.0,0.0,0.0,0.0,0.0,0.0,0.0,0.0,-0.2493,-0.268,0.0,0.0,0.0,-0.329,-0.3529,-0.3753,-0.3967,0.0,0.0,0.0,0.0,0.0,0.0,0.0,-0.6712,-0.7031,-0.7312,-0.7519,-0.7624,-0.774,-0.7885,-0.7931,-0.7988,-0.7988,0.0,-0.8041,-0.8187,-0.8333,-0.8581,-0.908,-0.9525,-1.0212,-1.1345,-1.2506,-1.3667,-1.4538,-1.507,-1.5458,-1.573,-1.5825,-1.5825,-1.5825,-1.5538,-1.5257,-1.5157,-1.5182,-1.513,-1.5176,-1.5269,-1.5277,0.7646,0.7574,0.6687,0.6306,0.6306,0.649,0.6652,0.6754,0.693,0.7082,0.7124,0.6683,0.6474,0.6411,0.5666,0.0,0.0,0.4168,0.3595,0.2942,0.2651,0.2084,0.1312,0.1288,0.102,0.0429,0.0467,0.0318,0.0087,0.0,0.0,0.0042,0.0,0.0,0.0,0.0,0.0,0.0,0.0,0.0,0.0,0.0,0.0,0.0,0.0,0.0,0.0,0.0,0.0,0.0,0.0,-0.0061,-0.0177,0.0,0.0,0.0,0.0,0.0,0.0,0.0,0.0,0.0,0.0,0.0,0.0,0.0,0.0,0.0,-0.2799,0.0,-0.3262,-0.3796,0.0,0.0,0.0,-0.5925,-0.6451,-0.6661,-0.6865,-0.7098,0.0,0.0,0.0,0.0,-0.7882,-0.7971,-0.7988,-0.7988,-0.7988,-0.7988,-0.7988,-0.7988,-0.8184,-0.8382,-0.8482,-0.9126,-1.0068,-1.1492,-1.2516,-1.3389,-1.4352,-1.4885,-1.5267,-1.5683,-1.5784,-1.5825,-1.5825,-1.5751,-1.5745,-1.5471,-1.5431,-1.5424,-1.5438,-1.5618,-1.5644,0.7892,0.7885,0.7668,0.7343,0.6996,0.7245,0.7365,0.739,0.7658,0.7756,0.7776,0.7405,0.708,0.6745,0.6383,0.615,0.599,0.5367,0.4802,0.4262,0.3829,0.3062,0.2116,0.2078,0.1651,0.1048,0.0981,0.0776,0.0535,0.0401,0.0311,0.0309,0.0088,0.0,0.0,0.0,0.0,0.0,0.0,0.0,0.0,0.0,0.0,0.0,0.0,0.0,0.0,0.0,0.0,0.0,0.0,-0.0031,-0.0061,-0.0056,0.0,0.0,0.0,0.0,0.0,0.0,0.0,0.0,0.0,-0.1575,-0.1801,0.0,-0.1896,0.0,-0.2301,-0.2757,-0.323,-0.3685,0.0,0.0,-0.5651,-0.6204,-0.6698,-0.7031,-0.7282,-0.7468,-0.7617,-0.7733,-0.7804,-0.7913,-0.7951,-0.7985,-0.7988,-0.7988,-0.7988,-0.7988,-0.7988,-0.7988,-0.8038,-0.8187,-0.8432,-0.908,-0.9871,-1.0659,-1.178,-1.2851,-1.3667,-1.4544,-1.5226,-1.5493,-1.5683,-1.5778,-1.5784,-1.5825,-1.5812,-1.5738,-1.5678,-1.5725,-1.5732,-1.5731,-1.5698,0.7988,0.7988,0.7988,0.7839,0.7537,0.7743,0.7793,0.7793,0.7942,0.7988,0.7982,0.7806,0.7628,0.7359,0.7115,0.697,0.6927,0.6358,0.5797,0.5257,0.486,0.4162,0.3235,0.3077,0.2635,0.1974,0.1705,0.1452,0.1167,0.0852,0.0718,0.0673,0.0449,0.0311,0.0304,0.0088,0.0,0.0,0.0,0.0,0.0,0.0,0.0,0.0,0.0,0.0,0.0,0.0,0.0,0.0,0.0,0.0,0.0,0.0,0.0,0.0,0.0,0.0,0.0,0.0,0.0,0.0,0.0,0.0,0.0,0.0,-0.1363,0.0,-0.1838,0.0,-0.2918,-0.3421,-0.4044,-0.5029,-0.5749,-0.6389,-0.6914,-0.734,-0.76,-0.7685,-0.7821,-0.7913,-0.7916,-0.7987,-0.7988,-0.7988,-0.7988,-0.7988,-0.7988,-0.7988,-0.7988,-0.7988,-0.7988,-0.8088,-0.8333,-0.8981,-0.9628,-1.031,-1.1438,-1.2511,-1.3372,-1.4202,-1.4885,-1.5261,-1.5499,-1.5635,-1.5683,-1.5778,-1.5825,-1.5825,-1.5825,-1.5825,-1.5825,-1.5732,-1.5578,0.7988,0.7988,0.7988,0.7988,0.7988,0.7988,0.7988,0.7988,0.7988,0.7988,0.7988,0.7988,0.7988,0.7988,0.7743,0.7646,0.7593,0.7144,0.6642,0.6142,0.5889,0.5334,0.4506,0.4225,0.372,0.3093,0.2627,0.2242,0.1973,0.1524,0.1256,0.1211,0.0987,0.0807,0.0762,0.0359,0.009,0.0,0.0,0.0,0.0,0.0,0.0,0.0,0.0,0.0,0.0,0.0,0.0,0.0,0.0,0.0,0.0,0.0,0.0,0.0,0.0,0.0,0.0,0.0,0.0,0.0,0.0,0.0,0.0,-0.0665,-0.0907,-0.1294,-0.1408,-0.1763,-0.2465,-0.3027,-0.3827,-0.486,-0.5743,-0.6461,-0.7042,-0.751,-0.7789,-0.7793,-0.7907,-0.7988,-0.7985,-0.7988,-0.7988,-0.7988,-0.7988,-0.7988,-0.7988,-0.7988,-0.7988,-0.7988,-0.7988,-0.8088,-0.8333,-0.8733,-0.9327,-1.0117,-1.1096,-1.217,-1.3082,-1.3763,-1.4346,-1.4879,-1.5213,-1.5397,-1.5452,-1.5594,-1.5737,-1.573,-1.569,-1.5657,-1.5684,-1.5578,-1.5384,0.7988,0.7988,0.7988,0.7988,0.7988,0.7988,0.7988,0.7988,0.7988,0.7988,0.7988,0.7988,0.7988,0.7988,0.7942,0.7942,0.7892,0.7596,0.7291,0.6989,0.6692,0.6179,0.5528,0.5231,0.4757,0.411,0.3576,0.3183,0.2913,0.2464,0.2152,0.1974,0.175,0.148,0.0,0.0,0.0,0.0,0.0,0.0,0.0,0.0,0.0,0.0,0.0,0.0,0.0,0.0,0.0,0.0,0.0,0.0,0.0,0.0,0.0,0.0,0.0,0.0,0.0,0.0,0.0,0.0,-0.007,-0.0214,-0.0468,-0.06,-0.0662,-0.0761,-0.1106,-0.1519,-0.1931,-0.2748,-0.3527,-0.4217,-0.531,-0.6203,-0.6713,-0.7269,-0.7704,-0.7948,-0.7975,-0.7988,-0.7988,-0.7988,-0.7988,-0.7988,-0.7988,-0.7988,-0.7988,-0.7988,-0.7988,-0.7988,-0.7988,-0.7988,-0.8038,-0.8333,-0.8786,-0.9381,-1.0314,-1.1292,-1.217,-1.3082,-1.3811,-1.4346,-1.4688,-1.4933,-1.5131,-1.5226,-1.5296,-1.5499,-1.535,-1.5232,-1.5431,-1.5431,-1.5251,0.8109,0.0,0.7988,0.7988,0.0,0.0,0.7988,0.7988,0.7988,0.7988,0.7988,0.7988,0.7988,0.7988,0.7988,0.7988,0.7988,0.7842,0.764,0.7388,0.7174,0.6827,0.6266,0.5959,0.5611,0.5229,0.4591,0.4208,0.4072,0.3491,0.3135,0.3048,0.2689,0.242,0.2285,0.1819,0.118,0.0343,0.0254,0.0166,0.016,0.004,0.0,0.0,0.0,0.0,0.0,0.0,0.0,0.0,0.0,0.0,0.0,0.0,0.0,0.0,0.0,0.0,0.0,0.0,0.0,0.0,0.0,-0.0077,-0.0227,-0.0277,-0.037,-0.0504,-0.0723,-0.1045,-0.1632,-0.2207,-0.2948,-0.3753,-0.4761,-0.561,-0.6306,-0.7,-0.749,-0.7793,-0.7892,-0.7988,-0.7988,-0.7988,-0.7988,-0.7988,-0.7988,-0.7988,-0.7988,-0.7988,-0.7988,-0.7988,-0.7988,-0.7988,-0.8038,-0.8237,-0.8535,-0.9031,-0.9768,-1.0605,-1.1296,-1.217,-1.2894,-1.3335,-1.3769,-1.4154,-1.4286,-1.4541,-1.4779,-1.4841,-1.4777,-1.4618,-1.4643,-1.4777,-1.489,0.818,0.7992,0.7988,0.7988,0.7988,0.7988,0.7988,0.7988,0.0,0.0,0.0,0.7988,0.7988,0.7988,0.7988,0.7988,0.7988,0.7988,0.7892,0.7637,0.7544,0.7257,0.6932,0.6568,0.6346,0.6174,0.5547,0.5186,0.5188,0.4518,0.4206,0.4117,0.3717,0.3448,0.3312,0.2678,0.1935,0.1137,0.0713,0.0451,0.0433,0.0196,0.0118,0.0118,0.0077,0.0037,0.0037,0.0036,0.0,0.0,0.0,0.0,0.0,0.0,0.0,0.0,0.0,0.0,0.0,0.0,0.0,0.0,0.0,0.0,0.0,0.0,-0.0086,-0.0306,-0.0394,-0.0668,-0.1251,-0.1699,-0.2262,-0.3143,-0.4042,-0.4883,-0.5689,-0.6489,-0.7089,-0.7444,-0.7739,-0.7942,-0.7988,-0.7988,-0.7988,-0.7988,-0.7988,-0.7988,-0.7988,-0.7988,-0.7988,-0.7988,-0.7988,-0.7988,-0.8038,-0.8137,-0.8432,-0.8676,-0.9324,-0.9969,-1.0556,-1.1243,-1.1829,-1.2268,-1.2791,-1.3102,-1.325,-1.3531,-1.3894,-1.4037,-1.3994,-1.3912,-1.3781,-1.3985,-1.4226,0.818,0.7988,0.7988,0.7988,0.7988,0.7988,0.7988,0.7988,0.7988,0.7988,0.7988,0.7988,0.7988,0.7988,0.7988,0.7988,0.7988,0.7988,0.7988,0.0,0.7784,0.764,0.7456,0.7079,0.6844,0.6669,0.6171,0.5949,0.5905,0.5589,0.5366,0.5191,0.4877,0.4429,0.3798,0.3423,0.305,0.2646,0.1444,0.0807,0.0825,0.0629,0.0511,0.051,0.0345,0.0265,0.0264,0.0074,0.0,0.0,0.0,0.0,0.0,0.0,0.0,0.0,0.0,0.0,0.0,0.0,0.0,0.0,0.0,0.0,0.0,0.0,0.0,-0.0045,-0.0268,-0.0454,-0.0567,-0.1237,-0.1789,-0.2245,-0.3168,-0.4079,-0.4885,-0.5689,-0.6439,-0.7138,-0.749,-0.7743,-0.7942,-0.7988,-0.7988,-0.7988,-0.7988,-0.7988,-0.7988,-0.7988,-0.7988,-0.7988,-0.7988,-0.7988,-0.7988,-0.8038,-0.8187,-0.8432,-0.8726,-0.9274,-0.992,-1.0359,-1.0846,-1.1531,-1.1755,-1.1928,-1.2152,-1.2278,-1.2519,-1.2917,-1.2862,-1.2798,-1.3023,-1.3225,-1.3431,0.8605,0.8244,0.8233,0.8137,0.7988,0.7988,0.7988,0.7988,0.7988,0.7988,0.7988,0.7988,0.7988,0.7988,0.7988,0.7988,0.7988,0.7988,0.7988,0.7971,0.7801,0.7665,0.758,0.7223,0.7035,0.6925,0.6659,0.6482,0.6482,0.6213,0.603,0.5944,0.5725,0.5366,0.4865,0.4374,0.4073,0.3903,0.2301,0.1446,0.1453,0.1139,0.0982,0.0982,0.0738,0.0614,0.0606,0.0449,0.0333,0.0328,0.0218,0.0146,0.0146,0.0074,0.0,0.0,0.0,0.0,0.0,0.0,0.0,0.0,0.0,0.0,0.0,0.0,0.0,0.0,-0.0135,-0.0227,-0.0374,-0.0758,-0.1157,-0.1736,-0.2355,-0.3123,-0.4031,-0.4834,-0.5639,-0.6439,-0.6942,-0.7294,-0.7746,-0.7793,-0.7842,-0.7939,-0.7988,-0.7985,-0.7978,-0.7963,-0.7897,-0.7971,-0.7988,-0.7988,-0.7985,-0.7988,-0.8038,-0.8187,-0.8382,-0.868,-0.9126,-0.9422,-0.9825,-1.0131,-1.0492,-1.0747,-1.089,-1.1071,-1.1324,-1.1514,-1.1705,-1.174,-1.1952,-1.2218,-1.2717,0.9134,0.8584,0.8584,0.8435,0.8187,0.8137,0.8088,0.8088,0.8038,0.7988,0.7988,0.7988,0.7988,0.7988,0.7988,0.7988,0.7988,0.7988,0.8021,0.7911,0.7719,0.7584,0.7522,0.722,0.7095,0.7095,0.6922,0.6884,0.6836,0.6656,0.652,0.6476,0.6349,0.6124,0.5849,0.523,0.491,0.4816,0.3348,0.2395,0.2157,0.1805,0.161,0.157,0.1335,0.1168,0.1108,0.0916,0.0795,0.078,0.0556,0.0408,0.0408,0.0227,0.0115,0.0076,0.0078,0.0039,0.0,0.0,0.0,0.0,0.0,0.0,0.0,0.0,0.0,0.0,0.0,-0.0091,-0.0277,-0.0375,-0.0668,-0.1265,-0.1679,-0.2285,-0.3134,-0.3982,-0.4825,-0.5567,-0.6163,-0.6703,-0.7202,-0.735,-0.7435,-0.7723,-0.7838,-0.7838,-0.7874,-0.7831,-0.7824,-0.7896,-0.7891,-0.7877,-0.794,-0.7929,-0.7923,-0.794,-0.8073,-0.8251,-0.8402,-0.8709,-0.8923,-0.8988,-0.9339,-0.9643,-0.9621,-0.9839,-1.0123,-1.0236,-1.0455,-1.0656,-1.0916,-1.1251,-1.1972,0.9745,0.916,0.9133,0.8981,0.8726,0.8482,0.8386,0.8333,0.8088,0.7988,0.7988,0.7988,0.7988,0.7988,0.7988,0.7988,0.7988,0.7988,0.7917,0.7834,0.7672,0.7526,0.7394,0.7221,0.7095,0.7095,0.7098,0.7051,0.7054,0.7051,0.6918,0.6792,0.6751,0.6615,0.6313,0.5823,0.561,0.5607,0.4821,0.3964,0.3056,0.2784,0.2591,0.2393,0.2196,0.1998,0.1834,0.1602,0.1445,0.1249,0.1013,0.0858,0.0819,0.0664,0.047,0.0274,0.0275,0.0196,0.0,0.0,0.0,0.0,0.0,0.0,0.0,0.0,0.0,0.0,0.0,0.0,-0.0046,-0.0232,-0.0421,-0.062,-0.12,-0.1774,-0.2211,-0.3019,-0.3926,-0.473,-0.5236,-0.5789,-0.6429,-0.662,-0.6798,-0.7251,-0.7305,-0.7403,-0.7539,-0.7601,-0.7574,-0.7641,-0.7645,-0.7651,-0.7662,-0.7645,-0.7678,-0.7668,-0.7651,-0.7814,-0.8021,-0.8102,-0.8142,-0.8389,-0.85,-0.8672,-0.8688,-0.8688,-0.8804,-0.912,-0.9358,-0.9632,-1.0159,-1.0385,-1.093,1.0917,1.0171,0.9969,0.9673,0.9278,0.8981,0.8886,0.8832,0.8581,0.8382,0.8237,0.8237,0.8137,0.7988,0.7988,0.7988,0.7988,0.7988,0.7911,0.7807,0.7665,0.7519,0.7366,0.7214,0.7095,0.7095,0.7095,0.7095,0.7095,0.7095,0.7051,0.701,0.6966,0.6922,0.6807,0.6375,0.6111,0.6105,0.553,0.4932,0.4421,0.3837,0.3487,0.3253,0.3018,0.286,0.2782,0.2469,0.2276,0.2198,0.1884,0.1609,0.1491,0.1294,0.102,0.0707,0.0432,0.0275,0.0196,0.0079,0.0,0.0,0.0,0.0,0.0,0.0,0.0,0.0,0.0,0.0,0.0,0.0,-0.0232,-0.0421,-0.071,-0.1096,-0.1717,-0.2288,-0.2955,-0.3808,-0.4284,-0.4849,-0.5703,-0.6222,-0.6552,-0.6788,-0.6879,-0.7017,-0.7164,-0.72,-0.724,-0.727,-0.7256,-0.7375,-0.7539,-0.7597,-0.7594,-0.7594,-0.7597,-0.7691,-0.7728,-0.7782,-0.7811,-0.7806,-0.7923,-0.7953,-0.7942,-0.805,-0.819,-0.836,-0.8391,-0.8648,-0.9039,-0.9159,-0.9592,1.2077,1.1276,1.085,1.0511,1.0117,0.9776,0.9575,0.948,0.9274,0.8928,0.8634,0.863,0.8485,0.8233,0.8088,0.7988,0.7988,0.7988,0.7933,0.7756,0.7645,0.7499,0.7309,0.7152,0.7095,0.7095,0.7095,0.7095,0.7095,0.7095,0.7095,0.7095,0.7095,0.7095,0.7068,0.6675,0.6484,0.642,0.601,0.5673,0.5395,0.4888,0.446,0.4151,0.3954,0.3795,0.3761,0.3411,0.3215,0.3136,0.2744,0.243,0.2233,0.2038,0.1686,0.1216,0.0707,0.0471,0.0471,0.0237,0.008,0.0082,0.0042,0.0,0.0,0.0,0.0,0.0,0.0,0.0,0.0,0.0,0.0,-0.0276,-0.0326,-0.0656,-0.1172,-0.1548,-0.2107,-0.2906,-0.3267,-0.3793,-0.4727,-0.5369,-0.573,-0.601,-0.6206,-0.6499,-0.6632,-0.6737,-0.6769,-0.6811,-0.6943,-0.7151,-0.7385,-0.7448,-0.7475,-0.7475,-0.7448,-0.7444,-0.7475,-0.7472,-0.7461,-0.7448,-0.7486,-0.751,-0.7474,-0.7606,-0.7731,-0.773,-0.7814,-0.787,-0.8143,-0.8143,-0.8292,1.3234,1.2299,1.178,1.1536,1.1438,1.0949,1.056,1.0364,1.0068,0.9673,0.9232,0.9187,0.9031,0.8726,0.8287,0.8038,0.8038,0.8038,0.7889,0.7685,0.7604,0.7438,0.7115,0.7098,0.7095,0.7095,0.7095,0.7095,0.7095,0.7095,0.7095,0.7095,0.7095,0.7095,0.7055,0.6805,0.6702,0.6627,0.637,0.6138,0.5899,0.5822,0.5473,0.5004,0.4927,0.4813,0.4621,0.4423,0.4226,0.4068,0.3602,0.329,0.3054,0.2823,0.2431,0.1882,0.1256,0.0864,0.0827,0.0521,0.0328,0.0252,0.0,0.0,0.0,0.0,0.0,0.0,0.0,0.0,0.0,0.0,0.0,0.0,-0.027,-0.0406,-0.0496,-0.0951,-0.1305,-0.1849,-0.2263,-0.2809,-0.3609,-0.386,-0.4416,-0.4867,-0.5079,-0.531,-0.5866,-0.6067,-0.6195,-0.637,-0.658,-0.6846,-0.7081,-0.7186,-0.7169,-0.7176,-0.7216,-0.7156,-0.7125,-0.7115,-0.7122,-0.7125,-0.7183,-0.7224,-0.7149,-0.7149,-0.7262,-0.7289,-0.7293,-0.7379,-0.7432,-0.7462,-0.7558,1.4132,1.3329,1.2985,1.2737,1.25,1.2019,1.1683,1.1394,1.1145,1.0605,1.0068,0.9969,0.9719,0.9278,0.913,0.8832,0.8531,0.8528,0.8362,0.8085,0.7926,0.7668,0.7391,0.7187,0.7095,0.7095,0.7095,0.7095,0.7095,0.7095,0.7095,0.7095,0.7095,0.7095,0.7048,0.6848,0.6702,0.6668,0.645,0.6257,0.6177,0.6177,0.606,0.5828,0.5518,0.5362,0.5287,0.5087,0.4929,0.489,0.4577,0.4265,0.3915,0.3329,0.2938,0.2663,0.196,0.153,0.1495,0.1043,0.074,0.0715,0.043,0.0263,0.0223,0.0,0.0,0.0,0.0,0.0,0.0,0.0,0.0,0.0,0.0,-0.0224,-0.0359,-0.0583,-0.0807,-0.1301,-0.184,-0.2379,-0.2647,-0.3138,-0.3537,-0.3807,-0.4072,-0.4385,-0.4699,-0.5055,-0.5411,-0.5589,-0.5991,-0.6352,-0.6438,-0.6881,-0.7098,-0.7102,-0.7109,-0.7115,-0.7098,-0.7098,-0.7112,-0.7109,-0.7095,-0.7058,-0.7041,-0.701,-0.7035,-0.6908,-0.6916,-0.6888,-0.681,-0.6899,-0.6915,1.4758,1.431,1.4004,1.38,1.3565,1.3184,1.2802,1.2506,1.2311,1.1775,1.1145,1.0949,1.0659,1.0265,1.0167,0.9916,0.9517,0.9266,0.8892,0.8543,0.8337,0.8077,0.7723,0.7455,0.7319,0.7231,0.7139,0.7095,0.7095,0.7095,0.7095,0.7095,0.7095,0.7095,0.7048,0.6844,0.6702,0.6647,0.6453,0.63,0.63,0.63,0.63,0.6261,0.5986,0.5834,0.5834,0.5634,0.5515,0.5473,0.5279,0.5046,0.4654,0.3951,0.3522,0.3444,0.2741,0.2272,0.2203,0.1696,0.1284,0.1178,0.0865,0.0619,0.0493,0.0269,0.018,0.0135,0.0,0.0,0.0,0.0,0.0,0.0,0.0,0.0,-0.0224,-0.0269,-0.0448,-0.0852,-0.1346,-0.1705,-0.1885,-0.2241,-0.2555,-0.2823,-0.3183,-0.3403,-0.3715,-0.4164,-0.4565,-0.4696,-0.5277,-0.5636,-0.5813,-0.621,-0.6741,-0.6877,-0.6966,-0.7007,-0.7034,-0.7037,-0.7075,-0.7078,-0.7051,-0.7011,-0.695,-0.6873,-0.6797,-0.6658,-0.6631,-0.6657,-0.6513,-0.6421,-0.6524,1.5089,1.5029,1.4783,1.4688,1.4592,1.4298,1.3956,1.3511,1.3463,1.3033,1.237,1.2127,1.1829,1.1585,1.1345,1.1194,1.0998,1.0261,0.9623,0.9194,0.8893,0.8569,0.8256,0.8028,0.7764,0.7547,0.7275,0.7139,0.7139,0.7143,0.7139,0.7095,0.7095,0.7095,0.7095,0.6858,0.6702,0.6641,0.645,0.63,0.63,0.63,0.63,0.63,0.6261,0.6222,0.6257,0.6018,0.5902,0.5864,0.5712,0.5518,0.5243,0.4696,0.4384,0.4265,0.36,0.3132,0.3028,0.2448,0.192,0.1689,0.1311,0.1026,0.0761,0.0583,0.0404,0.0314,0.018,0.0,0.0,0.0,0.0,0.0,0.0,0.0,0.0,0.0,-0.009,-0.0404,-0.0673,-0.0852,-0.1031,-0.1256,-0.1524,-0.1973,-0.2198,-0.2422,-0.2913,-0.3315,-0.363,-0.3894,-0.4385,-0.4786,-0.5144,-0.5589,-0.6124,-0.6567,-0.67,-0.6786,-0.6876,-0.6903,-0.6904,-0.6894,-0.691,-0.6862,-0.6783,-0.6709,-0.6637,-0.6522,-0.6504,-0.645,-0.6385,-0.632,-0.6313,1.5594,1.5547,1.5356,1.5255,1.5213,1.4975,1.464,1.4346,1.434,1.4004,1.3474,1.313,1.2888,1.2651,1.2414,1.2322,1.2273,1.1917,1.1207,1.0254,0.9875,0.9444,0.9006,0.8723,0.8372,0.7984,0.7764,0.7544,0.7411,0.737,0.7279,0.7139,0.7095,0.7095,0.7126,0.6854,0.6702,0.6664,0.645,0.63,0.63,0.63,0.63,0.63,0.63,0.63,0.6296,0.6219,0.6177,0.6177,0.6103,0.5986,0.5667,0.5279,0.501,0.4971,0.4382,0.3992,0.3888,0.3303,0.277,0.2522,0.2073,0.1589,0.1208,0.1031,0.0762,0.0493,0.0314,0.0224,0.0,0.0,0.0,0.0,0.0,0.0,0.0,0.0,0.0,-0.0135,-0.0359,-0.0493,-0.0628,-0.0718,-0.0897,-0.1166,-0.1346,-0.1614,-0.1793,-0.2332,-0.2602,-0.278,-0.336,-0.3896,-0.4164,-0.4516,-0.4999,-0.5604,-0.5992,-0.6383,-0.6524,-0.6637,-0.6645,-0.6665,-0.6684,-0.668,-0.66,-0.6522,-0.6424,-0.6403,-0.6381,-0.634,-0.631,-0.63,-0.63,1.5825,1.5784,1.5683,1.5588,1.5588,1.541,1.522,1.5022,1.4968,1.4729,1.434,1.4052,1.3854,1.3661,1.3431,1.3389,1.3335,1.3389,1.2733,1.1687,1.0986,1.0434,0.9775,0.9248,0.8899,0.8596,0.8288,0.8028,0.7768,0.7768,0.7632,0.7452,0.7275,0.7231,0.7214,0.6955,0.6766,0.6678,0.6504,0.6354,0.631,0.63,0.63,0.63,0.63,0.63,0.63,0.63,0.63,0.63,0.63,0.6219,0.6018,0.5709,0.5515,0.5437,0.5046,0.4735,0.4667,0.4084,0.3587,0.3363,0.2859,0.24,0.2035,0.1737,0.1346,0.0987,0.0762,0.0538,0.0224,0.0,0.009,0.0,0.0,0.0,0.0,0.0,0.0,0.0,-0.0135,-0.0224,-0.0314,-0.0359,-0.0494,-0.0583,-0.0718,-0.0897,-0.1031,-0.148,-0.166,-0.1974,-0.2466,-0.2869,-0.305,-0.34,-0.3835,-0.4475,-0.5107,-0.5613,-0.5979,-0.6151,-0.6259,-0.6284,-0.6289,-0.6306,-0.6241,-0.6245,-0.6198,-0.6213,-0.6261,-0.63,-0.63,-0.63,-0.63,1.5825,1.5825,1.5825,1.5778,1.5778,1.5778,1.5642,1.5493,1.5493,1.5356,1.5077,1.4831,1.4688,1.464,1.4394,1.425,1.4352,1.4298,1.3967,1.321,1.2381,1.1515,1.0686,0.9903,0.9519,0.934,0.8986,0.8592,0.8376,0.8332,0.8157,0.7984,0.772,0.7547,0.7471,0.7173,0.6932,0.677,0.6593,0.6476,0.6327,0.63,0.63,0.63,0.63,0.63,0.63,0.63,0.63,0.63,0.63,0.6257,0.6257,0.6057,0.5906,0.5902,0.5553,0.5359,0.5227,0.4817,0.4369,0.4078,0.3712,0.3339,0.2963,0.2528,0.2154,0.1794,0.1436,0.0987,0.0583,0.0448,0.0359,0.009,0.0,0.0,0.0,0.0,0.0,0.0,0.0,0.0,0.0,0.0,-0.018,-0.0314,-0.0404,-0.0494,-0.0628,-0.0897,-0.1032,-0.1345,-0.1705,-0.1973,-0.2198,-0.2376,-0.2764,-0.3249,-0.3911,-0.4471,-0.5161,-0.5418,-0.5676,-0.5708,-0.5817,-0.5829,-0.5901,-0.5921,-0.5986,-0.6041,-0.6145,-0.6222,-0.6222,-0.6145,-0.6141,1.5825,1.5825,1.5825,1.5825,1.5825,1.5825,1.5784,1.573,1.5737,1.5642,1.5547,1.5404,1.5255,1.5255,1.5029,1.4885,1.4885,1.4879,1.4584,1.4068,1.3722,1.2794,1.1711,1.0895,1.0424,1.025,0.999,0.9637,0.9248,0.9078,0.8903,0.8632,0.8245,0.8028,0.7954,0.7606,0.7339,0.713,0.6848,0.6668,0.6486,0.6344,0.63,0.63,0.63,0.63,0.63,0.63,0.63,0.63,0.63,0.63,0.6296,0.6219,0.6177,0.6099,0.5902,0.5744,0.5676,0.5313,0.4938,0.4665,0.446,0.4138,0.3602,0.3367,0.2955,0.2465,0.2063,0.166,0.1121,0.0897,0.0718,0.0359,0.0135,0.0,0.0,0.0,0.0,0.0,0.0,0.0,0.0,0.0,0.0,0.0,0.0,0.0,0.0,-0.0449,-0.0628,-0.0673,-0.0897,-0.1121,-0.1345,-0.148,-0.1734,-0.2092,-0.2612,-0.3058,-0.38,-0.4458,-0.4723,-0.4941,-0.5125,-0.5204,-0.5427,-0.5572,-0.5676,-0.5754,-0.5792,-0.5792,-0.5792,-0.5757,-0.5828,1.5825,1.5825,1.5825,1.5825,1.5825,1.5825,1.5825,1.5825,1.5825,1.5825,1.5778,1.5683,1.5635,1.5588,1.5458,1.5417,1.5417,1.541,1.5157,1.4708,1.4334,1.3536,1.2525,1.1843,1.1456,1.1198,1.0987,1.0598,1.0207,0.9946,0.9728,0.9419,0.8947,0.8684,0.864,0.8111,0.7752,0.7573,0.7229,0.6954,0.6748,0.6528,0.6461,0.6412,0.6377,0.63,0.63,0.63,0.63,0.63,0.63,0.63,0.63,0.63,0.63,0.63,0.6138,0.606,0.6022,0.5747,0.5472,0.5288,0.5181,0.4885,0.4505,0.4264,0.3849,0.3223,0.2914,0.2377,0.1705,0.1301,0.0987,0.0718,0.0449,0.0224,0.0045,0.0,0.0,0.0,0.0,0.0,0.0,0.0,0.0,0.0,0.0,0.0,0.0,0.0,0.0,0.0,0.0,-0.0672,-0.0847,-0.0978,-0.1094,-0.1375,-0.1587,-0.2002,-0.2707,-0.3484,-0.3785,-0.4079,-0.4348,-0.4618,-0.4815,-0.501,-0.5126,-0.5204,-0.5285,-0.5323,-0.5323,-0.5285,-0.5398,1.5832,1.5825,1.5825,1.5825,1.5825,1.5825,1.5825,1.5825,1.5825,1.5825,1.5778,1.5825,1.5778,1.5825,1.5737,1.5778,1.5784,1.5737,1.5598,1.5127,1.4627,1.3833,1.3298,1.2723,1.2326,1.21,1.1929,1.1628,1.1241,1.0939,1.0679,1.0376,0.9864,0.9519,0.9384,0.8798,0.8368,0.815,0.7818,0.7486,0.7228,0.6905,0.6725,0.6679,0.6525,0.6451,0.6412,0.6374,0.6338,0.6338,0.6338,0.63,0.63,0.63,0.63,0.63,0.6257,0.6257,0.6257,0.6022,0.5922,0.5832,0.5784,0.5666,0.5402,0.517,0.4788,0.4117,0.3898,0.3317,0.2512,0.1794,0.1435,0.13,0.1031,0.0673,0.0225,0.009,0.0045,0.0,0.0,0.0,0.0,0.0,0.0,0.0,0.0,0.0,0.0,0.0,0.0,0.0,0.0,-0.0358,-0.0444,-0.0528,-0.0603,-0.0758,-0.0896,-0.1234,-0.195,-0.2557,-0.2866,-0.3175,-0.3485,-0.3798,-0.4031,-0.4265,-0.446,-0.4579,-0.4618,-0.4735,-0.4813,-0.4735,-0.4774,1.5981,1.5825,1.5825,1.5825,1.5825,1.5825,1.5825,1.5825,1.5825,1.5825,1.5825,1.5825,1.5825,1.5825,1.5825,1.5825,1.5825,1.5812,1.5671,1.5344,1.4745,1.4392,1.4017,1.3476,1.3107,1.2881,1.2839,1.2619,1.2272,1.1886,1.1671,1.1537,1.0939,1.0549,1.0294,0.9941,0.954,0.9052,0.861,0.8213,0.7817,0.7368,0.7103,0.7065,0.6868,0.6791,0.6753,0.6637,0.6525,0.649,0.6412,0.6335,0.63,0.63,0.63,0.63,0.63,0.63,0.6261,0.6232,0.6191,0.6145,0.6147,0.6128,0.6114,0.5941,0.563,0.5146,0.4835,0.4297,0.3406,0.2959,0.251,0.2108,0.1929,0.1615,0.0987,0.0538,0.0359,0.0269,0.0,0.0,0.0,0.0,0.0,0.0,0.0,0.0,0.0,0.0,0.0,0.0,0.0,0.0,0.0,0.0,-0.0338,-0.0372,-0.0441,-0.0511,-0.1217,-0.1688,-0.1999,-0.2314,-0.2666,-0.2938,-0.3173,-0.3446,-0.3641,-0.3759,-0.3915,-0.3992,-0.4031,-0.4031,-0.4109,1.6312,1.6157,1.6069,1.5974,1.5974,1.5879,1.5825,1.5825,1.5825,1.5825,1.5825,1.5825,1.5825,1.5825,1.5825,1.5825,1.5825,1.5771,1.5671,1.5391,1.5037,1.4796,1.4479,1.4097,1.3758,1.3472,1.3392,1.3264,1.3009,1.2705,1.2491,1.2448,1.1843,1.1408,1.1198,1.0852,1.0463,1.0034,0.9466,0.9041,0.8774,0.8147,0.7638,0.7484,0.7288,0.7173,0.7173,0.6984,0.6907,0.6834,0.6679,0.649,0.6338,0.63,0.63,0.63,0.63,0.63,0.6303,0.6364,0.6354,0.6358,0.6468,0.6522,0.6466,0.6405,0.621,0.5861,0.5547,0.5146,0.4342,0.3762,0.336,0.3092,0.2778,0.251,0.2062,0.13,0.0673,0.0538,0.0,0.0,0.0,0.0135,0.0,0.0,0.0,0.0,0.0,0.0,0.0,0.0,0.0,0.0,0.0,0.0,0.0,-0.0122,-0.0159,-0.0197,-0.0471,-0.0863,-0.1176,-0.153,-0.1883,-0.1999,-0.2194,-0.2508,-0.2782,-0.2899,-0.3017,-0.3134,-0.3175,-0.3175,-0.3292,1.677,1.6683,1.6454,1.6312,1.6272,1.6069,1.5967,1.5927,1.5927,1.5967,1.5879,1.5879,1.5879,1.5825,1.5825,1.5825,1.5825,1.5818,1.5685,1.5511,1.5371,1.5097,1.4732,1.4475,1.4203,1.3851,1.3756,1.3659,1.3483,1.3313,1.3137,1.3052,1.2577,1.2229,1.2057,1.1671,1.1327,1.1096,1.0414,0.9974,0.9741,0.9047,0.8417,0.8089,0.7936,0.7787,0.771,0.7561,0.7373,0.7338,0.7138,0.6868,0.6563,0.6374,0.6338,0.6335,0.6335,0.63,0.6323,0.6416,0.6471,0.6549,0.6756,0.6837,0.6724,0.6718,0.6599,0.6352,0.6083,0.5813,0.5188,0.4741,0.4295,0.4026,0.3673,0.3449,0.3092,0.2195,0.1614,0.1031,0.0762,0.0583,0.0449,0.0359,0.0225,0.009,0.0045,0.0,0.0,0.0,0.0,0.0,0.0,0.0,0.0,0.0,0.0,0.0,0.0,0.0,0.0,-0.0314,-0.0628,-0.0785,-0.1021,-0.1216,-0.1412,-0.1686,-0.1882,-0.1999,-0.2157,-0.2314,-0.2315,-0.2315,-0.2433,1.7613,1.7185,1.6972,1.6885,1.6831,1.6588,1.6487,1.644,1.6494,1.6353,1.6177,1.613,1.6021,1.5872,1.5825,1.5825,1.5825,1.5818,1.5792,1.5685,1.5545,1.5291,1.5137,1.4743,1.4472,1.4352,1.4137,1.3955,1.3913,1.3737,1.361,1.3525,1.3264,1.3045,1.2881,1.2753,1.2406,1.2031,1.1376,1.0921,1.0594,0.9914,0.9236,0.8884,0.877,0.8661,0.8475,0.8289,0.8136,0.7953,0.7748,0.7553,0.7288,0.6907,0.6679,0.6525,0.6451,0.6377,0.6379,0.6443,0.6573,0.6661,0.6837,0.6947,0.6984,0.7031,0.6874,0.6704,0.6435,0.6213,0.5947,0.5633,0.5366,0.501,0.4696,0.4474,0.3941,0.3405,0.2823,0.2241,0.1614,0.0987,0.0942,0.0763,0.0539,0.0404,0.0359,0.0225,0.0,0.0,0.0,0.0,0.0,0.0,0.0,0.0,0.0,0.0,0.0,0.0,0.0,0.0,-0.0157,-0.0393,-0.055,-0.0707,-0.0864,-0.0981,-0.1099,-0.1295,-0.1413,-0.1492,-0.1571,-0.1649,-0.1571,1.8496,1.8257,1.7893,1.7707,1.766,1.7333,1.7185,1.7138,1.6998,1.6824,1.6643,1.6602,1.6454,1.6211,1.6021,1.5927,1.5832,1.5825,1.5825,1.5785,1.5685,1.5524,1.5391,1.4937,1.4683,1.4482,1.4242,1.4095,1.4088,1.3955,1.3913,1.387,1.3695,1.3483,1.3398,1.327,1.3137,1.2765,1.2228,1.1766,1.1587,1.0704,1.0095,0.9836,0.9642,0.9533,0.9349,0.9127,0.8975,0.8861,0.8585,0.8394,0.8174,0.7838,0.7338,0.7038,0.6764,0.6571,0.6573,0.6669,0.6781,0.6807,0.6906,0.7011,0.7075,0.7095,0.7054,0.6922,0.6748,0.6567,0.6482,0.6346,0.6077,0.5808,0.5633,0.5369,0.5057,0.4612,0.4074,0.3449,0.2555,0.1928,0.1615,0.1346,0.0987,0.0762,0.0673,0.0493,0.0269,0.022,0.0216,0.0,0.0,0.0,0.0,0.0,0.0,0.0,0.0,0.0,0.0,0.0,0.0,-0.0157,-0.0236,0.0,-0.0393,-0.051,-0.055,-0.0629,-0.0825,-0.0982,-0.0943,-0.0943,-0.0943,1.9509,1.9379,1.8896,1.8703,1.8611,1.8249,1.8056,1.7971,1.7792,1.7567,1.7301,1.7207,1.7059,1.677,1.6494,1.6218,1.5974,1.5967,1.6015,1.6015,1.5994,1.5826,1.5564,1.5281,1.5006,1.4643,1.4355,1.4142,1.4088,1.4088,1.4088,1.4046,1.387,1.3779,1.3737,1.3652,1.3519,1.3329,1.2893,1.2481,1.2072,1.1471,1.0887,1.0706,1.0519,1.0363,1.0143,1.0035,0.9965,0.9878,0.9665,0.9402,0.9351,0.9019,0.8483,0.7858,0.7363,0.7038,0.6951,0.7024,0.7084,0.7023,0.7095,0.7163,0.7092,0.7095,0.7095,0.7054,0.6966,0.6836,0.6792,0.6656,0.652,0.6435,0.6302,0.6171,0.5902,0.5589,0.5233,0.4474,0.3449,0.2914,0.2601,0.2198,0.1883,0.1436,0.1346,0.0933,0.0753,0.0566,0.0469,0.0207,0.0,0.0,0.0,0.0,0.0,0.0,0.0,0.0,0.0,0.0,0.0,0.0,0.0,0.0,0.0,-0.0118,-0.0236,-0.0354,-0.0432,0.0,0.0,0.0,-0.0511,2.0546,2.0147,1.9857,1.9704,1.9712,1.943,1.9171,1.905,1.8996,1.8673,1.8257,1.8032,1.7846,1.7512,1.7106,1.6784,1.6588,1.6487,1.6487,1.6487,1.6487,1.6379,1.6108,1.5816,1.5422,1.4976,1.4613,1.4329,1.4184,1.413,1.4088,1.4088,1.4046,1.4039,1.3997,1.3913,1.4004,1.3902,1.3417,1.2866,1.2318,1.1853,1.1571,1.1384,1.1272,1.1184,1.1026,1.0968,1.0971,1.1026,1.0805,1.0757,1.0766,1.0415,1.0099,0.9436,0.8538,0.7525,0.7463,0.7511,0.7484,0.7393,0.7421,0.7305,0.7231,0.7143,0.7143,0.7095,0.7054,0.7054,0.7054,0.7007,0.6922,0.6792,0.6704,0.6567,0.6387,0.6213,0.5902,0.5722,0.4741,0.4164,0.3719,0.3226,0.2778,0.2377,0.197,0.1551,0.1137,0.0944,0.0754,0.0487,0.0281,0.0237,0.0,0.0,0.0,0.0,0.0,0.0,0.0,0.0,0.0,0.0,0.0,0.0,0.0,0.0,-0.0039,0.0,0.0,0.0,0.0,0.0,0.0,2.1722,2.1284,2.1051,2.0907,2.0907,2.0673,2.0447,2.0221,2.0048,1.972,1.9263,1.9034,1.8581,1.8032,1.7667,1.7387,1.7091,1.7005,1.7005,1.7005,1.7012,1.6918,1.6612,1.6334,1.5934,1.5442,1.5044,1.4636,1.4374,1.4166,1.4088,1.4088,1.4088,1.4088,1.4088,1.4088,1.4088,1.3959,1.3657,1.3232,1.2857,1.2615,1.2421,1.2228,1.2216,1.2093,1.1978,1.197,1.1969,1.1981,1.1791,1.1714,1.165,1.1393,1.1025,1.0778,1.0096,0.9237,0.8495,0.8291,0.806,0.7899,0.7807,0.7713,0.7455,0.7323,0.7231,0.7095,0.7095,0.7095,0.7139,0.7095,0.7054,0.6966,0.6925,0.6877,0.6741,0.6612,0.6438,0.6257,0.608,0.5413,0.4743,0.4162,0.3669,0.3176,0.2752,0.2364,0.1765,0.118,0.0943,0.0715,0.0553,0.0472,0.0432,0.0,0.0,0.0,0.0,0.0,0.0,0.0,0.0353,0.0354,0.0,0.0,0.0196,0.0079,0.0,0.0,0.0,0.0,0.0,0.0,0.0,2.2671,2.2309,2.2008,2.1865,2.1865,2.1731,2.149,2.1266,2.1051,2.0727,2.0357,2.0039,1.9409,1.8727,1.8496,1.8265,1.7792,1.7699,1.7652,1.766,1.766,1.7574,1.7375,1.7062,1.6603,1.5976,1.5571,1.5126,1.4677,1.4412,1.425,1.413,1.4088,1.4088,1.4088,1.4088,1.4088,1.4062,1.3753,1.3493,1.33,1.318,1.3068,1.2989,1.2929,1.2889,1.277,1.2744,1.2751,1.2793,1.2633,1.2556,1.2575,1.2367,1.2069,1.184,1.1424,1.0858,1.0015,0.944,0.8944,0.8626,0.8328,0.8197,0.7764,0.7676,0.7588,0.7408,0.7231,0.7231,0.7187,0.7187,0.7095,0.7095,0.7095,0.7095,0.7095,0.6877,0.6792,0.67,0.6523,0.639,0.5766,0.5095,0.4512,0.4061,0.3617,0.316,0.2496,0.1734,0.1456,0.1296,0.1178,0.1021,0.0825,0.0786,0.0785,0.0863,0.0863,0.0863,0.0903,0.0903,0.0903,0.0864,0.0825,0.0668,0.0589,0.0314,0.0,0.0,0.0,0.0,0.0,0.0,0.0,2.3047,2.3003,2.253,2.2353,2.2353,2.2353,2.222,2.2008,2.2008,2.1785,2.141,2.1087,2.0447,1.9849,1.9538,1.9317,1.9042,1.8819,1.8735,1.8689,1.8689,1.8542,1.8319,1.8026,1.7561,1.6788,1.636,1.5778,1.5176,1.4922,1.4545,1.4166,1.4166,1.413,1.4088,1.4088,1.4088,1.4041,1.3828,1.3666,1.352,1.3434,1.3253,1.3234,1.3207,1.3174,1.318,1.3214,1.328,1.3444,1.3287,1.3283,1.3323,1.3194,1.2937,1.2794,1.256,1.2051,1.1497,1.0646,1.0,0.9545,0.9157,0.8719,0.8288,0.8157,0.8069,0.7808,0.7632,0.7503,0.7411,0.7279,0.7275,0.7187,0.7187,0.7143,0.7139,0.7095,0.701,0.701,0.6922,0.6745,0.6628,0.5954,0.5357,0.4863,0.4267,0.3802,0.3335,0.2655,0.231,0.2079,0.1882,0.1687,0.1374,0.1374,0.1491,0.1608,0.1646,0.1607,0.1607,0.1568,0.153,0.1452,0.1413,0.1178,0.0943,0.0825,0.0,0.0,0.0,0.0,0.0,0.0,0.0,2.3101,2.3101,2.2916,2.2828,2.2828,2.2828,2.2706,2.2539,2.2539,2.2318,2.1963,2.1731,2.1356,2.0853,2.0583,2.032,2.0048,1.9837,1.9745,1.9745,1.97,1.9546,1.9355,1.9144,1.8768,1.8008,1.7471,1.6822,1.6085,1.5678,1.5222,1.4838,1.4496,1.4208,1.4166,1.4124,1.413,1.411,1.3981,1.3915,1.3895,1.3841,1.3754,1.3754,1.3754,1.3748,1.3761,1.3754,1.3821,1.3833,1.3811,1.3849,1.388,1.3688,1.3568,1.344,1.3222,1.296,1.2577,1.1714,1.0895,1.0289,0.9898,0.9506,0.9034,0.8903,0.8552,0.8248,0.8028,0.794,0.7764,0.7676,0.7588,0.7411,0.7323,0.7275,0.7187,0.7187,0.7071,0.7061,0.7037,0.6966,0.6882,0.6749,0.6194,0.5635,0.5046,0.4454,0.3985,0.3602,0.3224,0.2899,0.2704,0.2547,0.2235,0.2235,0.2275,0.2352,0.2468,0.2507,0.2507,0.2353,0.2315,0.2198,0.208,0.1961,0.1765,0.1491,0.0,0.0,0.0,0.0,0.0,0.0118,0.0,2.3101,2.3101,2.3101,2.3101,2.3101,2.3101,2.3013,2.2882,2.2882,2.2671,2.2318,2.2264,2.2087,2.1722,2.1454,2.123,2.1006,2.0826,2.0736,2.0699,2.069,2.06,2.0447,2.0198,1.9827,1.9207,1.8534,1.7806,1.703,1.6565,1.5986,1.5499,1.5075,1.479,1.4328,1.4292,1.4292,1.4292,1.4292,1.4208,1.4188,1.4181,1.4097,1.4084,1.4028,1.4028,1.4015,1.4001,1.4021,1.4048,1.4062,1.4075,1.4039,1.3955,1.3864,1.3779,1.3659,1.3532,1.3143,1.2491,1.1714,1.1149,1.0933,1.0463,0.999,0.9733,0.9467,0.9034,0.8727,0.8464,0.8292,0.816,0.794,0.7764,0.7635,0.7544,0.7367,0.7275,0.7139,0.7061,0.7028,0.6954,0.6837,0.6763,0.6415,0.5963,0.5546,0.5079,0.4693,0.4362,0.4081,0.38,0.3563,0.337,0.3214,0.3173,0.3171,0.3368,0.3483,0.3561,0.3524,0.337,0.3214,0.3134,0.3017,0.2821,0.2626,0.243,0.1803,0.0,0.0903,0.0668,0.055,0.0432,0.0314,2.3101,2.3101,2.3101,2.3101,2.3101,2.3101,2.3091,2.3057,2.3047,2.296,2.2759,2.2759,2.2627,2.2353,2.2087,2.1954,2.1909,2.1687,2.1597,2.1553,2.1508,2.1588,2.1454,2.1168,2.0837,2.0281,1.9549,1.8744,1.8003,1.7433,1.6795,1.6319,1.6031,1.5575,1.4824,1.4699,1.4699,1.4699,1.4734,1.4608,1.4489,1.4447,1.437,1.4243,1.4208,1.4208,1.4166,1.4166,1.4166,1.4088,1.4088,1.4088,1.4088,1.4088,1.4039,1.4039,1.4046,1.3913,1.3652,1.3052,1.2491,1.2057,1.1843,1.1542,1.1025,1.0722,1.0419,0.9941,0.9641,0.934,0.9034,0.8727,0.8508,0.8248,0.812,0.79,0.772,0.749,0.7389,0.7163,0.6982,0.6836,0.6729,0.661,0.6424,0.6143,0.5925,0.5646,0.5308,0.5046,0.4774,0.4582,0.4345,0.4187,0.407,0.4068,0.4107,0.4304,0.4423,0.4462,0.4462,0.4307,0.4187,0.407,0.3915,0.368,0.3524,0.3368,0.2781,0.2155,0.1334,0.1021,0.0904,0.0786,0.0707,2.3101,2.3101,2.3101,2.3101,2.3101,2.3101,2.3101,2.3101,2.3091,2.3047,2.3013,2.3003,2.2969,2.2838,2.2671,2.2539,2.2495,2.2309,2.2176,2.2176,2.2176,2.2176,2.2078,2.1971,2.1773,2.1365,2.0614,1.9791,1.9261,1.8463,1.7774,1.7335,1.6968,1.6386,1.565,1.536,1.5367,1.536,1.5235,1.5068,1.4908,1.4873,1.4748,1.4531,1.4496,1.4454,1.4328,1.4321,1.4243,1.4166,1.4166,1.413,1.4124,1.4124,1.4088,1.4088,1.4088,1.4088,1.3955,1.3659,1.3355,1.2966,1.2668,1.2363,1.1757,1.1628,1.1284,1.0901,1.0598,1.0294,0.9946,0.9816,0.9554,0.9038,0.8819,0.8464,0.8221,0.7899,0.7647,0.7339,0.7073,0.684,0.6651,0.6659,0.651,0.6337,0.613,0.5959,0.5676,0.5515,0.5323,0.5246,0.509,0.5007,0.4888,0.4807,0.4768,0.4888,0.5087,0.5207,0.5207,0.5087,0.4968,0.4813,0.4696,0.4579,0.4384,0.4148,0.3876,0.3288,0.2546,0.1843,0.1648,0.1491,0.1256,2.3276,2.3232,2.3232,2.3178,2.3101,2.3101,2.3101,2.3101,2.3101,2.3101,2.3091,2.3091,2.3101,2.3057,2.2969,2.2882,2.2891,2.275,2.2652,2.2652,2.2652,2.2652,2.2608,2.2564,2.2369,2.2117,2.147,2.0661,2.0126,1.9394,1.8718,1.8224,1.8014,1.7651,1.7,1.6665,1.6263,1.6221,1.6057,1.5899,1.5658,1.5499,1.5333,1.5075,1.4908,1.4776,1.4657,1.4573,1.4447,1.4328,1.4243,1.4208,1.4201,1.4166,1.413,1.4088,1.4088,1.4088,1.4088,1.4088,1.3743,1.3489,1.3398,1.3052,1.2577,1.2448,1.2192,1.1892,1.1542,1.1241,1.0939,1.0852,1.0381,0.9864,0.9602,0.9288,0.8777,0.8496,0.804,0.7689,0.7251,0.6965,0.6719,0.6673,0.6659,0.6493,0.6335,0.6173,0.6057,0.5906,0.5792,0.5715,0.5634,0.5476,0.5434,0.5434,0.5434,0.5512,0.5634,0.5757,0.5754,0.5634,0.5553,0.5476,0.5282,0.5126,0.5087,0.489,0.4577,0.4302,0.3871,0.3209,0.2585,0.2233,0.1999,2.3711,2.3537,2.3493,2.3363,2.3144,2.3144,2.3135,2.3101,2.3101,2.3101,2.3101,2.3101,2.3101,2.3101,2.3091,2.3047,2.3047,2.3047,2.3003,2.3003,2.296,2.3013,2.2969,2.2882,2.2794,2.2418,2.1854,2.1182,2.0796,1.9907,1.9298,1.9082,1.8944,1.8745,1.8416,1.8006,1.7432,1.7237,1.7,1.6796,1.6517,1.6278,1.6072,1.5816,1.5567,1.5367,1.52,1.4992,1.4859,1.4692,1.4566,1.4482,1.4363,1.4208,1.4166,1.4124,1.4124,1.4124,1.4088,1.4088,1.4088,1.387,1.3779,1.361,1.3349,1.3094,1.2881,1.2668,1.2363,1.2186,1.1966,1.1542,1.1111,1.0766,1.0506,1.0058,0.9479,0.9043,0.8598,0.8102,0.7579,0.726,0.7036,0.6941,0.7017,0.6859,0.6753,0.6602,0.6447,0.6219,0.6141,0.6103,0.6022,0.5902,0.5902,0.5864,0.5864,0.5864,0.5983,0.6103,0.6103,0.6064,0.5944,0.5789,0.5715,0.5637,0.5595,0.5476,0.5282,0.5004,0.4693,0.4226,0.3524,0.3136,0.2901,2.4067,2.398,2.3807,2.3667,2.357,2.345,2.3276,2.3144,2.3101,2.3101,2.3101,2.3101,2.3101,2.3101,2.3091,2.3101,2.3101,2.3101,2.3091,2.3101,2.3101,2.3101,2.3101,2.3057,2.3003,2.2722,2.2171,2.1524,2.1116,2.0349,1.9833,1.9666,1.9627,1.9627,1.9499,1.9292,1.8767,1.8287,1.8055,1.7732,1.7448,1.7253,1.696,1.6673,1.6468,1.6188,1.5906,1.5741,1.5567,1.5269,1.5026,1.4908,1.4873,1.4664,1.4489,1.4321,1.4321,1.4286,1.4124,1.4088,1.413,1.413,1.4039,1.3864,1.3695,1.3568,1.3483,1.327,1.3094,1.2833,1.2705,1.2357,1.1929,1.1628,1.137,1.1015,1.0456,1.0018,0.9512,0.8686,0.8182,0.7801,0.7553,0.7486,0.7518,0.7354,0.7176,0.7065,0.6837,0.6606,0.6412,0.6374,0.6296,0.6173,0.6177,0.6141,0.618,0.6219,0.6257,0.63,0.6219,0.618,0.618,0.6103,0.5986,0.6028,0.6106,0.5948,0.5712,0.5673,0.5398,0.4971,0.4543,0.4114,0.38,2.4754,2.4583,2.4444,2.4229,2.3927,2.3711,2.3493,2.3363,2.3188,2.3101,2.3101,2.3101,2.3101,2.3101,2.3101,2.3101,2.3101,2.3101,2.3101,2.3101,2.3101,2.3101,2.3101,2.3101,2.3101,2.2799,2.236,2.1783,2.1397,2.0766,2.0177,2.0177,2.0177,2.0177,2.0128,2.005,1.9824,1.9381,1.9024,1.8656,1.8376,1.8175,1.7893,1.7691,1.7489,1.709,1.6771,1.6607,1.6312,1.6015,1.5816,1.5582,1.5458,1.5159,1.4901,1.4734,1.4706,1.458,1.4454,1.4377,1.4334,1.4334,1.4328,1.4286,1.4117,1.399,1.3828,1.3659,1.3568,1.3434,1.3349,1.3179,1.2839,1.2491,1.2272,1.2015,1.156,1.1064,1.0305,0.9469,0.8921,0.8523,0.8269,0.819,0.8095,0.8004,0.7868,0.7718,0.7373,0.6949,0.6756,0.6637,0.6525,0.6409,0.6412,0.6374,0.6335,0.6296,0.6257,0.63,0.63,0.6257,0.6219,0.6257,0.6257,0.6261,0.6261,0.618,0.6022,0.5983,0.5948,0.5673,0.5285,0.4971,0.4735,2.5717,2.5327,2.5285,2.4903,2.4292,2.4057,2.3927,2.3797,2.3406,2.3188,2.3178,2.3101,2.3101,2.3101,2.3101,2.3101,2.3101,2.3101,2.3101,2.3091,2.3101,2.3101,2.3101,2.3091,2.3023,2.276,2.2321,2.1758,2.1514,2.0917,2.0489,2.0615,2.0527,2.0489,2.0489,2.0489,2.0294,2.0098,1.9784,1.9469,1.9213,1.8975,1.8776,1.8616,1.8256,1.7853,1.7691,1.7448,1.7123,1.6992,1.6755,1.6443,1.6113,1.5865,1.5526,1.5284,1.5249,1.5082,1.4908,1.4824,1.4783,1.4783,1.4776,1.4734,1.4608,1.4279,1.4075,1.399,1.3857,1.3779,1.3652,1.3568,1.3355,1.3094,1.2918,1.2619,1.2225,1.173,1.11,1.0356,0.9938,0.9572,0.931,0.9232,0.9111,0.8899,0.8688,0.8501,0.8192,0.7688,0.7316,0.708,0.6834,0.6718,0.6602,0.6525,0.6412,0.6374,0.6335,0.63,0.63,0.63,0.63,0.63,0.63,0.63,0.6261,0.6219,0.6219,0.618,0.618,0.6257,0.6025,0.5631,0.5437,2.6603,2.6456,2.6113,2.5569,2.4988,2.4903,2.4572,2.411,2.398,2.3764,2.3406,2.3232,2.3144,2.3144,2.3188,2.3188,2.3135,2.3188,2.3101,2.3091,2.3135,2.3101,2.3101,2.3091,2.2935,2.2588,2.2109,2.1543,2.1094,2.0752,2.0615,2.0615,2.0615,2.0615,2.0615,2.0615,2.0527,2.0489,2.0333,2.0069,1.9784,1.9696,1.9548,1.939,1.9063,1.8873,1.8714,1.8456,1.8175,1.7974,1.761,1.7212,1.6796,1.6673,1.6427,1.6154,1.5997,1.5782,1.5526,1.5401,1.536,1.5276,1.5269,1.5228,1.5061,1.4608,1.4321,1.4279,1.4153,1.4075,1.3997,1.3913,1.3828,1.3695,1.3561,1.3179,1.2839,1.2355,1.1821,1.1447,1.1026,1.0735,1.0458,1.0248,1.0153,0.9951,0.9756,0.9544,0.9269,0.8846,0.8194,0.7871,0.7269,0.703,0.6949,0.6756,0.6679,0.6563,0.6563,0.6451,0.6338,0.6338,0.6377,0.63,0.63,0.63,0.63,0.6296,0.6257,0.63,0.63,0.63,0.63,0.5983,0.5906,2.7493,2.7226,2.6745,2.629,2.5957,2.5737,2.5411,2.5073,2.4786,2.4487,2.4176,2.3701,2.344,2.3406,2.3406,2.3406,2.3396,2.3319,2.3319,2.3276,2.3178,2.3091,2.3101,2.3125,2.2828,2.249,2.1846,2.124,2.0703,2.0615,2.0615,2.0615,2.0615,2.0615,2.0615,2.0615,2.0615,2.0615,2.0615,2.045,2.0177,2.0098,2.0069,1.9912,1.9754,1.9597,1.9478,1.9222,1.9033,1.8785,1.8465,1.8184,1.7853,1.7651,1.7367,1.709,1.6845,1.6648,1.6345,1.618,1.6057,1.6015,1.5982,1.6023,1.5982,1.5567,1.511,1.4985,1.4531,1.4412,1.4363,1.4279,1.4195,1.4062,1.3906,1.3652,1.3349,1.3007,1.265,1.2356,1.207,1.191,1.1658,1.1438,1.1318,1.1135,1.0903,1.0683,1.0384,1.0099,0.9422,0.8785,0.8307,0.7756,0.7565,0.7296,0.6988,0.6872,0.6841,0.6637,0.6563,0.649,0.6454,0.6412,0.6335,0.63,0.63,0.6296,0.63,0.63,0.63,0.63,0.63,0.63,0.618,2.8327,2.7851,2.74,2.7085,2.6962,2.661,2.6362,2.6155,2.5706,2.5369,2.52,2.4476,2.409,2.3917,2.3884,2.3884,2.3841,2.3711,2.3624,2.3537,2.3363,2.3276,2.3232,2.3149,2.2836,2.2227,2.1533,2.1064,2.0625,2.0615,2.0615,2.0615,2.0615,2.0615,2.0615,2.0615,2.0615,2.0615,2.0615,2.0615,2.0537,2.0459,2.0342,2.0255,2.0137,1.9971,1.9902,1.9833,1.9676,1.9518,1.9271,1.8993,1.8745,1.8545,1.8304,1.8023,1.7861,1.7619,1.7326,1.7196,1.7041,1.6927,1.6894,1.6861,1.6812,1.6566,1.6064,1.5692,1.5276,1.4824,1.4776,1.4657,1.4566,1.4398,1.4243,1.4039,1.3773,1.3548,1.3379,1.316,1.3007,1.2878,1.2726,1.2545,1.2363,1.2202,1.203,1.1846,1.1632,1.1265,1.0807,1.0206,0.9705,0.9116,0.8487,0.8056,0.7768,0.7425,0.7394,0.7045,0.6791,0.6756,0.6683,0.6528,0.6451,0.6451,0.6412,0.6412,0.6374,0.6335,0.63,0.63,0.63,0.63,0.63,2.8843,2.8581,2.8474,2.8155,2.7661,2.7528,2.7214,2.6798,2.6644,2.6385,2.6071,2.5821,2.5306,2.437,2.438,2.438,2.4423,2.4229,2.411,2.4024,2.3841,2.3624,2.342,2.3331,2.2817,2.2126,2.1379,2.0791,2.0731,2.0693,2.0605,2.0644,2.0605,2.0605,2.0605,2.0605,2.0615,2.0615,2.0615,2.0615,2.0615,2.0566,2.0566,2.0489,2.0489,2.044,2.0401,2.0255,2.0186,2.0069,1.9902,1.9627,1.9478,1.932,1.9112,1.8904,1.8745,1.8545,1.8296,1.8135,1.7983,1.7789,1.7749,1.7749,1.7708,1.7619,1.7245,1.7,1.6468,1.5609,1.536,1.5124,1.4999,1.4699,1.4496,1.4292,1.4033,1.3948,1.3815,1.3646,1.3493,1.337,1.3273,1.3142,1.3031,1.2909,1.282,1.2654,1.2401,1.2258,1.2089,1.1588,1.1038,1.037,0.9652,0.9168,0.8816,0.8404,0.7935,0.7632,0.7369,0.7103,0.6992,0.6911,0.6791,0.6753,0.6679,0.6606,0.649,0.6447,0.6335,0.63,0.6296,0.63,0.63]}]]